<?xml version="1.0" encoding="UTF-8" standalone="no" ?>
<gpx xmlns="http://www.topografix.com/GPX/1/1" xmlns:xsi="http://www.w3.org/2001/XMLSchema-instance" xsi:schemaLocation="http://www.topografix.com/GPX/1/1 http://www.topografix.com/GPX/1/1/gpx.xsd" version="1.1" creator="VisuGPX - https://www.visugpx.com">
  <metadata>
    <name>Doucier, Menetrux-en-Joux, Chambly</name>
    <desc><![CDATA[Randonnée effectuée le 7 septembre 2017.
L'indice IBP d'effort est de 63, (suivant l'échelle de la FFRP) un score compris entre 51 et 75 correspond au niveau 3 qualifié de "PEU DIFFICILE". La randonnée pédestre nécessite un certain engagement physique qui reste toutefois mesuré. Ce niveau correspond à des randonnées pédestres modérées.
]]></desc>
  </metadata>
  <trk>
    <name><![CDATA[7 sept. 2017 à 09:06:59]]></name>
    <cmt><![CDATA[7 sept. 2017 à 09:06:59]]></cmt>
    <trkseg>
      <trkpt lat="46.65517" lon="5.77865">
        <ele>519</ele>
        <time>2017-09-07T07:07:00Z</time>
      </trkpt>
      <trkpt lat="46.65512" lon="5.77854">
        <ele>522</ele>
        <time>2017-09-07T07:07:03Z</time>
      </trkpt>
      <trkpt lat="46.65511" lon="5.77856">
        <ele>522</ele>
        <time>2017-09-07T07:07:33Z</time>
      </trkpt>
      <trkpt lat="46.65516" lon="5.77867">
        <ele>520</ele>
        <time>2017-09-07T07:08:27Z</time>
      </trkpt>
      <trkpt lat="46.65532" lon="5.77872">
        <ele>523</ele>
        <time>2017-09-07T07:08:41Z</time>
      </trkpt>
      <trkpt lat="46.6553" lon="5.7788">
        <ele>523</ele>
        <time>2017-09-07T07:08:51Z</time>
      </trkpt>
      <trkpt lat="46.65525" lon="5.77879">
        <ele>523</ele>
        <time>2017-09-07T07:08:55Z</time>
      </trkpt>
      <trkpt lat="46.6552" lon="5.77879">
        <ele>524</ele>
        <time>2017-09-07T07:09:00Z</time>
      </trkpt>
      <trkpt lat="46.65515" lon="5.77876">
        <ele>524</ele>
        <time>2017-09-07T07:09:04Z</time>
      </trkpt>
      <trkpt lat="46.65511" lon="5.77873">
        <ele>523</ele>
        <time>2017-09-07T07:09:09Z</time>
      </trkpt>
      <trkpt lat="46.65506" lon="5.77872">
        <ele>522</ele>
        <time>2017-09-07T07:09:14Z</time>
      </trkpt>
      <trkpt lat="46.65503" lon="5.77886">
        <ele>520</ele>
        <time>2017-09-07T07:09:22Z</time>
      </trkpt>
      <trkpt lat="46.65501" lon="5.77894">
        <ele>520</ele>
        <time>2017-09-07T07:09:27Z</time>
      </trkpt>
      <trkpt lat="46.65498" lon="5.77899">
        <ele>520</ele>
        <time>2017-09-07T07:09:32Z</time>
      </trkpt>
      <trkpt lat="46.65494" lon="5.77912">
        <ele>519</ele>
        <time>2017-09-07T07:09:45Z</time>
      </trkpt>
      <trkpt lat="46.65495" lon="5.77928">
        <ele>520</ele>
        <time>2017-09-07T07:09:55Z</time>
      </trkpt>
      <trkpt lat="46.65494" lon="5.77934">
        <ele>520</ele>
        <time>2017-09-07T07:10:01Z</time>
      </trkpt>
      <trkpt lat="46.65505" lon="5.77958">
        <ele>520</ele>
        <time>2017-09-07T07:10:18Z</time>
      </trkpt>
      <trkpt lat="46.65507" lon="5.77964">
        <ele>521</ele>
        <time>2017-09-07T07:10:23Z</time>
      </trkpt>
      <trkpt lat="46.65515" lon="5.7798">
        <ele>523</ele>
        <time>2017-09-07T07:10:43Z</time>
      </trkpt>
      <trkpt lat="46.65524" lon="5.77987">
        <ele>524</ele>
        <time>2017-09-07T07:10:52Z</time>
      </trkpt>
      <trkpt lat="46.65533" lon="5.7799">
        <ele>525</ele>
        <time>2017-09-07T07:11:00Z</time>
      </trkpt>
      <trkpt lat="46.65558" lon="5.78009">
        <ele>528</ele>
        <time>2017-09-07T07:11:27Z</time>
      </trkpt>
      <trkpt lat="46.65566" lon="5.78018">
        <ele>529</ele>
        <time>2017-09-07T07:11:34Z</time>
      </trkpt>
      <trkpt lat="46.65575" lon="5.78022">
        <ele>531</ele>
        <time>2017-09-07T07:11:44Z</time>
      </trkpt>
      <trkpt lat="46.65585" lon="5.78022">
        <ele>531</ele>
        <time>2017-09-07T07:11:48Z</time>
      </trkpt>
      <trkpt lat="46.65598" lon="5.78023">
        <ele>532</ele>
        <time>2017-09-07T07:12:02Z</time>
      </trkpt>
      <trkpt lat="46.65604" lon="5.78034">
        <ele>534</ele>
        <time>2017-09-07T07:12:11Z</time>
      </trkpt>
      <trkpt lat="46.65613" lon="5.78042">
        <ele>535</ele>
        <time>2017-09-07T07:12:19Z</time>
      </trkpt>
      <trkpt lat="46.65657" lon="5.78071">
        <ele>539</ele>
        <time>2017-09-07T07:12:57Z</time>
      </trkpt>
      <trkpt lat="46.65682" lon="5.78089">
        <ele>540</ele>
        <time>2017-09-07T07:13:23Z</time>
      </trkpt>
      <trkpt lat="46.65689" lon="5.78099">
        <ele>541</ele>
        <time>2017-09-07T07:13:30Z</time>
      </trkpt>
      <trkpt lat="46.65696" lon="5.78108">
        <ele>542</ele>
        <time>2017-09-07T07:13:38Z</time>
      </trkpt>
      <trkpt lat="46.65713" lon="5.78121">
        <ele>542</ele>
        <time>2017-09-07T07:13:53Z</time>
      </trkpt>
      <trkpt lat="46.65722" lon="5.78124">
        <ele>541</ele>
        <time>2017-09-07T07:14:01Z</time>
      </trkpt>
      <trkpt lat="46.65731" lon="5.7813">
        <ele>541</ele>
        <time>2017-09-07T07:14:09Z</time>
      </trkpt>
      <trkpt lat="46.6574" lon="5.78137">
        <ele>542</ele>
        <time>2017-09-07T07:14:18Z</time>
      </trkpt>
      <trkpt lat="46.65746" lon="5.78146">
        <ele>542</ele>
        <time>2017-09-07T07:14:24Z</time>
      </trkpt>
      <trkpt lat="46.6575" lon="5.78159">
        <ele>542</ele>
        <time>2017-09-07T07:14:31Z</time>
      </trkpt>
      <trkpt lat="46.65759" lon="5.78163">
        <ele>542</ele>
        <time>2017-09-07T07:14:39Z</time>
      </trkpt>
      <trkpt lat="46.65768" lon="5.78169">
        <ele>542</ele>
        <time>2017-09-07T07:14:47Z</time>
      </trkpt>
      <trkpt lat="46.65776" lon="5.78178">
        <ele>542</ele>
        <time>2017-09-07T07:14:55Z</time>
      </trkpt>
      <trkpt lat="46.65786" lon="5.78184">
        <ele>543</ele>
        <time>2017-09-07T07:15:03Z</time>
      </trkpt>
      <trkpt lat="46.65793" lon="5.78191">
        <ele>543</ele>
        <time>2017-09-07T07:15:11Z</time>
      </trkpt>
      <trkpt lat="46.658" lon="5.78201">
        <ele>542</ele>
        <time>2017-09-07T07:15:19Z</time>
      </trkpt>
      <trkpt lat="46.65805" lon="5.78212">
        <ele>541</ele>
        <time>2017-09-07T07:15:27Z</time>
      </trkpt>
      <trkpt lat="46.65813" lon="5.78221">
        <ele>539</ele>
        <time>2017-09-07T07:15:34Z</time>
      </trkpt>
      <trkpt lat="46.65821" lon="5.78227">
        <ele>539</ele>
        <time>2017-09-07T07:15:42Z</time>
      </trkpt>
      <trkpt lat="46.6583" lon="5.78231">
        <ele>538</ele>
        <time>2017-09-07T07:15:50Z</time>
      </trkpt>
      <trkpt lat="46.65838" lon="5.78238">
        <ele>539</ele>
        <time>2017-09-07T07:15:58Z</time>
      </trkpt>
      <trkpt lat="46.65845" lon="5.78248">
        <ele>540</ele>
        <time>2017-09-07T07:16:07Z</time>
      </trkpt>
      <trkpt lat="46.65853" lon="5.78257">
        <ele>541</ele>
        <time>2017-09-07T07:16:17Z</time>
      </trkpt>
      <trkpt lat="46.6586" lon="5.78266">
        <ele>542</ele>
        <time>2017-09-07T07:16:26Z</time>
      </trkpt>
      <trkpt lat="46.65869" lon="5.78271">
        <ele>544</ele>
        <time>2017-09-07T07:16:34Z</time>
      </trkpt>
      <trkpt lat="46.65876" lon="5.78279">
        <ele>545</ele>
        <time>2017-09-07T07:16:44Z</time>
      </trkpt>
      <trkpt lat="46.65878" lon="5.78292">
        <ele>545</ele>
        <time>2017-09-07T07:16:54Z</time>
      </trkpt>
      <trkpt lat="46.65876" lon="5.78309">
        <ele>545</ele>
        <time>2017-09-07T07:16:59Z</time>
      </trkpt>
      <trkpt lat="46.65879" lon="5.78332">
        <ele>547</ele>
        <time>2017-09-07T07:17:12Z</time>
      </trkpt>
      <trkpt lat="46.6588" lon="5.78345">
        <ele>547</ele>
        <time>2017-09-07T07:17:30Z</time>
      </trkpt>
      <trkpt lat="46.65878" lon="5.78358">
        <ele>549</ele>
        <time>2017-09-07T07:17:40Z</time>
      </trkpt>
      <trkpt lat="46.6588" lon="5.78371">
        <ele>549</ele>
        <time>2017-09-07T07:17:50Z</time>
      </trkpt>
      <trkpt lat="46.65875" lon="5.78398">
        <ele>551</ele>
        <time>2017-09-07T07:18:11Z</time>
      </trkpt>
      <trkpt lat="46.65876" lon="5.78413">
        <ele>552</ele>
        <time>2017-09-07T07:18:20Z</time>
      </trkpt>
      <trkpt lat="46.65876" lon="5.78426">
        <ele>552</ele>
        <time>2017-09-07T07:18:29Z</time>
      </trkpt>
      <trkpt lat="46.65874" lon="5.78452">
        <ele>554</ele>
        <time>2017-09-07T07:18:43Z</time>
      </trkpt>
      <trkpt lat="46.65876" lon="5.78466">
        <ele>556</ele>
        <time>2017-09-07T07:18:53Z</time>
      </trkpt>
      <trkpt lat="46.65878" lon="5.78478">
        <ele>557</ele>
        <time>2017-09-07T07:19:01Z</time>
      </trkpt>
      <trkpt lat="46.65881" lon="5.78505">
        <ele>558</ele>
        <time>2017-09-07T07:19:19Z</time>
      </trkpt>
      <trkpt lat="46.65885" lon="5.78519">
        <ele>560</ele>
        <time>2017-09-07T07:19:28Z</time>
      </trkpt>
      <trkpt lat="46.65892" lon="5.78539">
        <ele>561</ele>
        <time>2017-09-07T07:19:41Z</time>
      </trkpt>
      <trkpt lat="46.65892" lon="5.78567">
        <ele>561</ele>
        <time>2017-09-07T07:19:58Z</time>
      </trkpt>
      <trkpt lat="46.65889" lon="5.78582">
        <ele>560</ele>
        <time>2017-09-07T07:20:09Z</time>
      </trkpt>
      <trkpt lat="46.65888" lon="5.78589">
        <ele>560</ele>
        <time>2017-09-07T07:20:13Z</time>
      </trkpt>
      <trkpt lat="46.65887" lon="5.78597">
        <ele>560</ele>
        <time>2017-09-07T07:20:18Z</time>
      </trkpt>
      <trkpt lat="46.65889" lon="5.78604">
        <ele>561</ele>
        <time>2017-09-07T07:20:23Z</time>
      </trkpt>
      <trkpt lat="46.65894" lon="5.78588">
        <ele>568</ele>
        <time>2017-09-07T07:24:40Z</time>
      </trkpt>
      <trkpt lat="46.6589" lon="5.78561">
        <ele>576</ele>
        <time>2017-09-07T07:25:00Z</time>
      </trkpt>
      <trkpt lat="46.65898" lon="5.78553">
        <ele>577</ele>
        <time>2017-09-07T07:25:06Z</time>
      </trkpt>
      <trkpt lat="46.65888" lon="5.7853">
        <ele>578</ele>
        <time>2017-09-07T07:25:24Z</time>
      </trkpt>
      <trkpt lat="46.6588" lon="5.78523">
        <ele>578</ele>
        <time>2017-09-07T07:25:30Z</time>
      </trkpt>
      <trkpt lat="46.65873" lon="5.78514">
        <ele>579</ele>
        <time>2017-09-07T07:25:42Z</time>
      </trkpt>
      <trkpt lat="46.65871" lon="5.78501">
        <ele>579</ele>
        <time>2017-09-07T07:25:54Z</time>
      </trkpt>
      <trkpt lat="46.65863" lon="5.78494">
        <ele>580</ele>
        <time>2017-09-07T07:26:04Z</time>
      </trkpt>
      <trkpt lat="46.65856" lon="5.78484">
        <ele>580</ele>
        <time>2017-09-07T07:26:16Z</time>
      </trkpt>
      <trkpt lat="46.65855" lon="5.78462">
        <ele>584</ele>
        <time>2017-09-07T07:26:42Z</time>
      </trkpt>
      <trkpt lat="46.65852" lon="5.78449">
        <ele>586</ele>
        <time>2017-09-07T07:26:57Z</time>
      </trkpt>
      <trkpt lat="46.65839" lon="5.78428">
        <ele>591</ele>
        <time>2017-09-07T07:27:25Z</time>
      </trkpt>
      <trkpt lat="46.65838" lon="5.78415">
        <ele>594</ele>
        <time>2017-09-07T07:27:43Z</time>
      </trkpt>
      <trkpt lat="46.65838" lon="5.78401">
        <ele>596</ele>
        <time>2017-09-07T07:27:56Z</time>
      </trkpt>
      <trkpt lat="46.65837" lon="5.78393">
        <ele>596</ele>
        <time>2017-09-07T07:28:01Z</time>
      </trkpt>
      <trkpt lat="46.65835" lon="5.7838">
        <ele>596</ele>
        <time>2017-09-07T07:28:08Z</time>
      </trkpt>
      <trkpt lat="46.65832" lon="5.78373">
        <ele>596</ele>
        <time>2017-09-07T07:28:13Z</time>
      </trkpt>
      <trkpt lat="46.65829" lon="5.78359">
        <ele>595</ele>
        <time>2017-09-07T07:28:24Z</time>
      </trkpt>
      <trkpt lat="46.65826" lon="5.78354">
        <ele>595</ele>
        <time>2017-09-07T07:28:30Z</time>
      </trkpt>
      <trkpt lat="46.65823" lon="5.78347">
        <ele>595</ele>
        <time>2017-09-07T07:28:37Z</time>
      </trkpt>
      <trkpt lat="46.65823" lon="5.78339">
        <ele>594</ele>
        <time>2017-09-07T07:28:43Z</time>
      </trkpt>
      <trkpt lat="46.65809" lon="5.78311">
        <ele>591</ele>
        <time>2017-09-07T07:29:12Z</time>
      </trkpt>
      <trkpt lat="46.65811" lon="5.78304">
        <ele>590</ele>
        <time>2017-09-07T07:30:13Z</time>
      </trkpt>
      <trkpt lat="46.65806" lon="5.78305">
        <ele>593</ele>
        <time>2017-09-07T07:31:27Z</time>
      </trkpt>
      <trkpt lat="46.65804" lon="5.78311">
        <ele>593</ele>
        <time>2017-09-07T07:31:35Z</time>
      </trkpt>
      <trkpt lat="46.65797" lon="5.78309">
        <ele>592</ele>
        <time>2017-09-07T07:32:52Z</time>
      </trkpt>
      <trkpt lat="46.65792" lon="5.78305">
        <ele>592</ele>
        <time>2017-09-07T07:32:58Z</time>
      </trkpt>
      <trkpt lat="46.65789" lon="5.78299">
        <ele>592</ele>
        <time>2017-09-07T07:33:03Z</time>
      </trkpt>
      <trkpt lat="46.65786" lon="5.78294">
        <ele>593</ele>
        <time>2017-09-07T07:33:08Z</time>
      </trkpt>
      <trkpt lat="46.65778" lon="5.78286">
        <ele>595</ele>
        <time>2017-09-07T07:33:19Z</time>
      </trkpt>
      <trkpt lat="46.65775" lon="5.7828">
        <ele>595</ele>
        <time>2017-09-07T07:33:26Z</time>
      </trkpt>
      <trkpt lat="46.6577" lon="5.78279">
        <ele>595</ele>
        <time>2017-09-07T07:33:33Z</time>
      </trkpt>
      <trkpt lat="46.65763" lon="5.78277">
        <ele>596</ele>
        <time>2017-09-07T07:33:44Z</time>
      </trkpt>
      <trkpt lat="46.65757" lon="5.78277">
        <ele>596</ele>
        <time>2017-09-07T07:33:49Z</time>
      </trkpt>
      <trkpt lat="46.65753" lon="5.78274">
        <ele>596</ele>
        <time>2017-09-07T07:33:55Z</time>
      </trkpt>
      <trkpt lat="46.65751" lon="5.78268">
        <ele>596</ele>
        <time>2017-09-07T07:34:07Z</time>
      </trkpt>
      <trkpt lat="46.65745" lon="5.78264">
        <ele>597</ele>
        <time>2017-09-07T07:34:25Z</time>
      </trkpt>
      <trkpt lat="46.6574" lon="5.78257">
        <ele>597</ele>
        <time>2017-09-07T07:34:46Z</time>
      </trkpt>
      <trkpt lat="46.65735" lon="5.78254">
        <ele>597</ele>
        <time>2017-09-07T07:34:55Z</time>
      </trkpt>
      <trkpt lat="46.65731" lon="5.78251">
        <ele>596</ele>
        <time>2017-09-07T07:35:01Z</time>
      </trkpt>
      <trkpt lat="46.65727" lon="5.78245">
        <ele>595</ele>
        <time>2017-09-07T07:35:07Z</time>
      </trkpt>
      <trkpt lat="46.65727" lon="5.78223">
        <ele>594</ele>
        <time>2017-09-07T07:35:27Z</time>
      </trkpt>
      <trkpt lat="46.65724" lon="5.78218">
        <ele>594</ele>
        <time>2017-09-07T07:35:33Z</time>
      </trkpt>
      <trkpt lat="46.6572" lon="5.78214">
        <ele>594</ele>
        <time>2017-09-07T07:35:38Z</time>
      </trkpt>
      <trkpt lat="46.65716" lon="5.7821">
        <ele>594</ele>
        <time>2017-09-07T07:35:43Z</time>
      </trkpt>
      <trkpt lat="46.65712" lon="5.78207">
        <ele>594</ele>
        <time>2017-09-07T07:35:48Z</time>
      </trkpt>
      <trkpt lat="46.65707" lon="5.78204">
        <ele>593</ele>
        <time>2017-09-07T07:36:00Z</time>
      </trkpt>
      <trkpt lat="46.65704" lon="5.78199">
        <ele>593</ele>
        <time>2017-09-07T07:36:06Z</time>
      </trkpt>
      <trkpt lat="46.65699" lon="5.78197">
        <ele>593</ele>
        <time>2017-09-07T07:36:13Z</time>
      </trkpt>
      <trkpt lat="46.65695" lon="5.78199">
        <ele>593</ele>
        <time>2017-09-07T07:36:18Z</time>
      </trkpt>
      <trkpt lat="46.6569" lon="5.78198">
        <ele>593</ele>
        <time>2017-09-07T07:36:24Z</time>
      </trkpt>
      <trkpt lat="46.65683" lon="5.78188">
        <ele>591</ele>
        <time>2017-09-07T07:36:34Z</time>
      </trkpt>
      <trkpt lat="46.65679" lon="5.78184">
        <ele>591</ele>
        <time>2017-09-07T07:36:38Z</time>
      </trkpt>
      <trkpt lat="46.65675" lon="5.7818">
        <ele>592</ele>
        <time>2017-09-07T07:36:42Z</time>
      </trkpt>
      <trkpt lat="46.6567" lon="5.78177">
        <ele>592</ele>
        <time>2017-09-07T07:36:47Z</time>
      </trkpt>
      <trkpt lat="46.65666" lon="5.78174">
        <ele>592</ele>
        <time>2017-09-07T07:36:52Z</time>
      </trkpt>
      <trkpt lat="46.65662" lon="5.78169">
        <ele>592</ele>
        <time>2017-09-07T07:36:57Z</time>
      </trkpt>
      <trkpt lat="46.65659" lon="5.78164">
        <ele>592</ele>
        <time>2017-09-07T07:37:03Z</time>
      </trkpt>
      <trkpt lat="46.65641" lon="5.78151">
        <ele>591</ele>
        <time>2017-09-07T07:37:24Z</time>
      </trkpt>
      <trkpt lat="46.65638" lon="5.78146">
        <ele>590</ele>
        <time>2017-09-07T07:37:29Z</time>
      </trkpt>
      <trkpt lat="46.65631" lon="5.78139">
        <ele>590</ele>
        <time>2017-09-07T07:38:26Z</time>
      </trkpt>
      <trkpt lat="46.65622" lon="5.78135">
        <ele>589</ele>
        <time>2017-09-07T07:38:34Z</time>
      </trkpt>
      <trkpt lat="46.65613" lon="5.7813">
        <ele>588</ele>
        <time>2017-09-07T07:38:44Z</time>
      </trkpt>
      <trkpt lat="46.65608" lon="5.78127">
        <ele>588</ele>
        <time>2017-09-07T07:38:50Z</time>
      </trkpt>
      <trkpt lat="46.65605" lon="5.78123">
        <ele>588</ele>
        <time>2017-09-07T07:38:57Z</time>
      </trkpt>
      <trkpt lat="46.65599" lon="5.7812">
        <ele>588</ele>
        <time>2017-09-07T07:39:06Z</time>
      </trkpt>
      <trkpt lat="46.65598" lon="5.78127">
        <ele>589</ele>
        <time>2017-09-07T07:39:12Z</time>
      </trkpt>
      <trkpt lat="46.65598" lon="5.78134">
        <ele>588</ele>
        <time>2017-09-07T07:39:18Z</time>
      </trkpt>
      <trkpt lat="46.65597" lon="5.78141">
        <ele>589</ele>
        <time>2017-09-07T07:39:24Z</time>
      </trkpt>
      <trkpt lat="46.65594" lon="5.78146">
        <ele>589</ele>
        <time>2017-09-07T07:39:30Z</time>
      </trkpt>
      <trkpt lat="46.65589" lon="5.78149">
        <ele>589</ele>
        <time>2017-09-07T07:39:36Z</time>
      </trkpt>
      <trkpt lat="46.65598" lon="5.78151">
        <ele>588</ele>
        <time>2017-09-07T07:39:56Z</time>
      </trkpt>
      <trkpt lat="46.65597" lon="5.78144">
        <ele>589</ele>
        <time>2017-09-07T07:40:13Z</time>
      </trkpt>
      <trkpt lat="46.65603" lon="5.78141">
        <ele>589</ele>
        <time>2017-09-07T07:40:27Z</time>
      </trkpt>
      <trkpt lat="46.65604" lon="5.78135">
        <ele>590</ele>
        <time>2017-09-07T07:40:39Z</time>
      </trkpt>
      <trkpt lat="46.65603" lon="5.78128">
        <ele>590</ele>
        <time>2017-09-07T07:40:47Z</time>
      </trkpt>
      <trkpt lat="46.65599" lon="5.78124">
        <ele>590</ele>
        <time>2017-09-07T07:40:52Z</time>
      </trkpt>
      <trkpt lat="46.65585" lon="5.78118">
        <ele>591</ele>
        <time>2017-09-07T07:41:26Z</time>
      </trkpt>
      <trkpt lat="46.65581" lon="5.78114">
        <ele>591</ele>
        <time>2017-09-07T07:41:37Z</time>
      </trkpt>
      <trkpt lat="46.65577" lon="5.78117">
        <ele>591</ele>
        <time>2017-09-07T07:41:42Z</time>
      </trkpt>
      <trkpt lat="46.65572" lon="5.78116">
        <ele>591</ele>
        <time>2017-09-07T07:41:47Z</time>
      </trkpt>
      <trkpt lat="46.65568" lon="5.78116">
        <ele>590</ele>
        <time>2017-09-07T07:41:54Z</time>
      </trkpt>
      <trkpt lat="46.65565" lon="5.7811">
        <ele>590</ele>
        <time>2017-09-07T07:42:01Z</time>
      </trkpt>
      <trkpt lat="46.65559" lon="5.78106">
        <ele>588</ele>
        <time>2017-09-07T07:42:15Z</time>
      </trkpt>
      <trkpt lat="46.65551" lon="5.78098">
        <ele>588</ele>
        <time>2017-09-07T07:42:25Z</time>
      </trkpt>
      <trkpt lat="46.65546" lon="5.78096">
        <ele>587</ele>
        <time>2017-09-07T07:42:34Z</time>
      </trkpt>
      <trkpt lat="46.65541" lon="5.78092">
        <ele>586</ele>
        <time>2017-09-07T07:42:39Z</time>
      </trkpt>
      <trkpt lat="46.65538" lon="5.78087">
        <ele>586</ele>
        <time>2017-09-07T07:42:44Z</time>
      </trkpt>
      <trkpt lat="46.65529" lon="5.7808">
        <ele>586</ele>
        <time>2017-09-07T07:42:55Z</time>
      </trkpt>
      <trkpt lat="46.6552" lon="5.78075">
        <ele>586</ele>
        <time>2017-09-07T07:43:07Z</time>
      </trkpt>
      <trkpt lat="46.65511" lon="5.78068">
        <ele>587</ele>
        <time>2017-09-07T07:43:24Z</time>
      </trkpt>
      <trkpt lat="46.65507" lon="5.78062">
        <ele>587</ele>
        <time>2017-09-07T07:43:38Z</time>
      </trkpt>
      <trkpt lat="46.65505" lon="5.78048">
        <ele>585</ele>
        <time>2017-09-07T07:43:55Z</time>
      </trkpt>
      <trkpt lat="46.65503" lon="5.78042">
        <ele>583</ele>
        <time>2017-09-07T07:44:01Z</time>
      </trkpt>
      <trkpt lat="46.65499" lon="5.78038">
        <ele>582</ele>
        <time>2017-09-07T07:44:06Z</time>
      </trkpt>
      <trkpt lat="46.65495" lon="5.78037">
        <ele>581</ele>
        <time>2017-09-07T07:44:10Z</time>
      </trkpt>
      <trkpt lat="46.65488" lon="5.78035">
        <ele>580</ele>
        <time>2017-09-07T07:44:42Z</time>
      </trkpt>
      <trkpt lat="46.65483" lon="5.78035">
        <ele>580</ele>
        <time>2017-09-07T07:44:49Z</time>
      </trkpt>
      <trkpt lat="46.65473" lon="5.78032">
        <ele>579</ele>
        <time>2017-09-07T07:45:00Z</time>
      </trkpt>
      <trkpt lat="46.65468" lon="5.78031">
        <ele>580</ele>
        <time>2017-09-07T07:45:07Z</time>
      </trkpt>
      <trkpt lat="46.6546" lon="5.78025">
        <ele>581</ele>
        <time>2017-09-07T07:45:24Z</time>
      </trkpt>
      <trkpt lat="46.65455" lon="5.78024">
        <ele>581</ele>
        <time>2017-09-07T07:45:31Z</time>
      </trkpt>
      <trkpt lat="46.65451" lon="5.78021">
        <ele>582</ele>
        <time>2017-09-07T07:45:38Z</time>
      </trkpt>
      <trkpt lat="46.65446" lon="5.7802">
        <ele>582</ele>
        <time>2017-09-07T07:45:45Z</time>
      </trkpt>
      <trkpt lat="46.65438" lon="5.78023">
        <ele>580</ele>
        <time>2017-09-07T07:48:31Z</time>
      </trkpt>
      <trkpt lat="46.65427" lon="5.78027">
        <ele>579</ele>
        <time>2017-09-07T07:49:03Z</time>
      </trkpt>
      <trkpt lat="46.65418" lon="5.7802">
        <ele>578</ele>
        <time>2017-09-07T07:49:44Z</time>
      </trkpt>
      <trkpt lat="46.65419" lon="5.78021">
        <ele>577</ele>
        <time>2017-09-07T07:52:30Z</time>
      </trkpt>
      <trkpt lat="46.65423" lon="5.7803">
        <ele>577</ele>
        <time>2017-09-07T07:53:16Z</time>
      </trkpt>
      <trkpt lat="46.65424" lon="5.78041">
        <ele>576</ele>
        <time>2017-09-07T07:53:34Z</time>
      </trkpt>
      <trkpt lat="46.65428" lon="5.78046">
        <ele>575</ele>
        <time>2017-09-07T07:53:41Z</time>
      </trkpt>
      <trkpt lat="46.65436" lon="5.7805">
        <ele>576</ele>
        <time>2017-09-07T07:53:55Z</time>
      </trkpt>
      <trkpt lat="46.65454" lon="5.78046">
        <ele>577</ele>
        <time>2017-09-07T07:54:15Z</time>
      </trkpt>
      <trkpt lat="46.65457" lon="5.78037">
        <ele>578</ele>
        <time>2017-09-07T07:54:38Z</time>
      </trkpt>
      <trkpt lat="46.65461" lon="5.78031">
        <ele>578</ele>
        <time>2017-09-07T07:55:01Z</time>
      </trkpt>
      <trkpt lat="46.65468" lon="5.78037">
        <ele>580</ele>
        <time>2017-09-07T07:55:25Z</time>
      </trkpt>
      <trkpt lat="46.65469" lon="5.78035">
        <ele>581</ele>
        <time>2017-09-07T07:57:03Z</time>
      </trkpt>
      <trkpt lat="46.65487" lon="5.78043">
        <ele>582</ele>
        <time>2017-09-07T07:57:33Z</time>
      </trkpt>
      <trkpt lat="46.65492" lon="5.78044">
        <ele>582</ele>
        <time>2017-09-07T07:57:39Z</time>
      </trkpt>
      <trkpt lat="46.65496" lon="5.78048">
        <ele>581</ele>
        <time>2017-09-07T07:57:45Z</time>
      </trkpt>
      <trkpt lat="46.65501" lon="5.78059">
        <ele>581</ele>
        <time>2017-09-07T07:57:55Z</time>
      </trkpt>
      <trkpt lat="46.65504" lon="5.78065">
        <ele>581</ele>
        <time>2017-09-07T07:58:01Z</time>
      </trkpt>
      <trkpt lat="46.65505" lon="5.78072">
        <ele>581</ele>
        <time>2017-09-07T07:58:06Z</time>
      </trkpt>
      <trkpt lat="46.65509" lon="5.78075">
        <ele>581</ele>
        <time>2017-09-07T07:58:11Z</time>
      </trkpt>
      <trkpt lat="46.65515" lon="5.78077">
        <ele>581</ele>
        <time>2017-09-07T07:58:15Z</time>
      </trkpt>
      <trkpt lat="46.65519" lon="5.78078">
        <ele>581</ele>
        <time>2017-09-07T07:58:19Z</time>
      </trkpt>
      <trkpt lat="46.65532" lon="5.78088">
        <ele>583</ele>
        <time>2017-09-07T07:58:32Z</time>
      </trkpt>
      <trkpt lat="46.65536" lon="5.78093">
        <ele>584</ele>
        <time>2017-09-07T07:58:37Z</time>
      </trkpt>
      <trkpt lat="46.6554" lon="5.78099">
        <ele>584</ele>
        <time>2017-09-07T07:58:42Z</time>
      </trkpt>
      <trkpt lat="46.65544" lon="5.78103">
        <ele>585</ele>
        <time>2017-09-07T07:58:47Z</time>
      </trkpt>
      <trkpt lat="46.65548" lon="5.78106">
        <ele>585</ele>
        <time>2017-09-07T07:58:52Z</time>
      </trkpt>
      <trkpt lat="46.65552" lon="5.78111">
        <ele>585</ele>
        <time>2017-09-07T07:58:57Z</time>
      </trkpt>
      <trkpt lat="46.65559" lon="5.78115">
        <ele>585</ele>
        <time>2017-09-07T07:59:15Z</time>
      </trkpt>
      <trkpt lat="46.65563" lon="5.78114">
        <ele>585</ele>
        <time>2017-09-07T07:59:19Z</time>
      </trkpt>
      <trkpt lat="46.65568" lon="5.78116">
        <ele>585</ele>
        <time>2017-09-07T07:59:24Z</time>
      </trkpt>
      <trkpt lat="46.65572" lon="5.78119">
        <ele>586</ele>
        <time>2017-09-07T07:59:29Z</time>
      </trkpt>
      <trkpt lat="46.65575" lon="5.78126">
        <ele>586</ele>
        <time>2017-09-07T07:59:36Z</time>
      </trkpt>
      <trkpt lat="46.65579" lon="5.78129">
        <ele>587</ele>
        <time>2017-09-07T07:59:44Z</time>
      </trkpt>
      <trkpt lat="46.65584" lon="5.78132">
        <ele>587</ele>
        <time>2017-09-07T07:59:49Z</time>
      </trkpt>
      <trkpt lat="46.65588" lon="5.7813">
        <ele>588</ele>
        <time>2017-09-07T07:59:54Z</time>
      </trkpt>
      <trkpt lat="46.65594" lon="5.7813">
        <ele>588</ele>
        <time>2017-09-07T07:59:59Z</time>
      </trkpt>
      <trkpt lat="46.65609" lon="5.78132">
        <ele>588</ele>
        <time>2017-09-07T08:00:11Z</time>
      </trkpt>
      <trkpt lat="46.65613" lon="5.78133">
        <ele>588</ele>
        <time>2017-09-07T08:00:15Z</time>
      </trkpt>
      <trkpt lat="46.65618" lon="5.78135">
        <ele>589</ele>
        <time>2017-09-07T08:00:20Z</time>
      </trkpt>
      <trkpt lat="46.65627" lon="5.78143">
        <ele>589</ele>
        <time>2017-09-07T08:00:30Z</time>
      </trkpt>
      <trkpt lat="46.65635" lon="5.78153">
        <ele>588</ele>
        <time>2017-09-07T08:00:39Z</time>
      </trkpt>
      <trkpt lat="46.65639" lon="5.78157">
        <ele>589</ele>
        <time>2017-09-07T08:00:44Z</time>
      </trkpt>
      <trkpt lat="46.65644" lon="5.78159">
        <ele>589</ele>
        <time>2017-09-07T08:00:48Z</time>
      </trkpt>
      <trkpt lat="46.65657" lon="5.78171">
        <ele>589</ele>
        <time>2017-09-07T08:01:02Z</time>
      </trkpt>
      <trkpt lat="46.6566" lon="5.78177">
        <ele>589</ele>
        <time>2017-09-07T08:01:06Z</time>
      </trkpt>
      <trkpt lat="46.65664" lon="5.7818">
        <ele>589</ele>
        <time>2017-09-07T08:01:11Z</time>
      </trkpt>
      <trkpt lat="46.65668" lon="5.78185">
        <ele>589</ele>
        <time>2017-09-07T08:01:16Z</time>
      </trkpt>
      <trkpt lat="46.6568" lon="5.78195">
        <ele>589</ele>
        <time>2017-09-07T08:01:36Z</time>
      </trkpt>
      <trkpt lat="46.65684" lon="5.782">
        <ele>589</ele>
        <time>2017-09-07T08:01:44Z</time>
      </trkpt>
      <trkpt lat="46.657" lon="5.78205">
        <ele>588</ele>
        <time>2017-09-07T08:02:20Z</time>
      </trkpt>
      <trkpt lat="46.6571" lon="5.78215">
        <ele>586</ele>
        <time>2017-09-07T08:02:51Z</time>
      </trkpt>
      <trkpt lat="46.65716" lon="5.78226">
        <ele>589</ele>
        <time>2017-09-07T08:03:05Z</time>
      </trkpt>
      <trkpt lat="46.65723" lon="5.78236">
        <ele>589</ele>
        <time>2017-09-07T08:03:17Z</time>
      </trkpt>
      <trkpt lat="46.65732" lon="5.78239">
        <ele>588</ele>
        <time>2017-09-07T08:03:30Z</time>
      </trkpt>
      <trkpt lat="46.6576" lon="5.78257">
        <ele>591</ele>
        <time>2017-09-07T08:04:25Z</time>
      </trkpt>
      <trkpt lat="46.65761" lon="5.78268">
        <ele>592</ele>
        <time>2017-09-07T08:04:58Z</time>
      </trkpt>
      <trkpt lat="46.65765" lon="5.78276">
        <ele>592</ele>
        <time>2017-09-07T08:05:15Z</time>
      </trkpt>
      <trkpt lat="46.65765" lon="5.78284">
        <ele>592</ele>
        <time>2017-09-07T08:05:22Z</time>
      </trkpt>
      <trkpt lat="46.65772" lon="5.78293">
        <ele>591</ele>
        <time>2017-09-07T08:05:31Z</time>
      </trkpt>
      <trkpt lat="46.65776" lon="5.78297">
        <ele>591</ele>
        <time>2017-09-07T08:05:35Z</time>
      </trkpt>
      <trkpt lat="46.65779" lon="5.78302">
        <ele>591</ele>
        <time>2017-09-07T08:05:39Z</time>
      </trkpt>
      <trkpt lat="46.65783" lon="5.78307">
        <ele>590</ele>
        <time>2017-09-07T08:05:43Z</time>
      </trkpt>
      <trkpt lat="46.65786" lon="5.78311">
        <ele>590</ele>
        <time>2017-09-07T08:05:47Z</time>
      </trkpt>
      <trkpt lat="46.65791" lon="5.78315">
        <ele>591</ele>
        <time>2017-09-07T08:05:52Z</time>
      </trkpt>
      <trkpt lat="46.65796" lon="5.78317">
        <ele>592</ele>
        <time>2017-09-07T08:05:56Z</time>
      </trkpt>
      <trkpt lat="46.65802" lon="5.78317">
        <ele>593</ele>
        <time>2017-09-07T08:06:56Z</time>
      </trkpt>
      <trkpt lat="46.6581" lon="5.78327">
        <ele>592</ele>
        <time>2017-09-07T08:07:29Z</time>
      </trkpt>
      <trkpt lat="46.65814" lon="5.78332">
        <ele>591</ele>
        <time>2017-09-07T08:07:33Z</time>
      </trkpt>
      <trkpt lat="46.65822" lon="5.78343">
        <ele>592</ele>
        <time>2017-09-07T08:07:43Z</time>
      </trkpt>
      <trkpt lat="46.65825" lon="5.78357">
        <ele>592</ele>
        <time>2017-09-07T08:07:53Z</time>
      </trkpt>
      <trkpt lat="46.6583" lon="5.7837">
        <ele>592</ele>
        <time>2017-09-07T08:08:03Z</time>
      </trkpt>
      <trkpt lat="46.65833" lon="5.78393">
        <ele>593</ele>
        <time>2017-09-07T08:08:18Z</time>
      </trkpt>
      <trkpt lat="46.65832" lon="5.78407">
        <ele>593</ele>
        <time>2017-09-07T08:08:29Z</time>
      </trkpt>
      <trkpt lat="46.6583" lon="5.78417">
        <ele>595</ele>
        <time>2017-09-07T08:08:44Z</time>
      </trkpt>
      <trkpt lat="46.65831" lon="5.78423">
        <ele>596</ele>
        <time>2017-09-07T08:08:51Z</time>
      </trkpt>
      <trkpt lat="46.65835" lon="5.78444">
        <ele>594</ele>
        <time>2017-09-07T08:09:11Z</time>
      </trkpt>
      <trkpt lat="46.65839" lon="5.78446">
        <ele>594</ele>
        <time>2017-09-07T08:09:23Z</time>
      </trkpt>
      <trkpt lat="46.65842" lon="5.7846">
        <ele>594</ele>
        <time>2017-09-07T08:09:42Z</time>
      </trkpt>
      <trkpt lat="46.65858" lon="5.78495">
        <ele>591</ele>
        <time>2017-09-07T08:10:17Z</time>
      </trkpt>
      <trkpt lat="46.6586" lon="5.78509">
        <ele>589</ele>
        <time>2017-09-07T08:10:26Z</time>
      </trkpt>
      <trkpt lat="46.65868" lon="5.78534">
        <ele>586</ele>
        <time>2017-09-07T08:10:46Z</time>
      </trkpt>
      <trkpt lat="46.65874" lon="5.78545">
        <ele>584</ele>
        <time>2017-09-07T08:10:56Z</time>
      </trkpt>
      <trkpt lat="46.65873" lon="5.78559">
        <ele>583</ele>
        <time>2017-09-07T08:11:06Z</time>
      </trkpt>
      <trkpt lat="46.65876" lon="5.78572">
        <ele>583</ele>
        <time>2017-09-07T08:11:19Z</time>
      </trkpt>
      <trkpt lat="46.65878" lon="5.78599">
        <ele>583</ele>
        <time>2017-09-07T08:11:42Z</time>
      </trkpt>
      <trkpt lat="46.65877" lon="5.78626">
        <ele>583</ele>
        <time>2017-09-07T08:12:01Z</time>
      </trkpt>
      <trkpt lat="46.65874" lon="5.78639">
        <ele>583</ele>
        <time>2017-09-07T08:12:09Z</time>
      </trkpt>
      <trkpt lat="46.65869" lon="5.78681">
        <ele>584</ele>
        <time>2017-09-07T08:12:34Z</time>
      </trkpt>
      <trkpt lat="46.65873" lon="5.78698">
        <ele>583</ele>
        <time>2017-09-07T08:12:45Z</time>
      </trkpt>
      <trkpt lat="46.65877" lon="5.78712">
        <ele>581</ele>
        <time>2017-09-07T08:12:54Z</time>
      </trkpt>
      <trkpt lat="46.65875" lon="5.78721">
        <ele>579</ele>
        <time>2017-09-07T08:13:22Z</time>
      </trkpt>
      <trkpt lat="46.65874" lon="5.78729">
        <ele>581</ele>
        <time>2017-09-07T08:13:26Z</time>
      </trkpt>
      <trkpt lat="46.65874" lon="5.78739">
        <ele>584</ele>
        <time>2017-09-07T08:13:38Z</time>
      </trkpt>
      <trkpt lat="46.65874" lon="5.78746">
        <ele>584</ele>
        <time>2017-09-07T08:13:45Z</time>
      </trkpt>
      <trkpt lat="46.65871" lon="5.78761">
        <ele>585</ele>
        <time>2017-09-07T08:13:53Z</time>
      </trkpt>
      <trkpt lat="46.65871" lon="5.78768">
        <ele>585</ele>
        <time>2017-09-07T08:13:58Z</time>
      </trkpt>
      <trkpt lat="46.65871" lon="5.78803">
        <ele>588</ele>
        <time>2017-09-07T08:14:26Z</time>
      </trkpt>
      <trkpt lat="46.65871" lon="5.78817">
        <ele>588</ele>
        <time>2017-09-07T08:14:34Z</time>
      </trkpt>
      <trkpt lat="46.65869" lon="5.7883">
        <ele>589</ele>
        <time>2017-09-07T08:14:41Z</time>
      </trkpt>
      <trkpt lat="46.65873" lon="5.78843">
        <ele>590</ele>
        <time>2017-09-07T08:14:51Z</time>
      </trkpt>
      <trkpt lat="46.65874" lon="5.78856">
        <ele>594</ele>
        <time>2017-09-07T08:15:00Z</time>
      </trkpt>
      <trkpt lat="46.65874" lon="5.7891">
        <ele>597</ele>
        <time>2017-09-07T08:15:33Z</time>
      </trkpt>
      <trkpt lat="46.65875" lon="5.78924">
        <ele>598</ele>
        <time>2017-09-07T08:15:42Z</time>
      </trkpt>
      <trkpt lat="46.65878" lon="5.78939">
        <ele>596</ele>
        <time>2017-09-07T08:15:49Z</time>
      </trkpt>
      <trkpt lat="46.65882" lon="5.78952">
        <ele>596</ele>
        <time>2017-09-07T08:15:55Z</time>
      </trkpt>
      <trkpt lat="46.65887" lon="5.78967">
        <ele>593</ele>
        <time>2017-09-07T08:16:03Z</time>
      </trkpt>
      <trkpt lat="46.65888" lon="5.79006">
        <ele>592</ele>
        <time>2017-09-07T08:16:23Z</time>
      </trkpt>
      <trkpt lat="46.6589" lon="5.79019">
        <ele>592</ele>
        <time>2017-09-07T08:16:31Z</time>
      </trkpt>
      <trkpt lat="46.65888" lon="5.79033">
        <ele>593</ele>
        <time>2017-09-07T08:16:42Z</time>
      </trkpt>
      <trkpt lat="46.6588" lon="5.79051">
        <ele>594</ele>
        <time>2017-09-07T08:16:59Z</time>
      </trkpt>
      <trkpt lat="46.65878" lon="5.79057">
        <ele>594</ele>
        <time>2017-09-07T08:17:04Z</time>
      </trkpt>
      <trkpt lat="46.65856" lon="5.79087">
        <ele>594</ele>
        <time>2017-09-07T08:17:35Z</time>
      </trkpt>
      <trkpt lat="46.65847" lon="5.79093">
        <ele>594</ele>
        <time>2017-09-07T08:17:42Z</time>
      </trkpt>
      <trkpt lat="46.65823" lon="5.79119">
        <ele>598</ele>
        <time>2017-09-07T08:18:06Z</time>
      </trkpt>
      <trkpt lat="46.65818" lon="5.7913">
        <ele>599</ele>
        <time>2017-09-07T08:18:14Z</time>
      </trkpt>
      <trkpt lat="46.65811" lon="5.79142">
        <ele>599</ele>
        <time>2017-09-07T08:18:22Z</time>
      </trkpt>
      <trkpt lat="46.65801" lon="5.79165">
        <ele>596</ele>
        <time>2017-09-07T08:18:39Z</time>
      </trkpt>
      <trkpt lat="46.65795" lon="5.79176">
        <ele>596</ele>
        <time>2017-09-07T08:18:48Z</time>
      </trkpt>
      <trkpt lat="46.65789" lon="5.7919">
        <ele>595</ele>
        <time>2017-09-07T08:18:57Z</time>
      </trkpt>
      <trkpt lat="46.65785" lon="5.79194">
        <ele>595</ele>
        <time>2017-09-07T08:19:01Z</time>
      </trkpt>
      <trkpt lat="46.65779" lon="5.79205">
        <ele>594</ele>
        <time>2017-09-07T08:19:09Z</time>
      </trkpt>
      <trkpt lat="46.65775" lon="5.7921">
        <ele>592</ele>
        <time>2017-09-07T08:19:14Z</time>
      </trkpt>
      <trkpt lat="46.65751" lon="5.7924">
        <ele>591</ele>
        <time>2017-09-07T08:19:41Z</time>
      </trkpt>
      <trkpt lat="46.65749" lon="5.79247">
        <ele>591</ele>
        <time>2017-09-07T08:19:45Z</time>
      </trkpt>
      <trkpt lat="46.65738" lon="5.79261">
        <ele>590</ele>
        <time>2017-09-07T08:19:58Z</time>
      </trkpt>
      <trkpt lat="46.6573" lon="5.79272">
        <ele>588</ele>
        <time>2017-09-07T08:20:07Z</time>
      </trkpt>
      <trkpt lat="46.65722" lon="5.79282">
        <ele>587</ele>
        <time>2017-09-07T08:20:16Z</time>
      </trkpt>
      <trkpt lat="46.65719" lon="5.79289">
        <ele>586</ele>
        <time>2017-09-07T08:20:21Z</time>
      </trkpt>
      <trkpt lat="46.65717" lon="5.79303">
        <ele>584</ele>
        <time>2017-09-07T08:20:29Z</time>
      </trkpt>
      <trkpt lat="46.65711" lon="5.79314">
        <ele>583</ele>
        <time>2017-09-07T08:20:38Z</time>
      </trkpt>
      <trkpt lat="46.6571" lon="5.79321">
        <ele>583</ele>
        <time>2017-09-07T08:20:43Z</time>
      </trkpt>
      <trkpt lat="46.6571" lon="5.79327">
        <ele>582</ele>
        <time>2017-09-07T08:20:47Z</time>
      </trkpt>
      <trkpt lat="46.65708" lon="5.79335">
        <ele>582</ele>
        <time>2017-09-07T08:20:52Z</time>
      </trkpt>
      <trkpt lat="46.65699" lon="5.79344">
        <ele>582</ele>
        <time>2017-09-07T08:21:02Z</time>
      </trkpt>
      <trkpt lat="46.65697" lon="5.79351">
        <ele>582</ele>
        <time>2017-09-07T08:21:07Z</time>
      </trkpt>
      <trkpt lat="46.65693" lon="5.79356">
        <ele>582</ele>
        <time>2017-09-07T08:21:11Z</time>
      </trkpt>
      <trkpt lat="46.65692" lon="5.79364">
        <ele>582</ele>
        <time>2017-09-07T08:21:15Z</time>
      </trkpt>
      <trkpt lat="46.65689" lon="5.7937">
        <ele>581</ele>
        <time>2017-09-07T08:21:19Z</time>
      </trkpt>
      <trkpt lat="46.65684" lon="5.79374">
        <ele>581</ele>
        <time>2017-09-07T08:21:24Z</time>
      </trkpt>
      <trkpt lat="46.65682" lon="5.7938">
        <ele>582</ele>
        <time>2017-09-07T08:21:29Z</time>
      </trkpt>
      <trkpt lat="46.65679" lon="5.79394">
        <ele>582</ele>
        <time>2017-09-07T08:21:36Z</time>
      </trkpt>
      <trkpt lat="46.65673" lon="5.79404">
        <ele>581</ele>
        <time>2017-09-07T08:21:45Z</time>
      </trkpt>
      <trkpt lat="46.6567" lon="5.7941">
        <ele>582</ele>
        <time>2017-09-07T08:21:51Z</time>
      </trkpt>
      <trkpt lat="46.65666" lon="5.79414">
        <ele>584</ele>
        <time>2017-09-07T08:21:55Z</time>
      </trkpt>
      <trkpt lat="46.65659" lon="5.79424">
        <ele>584</ele>
        <time>2017-09-07T08:22:02Z</time>
      </trkpt>
      <trkpt lat="46.65654" lon="5.79426">
        <ele>585</ele>
        <time>2017-09-07T08:22:06Z</time>
      </trkpt>
      <trkpt lat="46.65649" lon="5.79427">
        <ele>585</ele>
        <time>2017-09-07T08:22:12Z</time>
      </trkpt>
      <trkpt lat="46.65644" lon="5.79427">
        <ele>585</ele>
        <time>2017-09-07T08:22:21Z</time>
      </trkpt>
      <trkpt lat="46.65641" lon="5.79433">
        <ele>585</ele>
        <time>2017-09-07T08:22:38Z</time>
      </trkpt>
      <trkpt lat="46.65638" lon="5.79439">
        <ele>584</ele>
        <time>2017-09-07T08:23:22Z</time>
      </trkpt>
      <trkpt lat="46.65638" lon="5.79446">
        <ele>584</ele>
        <time>2017-09-07T08:23:27Z</time>
      </trkpt>
      <trkpt lat="46.65637" lon="5.79455">
        <ele>585</ele>
        <time>2017-09-07T08:23:32Z</time>
      </trkpt>
      <trkpt lat="46.65636" lon="5.79461">
        <ele>585</ele>
        <time>2017-09-07T08:23:36Z</time>
      </trkpt>
      <trkpt lat="46.65636" lon="5.79469">
        <ele>585</ele>
        <time>2017-09-07T08:23:40Z</time>
      </trkpt>
      <trkpt lat="46.65637" lon="5.7949">
        <ele>584</ele>
        <time>2017-09-07T08:23:52Z</time>
      </trkpt>
      <trkpt lat="46.65637" lon="5.79497">
        <ele>583</ele>
        <time>2017-09-07T08:23:56Z</time>
      </trkpt>
      <trkpt lat="46.65638" lon="5.79511">
        <ele>583</ele>
        <time>2017-09-07T08:24:06Z</time>
      </trkpt>
      <trkpt lat="46.65636" lon="5.79518">
        <ele>583</ele>
        <time>2017-09-07T08:24:13Z</time>
      </trkpt>
      <trkpt lat="46.65631" lon="5.79522">
        <ele>584</ele>
        <time>2017-09-07T08:24:18Z</time>
      </trkpt>
      <trkpt lat="46.65625" lon="5.79534">
        <ele>583</ele>
        <time>2017-09-07T08:24:28Z</time>
      </trkpt>
      <trkpt lat="46.65623" lon="5.7954">
        <ele>583</ele>
        <time>2017-09-07T08:24:33Z</time>
      </trkpt>
      <trkpt lat="46.65617" lon="5.79562">
        <ele>585</ele>
        <time>2017-09-07T08:24:47Z</time>
      </trkpt>
      <trkpt lat="46.65612" lon="5.79584">
        <ele>585</ele>
        <time>2017-09-07T08:25:02Z</time>
      </trkpt>
      <trkpt lat="46.65602" lon="5.79635">
        <ele>585</ele>
        <time>2017-09-07T08:25:30Z</time>
      </trkpt>
      <trkpt lat="46.65601" lon="5.79641">
        <ele>584</ele>
        <time>2017-09-07T08:25:34Z</time>
      </trkpt>
      <trkpt lat="46.65599" lon="5.79649">
        <ele>585</ele>
        <time>2017-09-07T08:25:39Z</time>
      </trkpt>
      <trkpt lat="46.65592" lon="5.79681">
        <ele>588</ele>
        <time>2017-09-07T08:26:00Z</time>
      </trkpt>
      <trkpt lat="46.65577" lon="5.79735">
        <ele>590</ele>
        <time>2017-09-07T08:26:32Z</time>
      </trkpt>
      <trkpt lat="46.65576" lon="5.79742">
        <ele>590</ele>
        <time>2017-09-07T08:26:36Z</time>
      </trkpt>
      <trkpt lat="46.6556" lon="5.79786">
        <ele>594</ele>
        <time>2017-09-07T08:27:08Z</time>
      </trkpt>
      <trkpt lat="46.65551" lon="5.79803">
        <ele>595</ele>
        <time>2017-09-07T08:27:21Z</time>
      </trkpt>
      <trkpt lat="46.65548" lon="5.79808">
        <ele>595</ele>
        <time>2017-09-07T08:27:25Z</time>
      </trkpt>
      <trkpt lat="46.65545" lon="5.79812">
        <ele>595</ele>
        <time>2017-09-07T08:27:29Z</time>
      </trkpt>
      <trkpt lat="46.65541" lon="5.79817">
        <ele>596</ele>
        <time>2017-09-07T08:27:33Z</time>
      </trkpt>
      <trkpt lat="46.65539" lon="5.79824">
        <ele>595</ele>
        <time>2017-09-07T08:27:37Z</time>
      </trkpt>
      <trkpt lat="46.65533" lon="5.79835">
        <ele>596</ele>
        <time>2017-09-07T08:27:45Z</time>
      </trkpt>
      <trkpt lat="46.65529" lon="5.79841">
        <ele>596</ele>
        <time>2017-09-07T08:27:49Z</time>
      </trkpt>
      <trkpt lat="46.6552" lon="5.79856">
        <ele>597</ele>
        <time>2017-09-07T08:28:01Z</time>
      </trkpt>
      <trkpt lat="46.65516" lon="5.79861">
        <ele>596</ele>
        <time>2017-09-07T08:28:05Z</time>
      </trkpt>
      <trkpt lat="46.65492" lon="5.79894">
        <ele>596</ele>
        <time>2017-09-07T08:28:33Z</time>
      </trkpt>
      <trkpt lat="46.65479" lon="5.79928">
        <ele>594</ele>
        <time>2017-09-07T08:28:53Z</time>
      </trkpt>
      <trkpt lat="46.65473" lon="5.7994">
        <ele>595</ele>
        <time>2017-09-07T08:29:04Z</time>
      </trkpt>
      <trkpt lat="46.65459" lon="5.79978">
        <ele>597</ele>
        <time>2017-09-07T08:29:30Z</time>
      </trkpt>
      <trkpt lat="46.65439" lon="5.8002">
        <ele>597</ele>
        <time>2017-09-07T08:30:00Z</time>
      </trkpt>
      <trkpt lat="46.65434" lon="5.80032">
        <ele>597</ele>
        <time>2017-09-07T08:30:08Z</time>
      </trkpt>
      <trkpt lat="46.65431" lon="5.80039">
        <ele>597</ele>
        <time>2017-09-07T08:30:13Z</time>
      </trkpt>
      <trkpt lat="46.65428" lon="5.80044">
        <ele>598</ele>
        <time>2017-09-07T08:30:17Z</time>
      </trkpt>
      <trkpt lat="46.65424" lon="5.80049">
        <ele>597</ele>
        <time>2017-09-07T08:30:21Z</time>
      </trkpt>
      <trkpt lat="46.65408" lon="5.80085">
        <ele>597</ele>
        <time>2017-09-07T08:30:46Z</time>
      </trkpt>
      <trkpt lat="46.65404" lon="5.80089">
        <ele>597</ele>
        <time>2017-09-07T08:30:51Z</time>
      </trkpt>
      <trkpt lat="46.65401" lon="5.80096">
        <ele>596</ele>
        <time>2017-09-07T08:30:56Z</time>
      </trkpt>
      <trkpt lat="46.65394" lon="5.80113">
        <ele>596</ele>
        <time>2017-09-07T08:31:06Z</time>
      </trkpt>
      <trkpt lat="46.65387" lon="5.80125">
        <ele>596</ele>
        <time>2017-09-07T08:31:16Z</time>
      </trkpt>
      <trkpt lat="46.65384" lon="5.8013">
        <ele>596</ele>
        <time>2017-09-07T08:31:20Z</time>
      </trkpt>
      <trkpt lat="46.65381" lon="5.80136">
        <ele>596</ele>
        <time>2017-09-07T08:31:24Z</time>
      </trkpt>
      <trkpt lat="46.65379" lon="5.80142">
        <ele>595</ele>
        <time>2017-09-07T08:31:28Z</time>
      </trkpt>
      <trkpt lat="46.65376" lon="5.80147">
        <ele>594</ele>
        <time>2017-09-07T08:31:32Z</time>
      </trkpt>
      <trkpt lat="46.65372" lon="5.80152">
        <ele>594</ele>
        <time>2017-09-07T08:31:37Z</time>
      </trkpt>
      <trkpt lat="46.65368" lon="5.80156">
        <ele>595</ele>
        <time>2017-09-07T08:31:41Z</time>
      </trkpt>
      <trkpt lat="46.65364" lon="5.80161">
        <ele>594</ele>
        <time>2017-09-07T08:31:46Z</time>
      </trkpt>
      <trkpt lat="46.65359" lon="5.80173">
        <ele>594</ele>
        <time>2017-09-07T08:31:54Z</time>
      </trkpt>
      <trkpt lat="46.65344" lon="5.80217">
        <ele>594</ele>
        <time>2017-09-07T08:32:23Z</time>
      </trkpt>
      <trkpt lat="46.65341" lon="5.80223">
        <ele>595</ele>
        <time>2017-09-07T08:32:27Z</time>
      </trkpt>
      <trkpt lat="46.6534" lon="5.8023">
        <ele>595</ele>
        <time>2017-09-07T08:32:31Z</time>
      </trkpt>
      <trkpt lat="46.65337" lon="5.80236">
        <ele>595</ele>
        <time>2017-09-07T08:32:36Z</time>
      </trkpt>
      <trkpt lat="46.65334" lon="5.80242">
        <ele>595</ele>
        <time>2017-09-07T08:32:40Z</time>
      </trkpt>
      <trkpt lat="46.65324" lon="5.80267">
        <ele>592</ele>
        <time>2017-09-07T08:32:57Z</time>
      </trkpt>
      <trkpt lat="46.65317" lon="5.80279">
        <ele>592</ele>
        <time>2017-09-07T08:33:06Z</time>
      </trkpt>
      <trkpt lat="46.65314" lon="5.80292">
        <ele>591</ele>
        <time>2017-09-07T08:33:15Z</time>
      </trkpt>
      <trkpt lat="46.6529" lon="5.80341">
        <ele>588</ele>
        <time>2017-09-07T08:33:56Z</time>
      </trkpt>
      <trkpt lat="46.65282" lon="5.80349">
        <ele>589</ele>
        <time>2017-09-07T08:34:06Z</time>
      </trkpt>
      <trkpt lat="46.65275" lon="5.80359">
        <ele>591</ele>
        <time>2017-09-07T08:34:16Z</time>
      </trkpt>
      <trkpt lat="46.6527" lon="5.80364">
        <ele>591</ele>
        <time>2017-09-07T08:34:21Z</time>
      </trkpt>
      <trkpt lat="46.65265" lon="5.80363">
        <ele>591</ele>
        <time>2017-09-07T08:34:26Z</time>
      </trkpt>
      <trkpt lat="46.65255" lon="5.8036">
        <ele>591</ele>
        <time>2017-09-07T08:34:36Z</time>
      </trkpt>
      <trkpt lat="46.65247" lon="5.80354">
        <ele>590</ele>
        <time>2017-09-07T08:34:44Z</time>
      </trkpt>
      <trkpt lat="46.65237" lon="5.80349">
        <ele>589</ele>
        <time>2017-09-07T08:34:53Z</time>
      </trkpt>
      <trkpt lat="46.65233" lon="5.80348">
        <ele>588</ele>
        <time>2017-09-07T08:34:57Z</time>
      </trkpt>
      <trkpt lat="46.65228" lon="5.80347">
        <ele>588</ele>
        <time>2017-09-07T08:35:01Z</time>
      </trkpt>
      <trkpt lat="46.65218" lon="5.80343">
        <ele>588</ele>
        <time>2017-09-07T08:35:10Z</time>
      </trkpt>
      <trkpt lat="46.65194" lon="5.80334">
        <ele>585</ele>
        <time>2017-09-07T08:35:32Z</time>
      </trkpt>
      <trkpt lat="46.65185" lon="5.80331">
        <ele>586</ele>
        <time>2017-09-07T08:35:40Z</time>
      </trkpt>
      <trkpt lat="46.65179" lon="5.8033">
        <ele>586</ele>
        <time>2017-09-07T08:35:45Z</time>
      </trkpt>
      <trkpt lat="46.65174" lon="5.80332">
        <ele>586</ele>
        <time>2017-09-07T08:35:50Z</time>
      </trkpt>
      <trkpt lat="46.65165" lon="5.8034">
        <ele>586</ele>
        <time>2017-09-07T08:36:00Z</time>
      </trkpt>
      <trkpt lat="46.65158" lon="5.80352">
        <ele>585</ele>
        <time>2017-09-07T08:36:10Z</time>
      </trkpt>
      <trkpt lat="46.65156" lon="5.80358">
        <ele>584</ele>
        <time>2017-09-07T08:36:18Z</time>
      </trkpt>
      <trkpt lat="46.65153" lon="5.80364">
        <ele>584</ele>
        <time>2017-09-07T08:36:22Z</time>
      </trkpt>
      <trkpt lat="46.6515" lon="5.8037">
        <ele>586</ele>
        <time>2017-09-07T08:36:37Z</time>
      </trkpt>
      <trkpt lat="46.65149" lon="5.80377">
        <ele>586</ele>
        <time>2017-09-07T08:36:42Z</time>
      </trkpt>
      <trkpt lat="46.65147" lon="5.80384">
        <ele>586</ele>
        <time>2017-09-07T08:36:47Z</time>
      </trkpt>
      <trkpt lat="46.65146" lon="5.80391">
        <ele>586</ele>
        <time>2017-09-07T08:36:51Z</time>
      </trkpt>
      <trkpt lat="46.65145" lon="5.80399">
        <ele>586</ele>
        <time>2017-09-07T08:36:56Z</time>
      </trkpt>
      <trkpt lat="46.65145" lon="5.80407">
        <ele>585</ele>
        <time>2017-09-07T08:37:01Z</time>
      </trkpt>
      <trkpt lat="46.65133" lon="5.80439">
        <ele>583</ele>
        <time>2017-09-07T08:37:23Z</time>
      </trkpt>
      <trkpt lat="46.65117" lon="5.80468">
        <ele>578</ele>
        <time>2017-09-07T08:37:47Z</time>
      </trkpt>
      <trkpt lat="46.65113" lon="5.80473">
        <ele>578</ele>
        <time>2017-09-07T08:37:52Z</time>
      </trkpt>
      <trkpt lat="46.65105" lon="5.80491">
        <ele>576</ele>
        <time>2017-09-07T08:38:03Z</time>
      </trkpt>
      <trkpt lat="46.65091" lon="5.8053">
        <ele>572</ele>
        <time>2017-09-07T08:38:27Z</time>
      </trkpt>
      <trkpt lat="46.65084" lon="5.8054">
        <ele>572</ele>
        <time>2017-09-07T08:38:35Z</time>
      </trkpt>
      <trkpt lat="46.6508" lon="5.80544">
        <ele>571</ele>
        <time>2017-09-07T08:38:39Z</time>
      </trkpt>
      <trkpt lat="46.65075" lon="5.80549">
        <ele>571</ele>
        <time>2017-09-07T08:38:43Z</time>
      </trkpt>
      <trkpt lat="46.65064" lon="5.80563">
        <ele>570</ele>
        <time>2017-09-07T08:38:55Z</time>
      </trkpt>
      <trkpt lat="46.65061" lon="5.80567">
        <ele>570</ele>
        <time>2017-09-07T08:38:59Z</time>
      </trkpt>
      <trkpt lat="46.65056" lon="5.80572">
        <ele>570</ele>
        <time>2017-09-07T08:39:04Z</time>
      </trkpt>
      <trkpt lat="46.65028" lon="5.80609">
        <ele>570</ele>
        <time>2017-09-07T08:39:36Z</time>
      </trkpt>
      <trkpt lat="46.65024" lon="5.80614">
        <ele>570</ele>
        <time>2017-09-07T08:39:40Z</time>
      </trkpt>
      <trkpt lat="46.65011" lon="5.80635">
        <ele>570</ele>
        <time>2017-09-07T08:39:57Z</time>
      </trkpt>
      <trkpt lat="46.65005" lon="5.80647">
        <ele>570</ele>
        <time>2017-09-07T08:40:05Z</time>
      </trkpt>
      <trkpt lat="46.64996" lon="5.80664">
        <ele>570</ele>
        <time>2017-09-07T08:40:18Z</time>
      </trkpt>
      <trkpt lat="46.64994" lon="5.8067">
        <ele>570</ele>
        <time>2017-09-07T08:40:22Z</time>
      </trkpt>
      <trkpt lat="46.64974" lon="5.80719">
        <ele>572</ele>
        <time>2017-09-07T08:40:55Z</time>
      </trkpt>
      <trkpt lat="46.64967" lon="5.80738">
        <ele>571</ele>
        <time>2017-09-07T08:41:07Z</time>
      </trkpt>
      <trkpt lat="46.64963" lon="5.8075">
        <ele>571</ele>
        <time>2017-09-07T08:41:15Z</time>
      </trkpt>
      <trkpt lat="46.64958" lon="5.80764">
        <ele>570</ele>
        <time>2017-09-07T08:41:23Z</time>
      </trkpt>
      <trkpt lat="46.64954" lon="5.80787">
        <ele>571</ele>
        <time>2017-09-07T08:41:37Z</time>
      </trkpt>
      <trkpt lat="46.64954" lon="5.80794">
        <ele>571</ele>
        <time>2017-09-07T08:41:41Z</time>
      </trkpt>
      <trkpt lat="46.64954" lon="5.80801">
        <ele>571</ele>
        <time>2017-09-07T08:41:45Z</time>
      </trkpt>
      <trkpt lat="46.64953" lon="5.80823">
        <ele>570</ele>
        <time>2017-09-07T08:41:58Z</time>
      </trkpt>
      <trkpt lat="46.64949" lon="5.80853">
        <ele>571</ele>
        <time>2017-09-07T08:42:14Z</time>
      </trkpt>
      <trkpt lat="46.64949" lon="5.80868">
        <ele>572</ele>
        <time>2017-09-07T08:42:22Z</time>
      </trkpt>
      <trkpt lat="46.64949" lon="5.80882">
        <ele>571</ele>
        <time>2017-09-07T08:42:32Z</time>
      </trkpt>
      <trkpt lat="46.6495" lon="5.80897">
        <ele>571</ele>
        <time>2017-09-07T08:42:40Z</time>
      </trkpt>
      <trkpt lat="46.6495" lon="5.80903">
        <ele>571</ele>
        <time>2017-09-07T08:42:44Z</time>
      </trkpt>
      <trkpt lat="46.6495" lon="5.80918">
        <ele>572</ele>
        <time>2017-09-07T08:42:54Z</time>
      </trkpt>
      <trkpt lat="46.64943" lon="5.80954">
        <ele>575</ele>
        <time>2017-09-07T08:43:14Z</time>
      </trkpt>
      <trkpt lat="46.6494" lon="5.80969">
        <ele>574</ele>
        <time>2017-09-07T08:43:23Z</time>
      </trkpt>
      <trkpt lat="46.64936" lon="5.8099">
        <ele>575</ele>
        <time>2017-09-07T08:43:35Z</time>
      </trkpt>
      <trkpt lat="46.64932" lon="5.81011">
        <ele>573</ele>
        <time>2017-09-07T08:43:47Z</time>
      </trkpt>
      <trkpt lat="46.64927" lon="5.81032">
        <ele>573</ele>
        <time>2017-09-07T08:43:59Z</time>
      </trkpt>
      <trkpt lat="46.64915" lon="5.81053">
        <ele>575</ele>
        <time>2017-09-07T08:44:19Z</time>
      </trkpt>
      <trkpt lat="46.64903" lon="5.81073">
        <ele>574</ele>
        <time>2017-09-07T08:44:32Z</time>
      </trkpt>
      <trkpt lat="46.64898" lon="5.81086">
        <ele>573</ele>
        <time>2017-09-07T08:44:38Z</time>
      </trkpt>
      <trkpt lat="46.64897" lon="5.811">
        <ele>573</ele>
        <time>2017-09-07T08:44:48Z</time>
      </trkpt>
      <trkpt lat="46.649" lon="5.81143">
        <ele>572</ele>
        <time>2017-09-07T08:45:10Z</time>
      </trkpt>
      <trkpt lat="46.64906" lon="5.81164">
        <ele>572</ele>
        <time>2017-09-07T08:45:22Z</time>
      </trkpt>
      <trkpt lat="46.64908" lon="5.81171">
        <ele>572</ele>
        <time>2017-09-07T08:45:27Z</time>
      </trkpt>
      <trkpt lat="46.64911" lon="5.81186">
        <ele>572</ele>
        <time>2017-09-07T08:45:37Z</time>
      </trkpt>
      <trkpt lat="46.64913" lon="5.81209">
        <ele>572</ele>
        <time>2017-09-07T08:45:48Z</time>
      </trkpt>
      <trkpt lat="46.64915" lon="5.81215">
        <ele>571</ele>
        <time>2017-09-07T08:45:53Z</time>
      </trkpt>
      <trkpt lat="46.64917" lon="5.8123">
        <ele>572</ele>
        <time>2017-09-07T08:46:01Z</time>
      </trkpt>
      <trkpt lat="46.64915" lon="5.81252">
        <ele>573</ele>
        <time>2017-09-07T08:46:12Z</time>
      </trkpt>
      <trkpt lat="46.64916" lon="5.81259">
        <ele>573</ele>
        <time>2017-09-07T08:46:16Z</time>
      </trkpt>
      <trkpt lat="46.64919" lon="5.81283">
        <ele>575</ele>
        <time>2017-09-07T08:46:28Z</time>
      </trkpt>
      <trkpt lat="46.64918" lon="5.81305">
        <ele>577</ele>
        <time>2017-09-07T08:46:40Z</time>
      </trkpt>
      <trkpt lat="46.64913" lon="5.81327">
        <ele>579</ele>
        <time>2017-09-07T08:46:54Z</time>
      </trkpt>
      <trkpt lat="46.64908" lon="5.81358">
        <ele>579</ele>
        <time>2017-09-07T08:47:10Z</time>
      </trkpt>
      <trkpt lat="46.64907" lon="5.81386">
        <ele>578</ele>
        <time>2017-09-07T08:47:26Z</time>
      </trkpt>
      <trkpt lat="46.64908" lon="5.81408">
        <ele>576</ele>
        <time>2017-09-07T08:47:38Z</time>
      </trkpt>
      <trkpt lat="46.6491" lon="5.81423">
        <ele>577</ele>
        <time>2017-09-07T08:47:47Z</time>
      </trkpt>
      <trkpt lat="46.64911" lon="5.81431">
        <ele>578</ele>
        <time>2017-09-07T08:47:51Z</time>
      </trkpt>
      <trkpt lat="46.64911" lon="5.81439">
        <ele>578</ele>
        <time>2017-09-07T08:47:56Z</time>
      </trkpt>
      <trkpt lat="46.64912" lon="5.81454">
        <ele>578</ele>
        <time>2017-09-07T08:48:04Z</time>
      </trkpt>
      <trkpt lat="46.6491" lon="5.81483">
        <ele>579</ele>
        <time>2017-09-07T08:48:21Z</time>
      </trkpt>
      <trkpt lat="46.64907" lon="5.81505">
        <ele>580</ele>
        <time>2017-09-07T08:48:34Z</time>
      </trkpt>
      <trkpt lat="46.64904" lon="5.81535">
        <ele>579</ele>
        <time>2017-09-07T08:48:49Z</time>
      </trkpt>
      <trkpt lat="46.649" lon="5.81577">
        <ele>581</ele>
        <time>2017-09-07T08:49:11Z</time>
      </trkpt>
      <trkpt lat="46.64897" lon="5.81593">
        <ele>582</ele>
        <time>2017-09-07T08:49:20Z</time>
      </trkpt>
      <trkpt lat="46.64896" lon="5.81607">
        <ele>582</ele>
        <time>2017-09-07T08:49:28Z</time>
      </trkpt>
      <trkpt lat="46.64898" lon="5.81613">
        <ele>581</ele>
        <time>2017-09-07T08:49:45Z</time>
      </trkpt>
      <trkpt lat="46.64895" lon="5.81622">
        <ele>581</ele>
        <time>2017-09-07T08:49:56Z</time>
      </trkpt>
      <trkpt lat="46.64895" lon="5.81619">
        <ele>582</ele>
        <time>2017-09-07T08:51:06Z</time>
      </trkpt>
      <trkpt lat="46.649" lon="5.81605">
        <ele>582</ele>
        <time>2017-09-07T08:51:14Z</time>
      </trkpt>
      <trkpt lat="46.64902" lon="5.81582">
        <ele>583</ele>
        <time>2017-09-07T08:51:29Z</time>
      </trkpt>
      <trkpt lat="46.64899" lon="5.81591">
        <ele>585</ele>
        <time>2017-09-07T08:52:38Z</time>
      </trkpt>
      <trkpt lat="46.64897" lon="5.81598">
        <ele>585</ele>
        <time>2017-09-07T08:52:43Z</time>
      </trkpt>
      <trkpt lat="46.64893" lon="5.8161">
        <ele>585</ele>
        <time>2017-09-07T08:52:53Z</time>
      </trkpt>
      <trkpt lat="46.64891" lon="5.81616">
        <ele>586</ele>
        <time>2017-09-07T08:53:00Z</time>
      </trkpt>
      <trkpt lat="46.64891" lon="5.81624">
        <ele>586</ele>
        <time>2017-09-07T08:53:44Z</time>
      </trkpt>
      <trkpt lat="46.6489" lon="5.81632">
        <ele>585</ele>
        <time>2017-09-07T08:55:22Z</time>
      </trkpt>
      <trkpt lat="46.64887" lon="5.81648">
        <ele>582</ele>
        <time>2017-09-07T08:56:57Z</time>
      </trkpt>
      <trkpt lat="46.64885" lon="5.81655">
        <ele>582</ele>
        <time>2017-09-07T08:57:01Z</time>
      </trkpt>
      <trkpt lat="46.64863" lon="5.81706">
        <ele>586</ele>
        <time>2017-09-07T08:57:33Z</time>
      </trkpt>
      <trkpt lat="46.6485" lon="5.81763">
        <ele>589</ele>
        <time>2017-09-07T08:58:06Z</time>
      </trkpt>
      <trkpt lat="46.64848" lon="5.81771">
        <ele>590</ele>
        <time>2017-09-07T08:58:11Z</time>
      </trkpt>
      <trkpt lat="46.64846" lon="5.81778">
        <ele>590</ele>
        <time>2017-09-07T08:58:15Z</time>
      </trkpt>
      <trkpt lat="46.64844" lon="5.81785">
        <ele>590</ele>
        <time>2017-09-07T08:58:19Z</time>
      </trkpt>
      <trkpt lat="46.64838" lon="5.81798">
        <ele>590</ele>
        <time>2017-09-07T08:58:29Z</time>
      </trkpt>
      <trkpt lat="46.64832" lon="5.81821">
        <ele>592</ele>
        <time>2017-09-07T08:58:43Z</time>
      </trkpt>
      <trkpt lat="46.6483" lon="5.81827">
        <ele>592</ele>
        <time>2017-09-07T08:58:47Z</time>
      </trkpt>
      <trkpt lat="46.64823" lon="5.81836">
        <ele>593</ele>
        <time>2017-09-07T08:58:55Z</time>
      </trkpt>
      <trkpt lat="46.64816" lon="5.81847">
        <ele>594</ele>
        <time>2017-09-07T08:59:03Z</time>
      </trkpt>
      <trkpt lat="46.64808" lon="5.81873">
        <ele>595</ele>
        <time>2017-09-07T08:59:21Z</time>
      </trkpt>
      <trkpt lat="46.64802" lon="5.81882">
        <ele>596</ele>
        <time>2017-09-07T08:59:28Z</time>
      </trkpt>
      <trkpt lat="46.64797" lon="5.81894">
        <ele>596</ele>
        <time>2017-09-07T08:59:35Z</time>
      </trkpt>
      <trkpt lat="46.64792" lon="5.81897">
        <ele>596</ele>
        <time>2017-09-07T08:59:39Z</time>
      </trkpt>
      <trkpt lat="46.64788" lon="5.81897">
        <ele>596</ele>
        <time>2017-09-07T08:59:43Z</time>
      </trkpt>
      <trkpt lat="46.64782" lon="5.81899">
        <ele>597</ele>
        <time>2017-09-07T08:59:49Z</time>
      </trkpt>
      <trkpt lat="46.64778" lon="5.81901">
        <ele>597</ele>
        <time>2017-09-07T08:59:56Z</time>
      </trkpt>
      <trkpt lat="46.64775" lon="5.81906">
        <ele>596</ele>
        <time>2017-09-07T09:00:06Z</time>
      </trkpt>
      <trkpt lat="46.64765" lon="5.81911">
        <ele>595</ele>
        <time>2017-09-07T09:02:33Z</time>
      </trkpt>
      <trkpt lat="46.64756" lon="5.81913">
        <ele>596</ele>
        <time>2017-09-07T09:02:41Z</time>
      </trkpt>
      <trkpt lat="46.64746" lon="5.81914">
        <ele>596</ele>
        <time>2017-09-07T09:02:50Z</time>
      </trkpt>
      <trkpt lat="46.64736" lon="5.81911">
        <ele>596</ele>
        <time>2017-09-07T09:02:58Z</time>
      </trkpt>
      <trkpt lat="46.64727" lon="5.81915">
        <ele>596</ele>
        <time>2017-09-07T09:03:05Z</time>
      </trkpt>
      <trkpt lat="46.64721" lon="5.81921">
        <ele>595</ele>
        <time>2017-09-07T09:03:12Z</time>
      </trkpt>
      <trkpt lat="46.64714" lon="5.8193">
        <ele>594</ele>
        <time>2017-09-07T09:03:20Z</time>
      </trkpt>
      <trkpt lat="46.64709" lon="5.81934">
        <ele>594</ele>
        <time>2017-09-07T09:03:24Z</time>
      </trkpt>
      <trkpt lat="46.64699" lon="5.81938">
        <ele>593</ele>
        <time>2017-09-07T09:03:32Z</time>
      </trkpt>
      <trkpt lat="46.64694" lon="5.81937">
        <ele>592</ele>
        <time>2017-09-07T09:03:36Z</time>
      </trkpt>
      <trkpt lat="46.64684" lon="5.81932">
        <ele>593</ele>
        <time>2017-09-07T09:03:42Z</time>
      </trkpt>
      <trkpt lat="46.64679" lon="5.81933">
        <ele>593</ele>
        <time>2017-09-07T09:03:46Z</time>
      </trkpt>
      <trkpt lat="46.64675" lon="5.81933">
        <ele>593</ele>
        <time>2017-09-07T09:03:49Z</time>
      </trkpt>
      <trkpt lat="46.64665" lon="5.81934">
        <ele>594</ele>
        <time>2017-09-07T09:03:56Z</time>
      </trkpt>
      <trkpt lat="46.6466" lon="5.81938">
        <ele>594</ele>
        <time>2017-09-07T09:04:01Z</time>
      </trkpt>
      <trkpt lat="46.64656" lon="5.81942">
        <ele>594</ele>
        <time>2017-09-07T09:04:06Z</time>
      </trkpt>
      <trkpt lat="46.64652" lon="5.81945">
        <ele>594</ele>
        <time>2017-09-07T09:04:10Z</time>
      </trkpt>
      <trkpt lat="46.64642" lon="5.81949">
        <ele>594</ele>
        <time>2017-09-07T09:04:18Z</time>
      </trkpt>
      <trkpt lat="46.64633" lon="5.81948">
        <ele>594</ele>
        <time>2017-09-07T09:04:25Z</time>
      </trkpt>
      <trkpt lat="46.64625" lon="5.81957">
        <ele>594</ele>
        <time>2017-09-07T09:04:33Z</time>
      </trkpt>
      <trkpt lat="46.64617" lon="5.81964">
        <ele>595</ele>
        <time>2017-09-07T09:04:39Z</time>
      </trkpt>
      <trkpt lat="46.6461" lon="5.81975">
        <ele>595</ele>
        <time>2017-09-07T09:04:46Z</time>
      </trkpt>
      <trkpt lat="46.64584" lon="5.81991">
        <ele>597</ele>
        <time>2017-09-07T09:05:11Z</time>
      </trkpt>
      <trkpt lat="46.64577" lon="5.81999">
        <ele>597</ele>
        <time>2017-09-07T09:05:18Z</time>
      </trkpt>
      <trkpt lat="46.64567" lon="5.81996">
        <ele>597</ele>
        <time>2017-09-07T09:05:23Z</time>
      </trkpt>
      <trkpt lat="46.64558" lon="5.82001">
        <ele>597</ele>
        <time>2017-09-07T09:05:30Z</time>
      </trkpt>
      <trkpt lat="46.64552" lon="5.82011">
        <ele>597</ele>
        <time>2017-09-07T09:05:37Z</time>
      </trkpt>
      <trkpt lat="46.64543" lon="5.82015">
        <ele>598</ele>
        <time>2017-09-07T09:05:43Z</time>
      </trkpt>
      <trkpt lat="46.64535" lon="5.8202">
        <ele>598</ele>
        <time>2017-09-07T09:05:51Z</time>
      </trkpt>
      <trkpt lat="46.64524" lon="5.82015">
        <ele>598</ele>
        <time>2017-09-07T09:06:02Z</time>
      </trkpt>
      <trkpt lat="46.64516" lon="5.82008">
        <ele>597</ele>
        <time>2017-09-07T09:06:08Z</time>
      </trkpt>
      <trkpt lat="46.64496" lon="5.82005">
        <ele>596</ele>
        <time>2017-09-07T09:06:22Z</time>
      </trkpt>
      <trkpt lat="46.64487" lon="5.82001">
        <ele>596</ele>
        <time>2017-09-07T09:06:29Z</time>
      </trkpt>
      <trkpt lat="46.64478" lon="5.82004">
        <ele>596</ele>
        <time>2017-09-07T09:06:39Z</time>
      </trkpt>
      <trkpt lat="46.64469" lon="5.82004">
        <ele>597</ele>
        <time>2017-09-07T09:06:45Z</time>
      </trkpt>
      <trkpt lat="46.64455" lon="5.82011">
        <ele>598</ele>
        <time>2017-09-07T09:06:55Z</time>
      </trkpt>
      <trkpt lat="46.64427" lon="5.82025">
        <ele>599</ele>
        <time>2017-09-07T09:07:19Z</time>
      </trkpt>
      <trkpt lat="46.64412" lon="5.82041">
        <ele>600</ele>
        <time>2017-09-07T09:07:34Z</time>
      </trkpt>
      <trkpt lat="46.64402" lon="5.82053">
        <ele>601</ele>
        <time>2017-09-07T09:07:45Z</time>
      </trkpt>
      <trkpt lat="46.64396" lon="5.82055">
        <ele>602</ele>
        <time>2017-09-07T09:07:49Z</time>
      </trkpt>
      <trkpt lat="46.64391" lon="5.82057">
        <ele>602</ele>
        <time>2017-09-07T09:07:53Z</time>
      </trkpt>
      <trkpt lat="46.64382" lon="5.82059">
        <ele>602</ele>
        <time>2017-09-07T09:08:01Z</time>
      </trkpt>
      <trkpt lat="46.64372" lon="5.82064">
        <ele>600</ele>
        <time>2017-09-07T09:08:11Z</time>
      </trkpt>
      <trkpt lat="46.64362" lon="5.82065">
        <ele>600</ele>
        <time>2017-09-07T09:08:19Z</time>
      </trkpt>
      <trkpt lat="46.64357" lon="5.82068">
        <ele>601</ele>
        <time>2017-09-07T09:08:24Z</time>
      </trkpt>
      <trkpt lat="46.64352" lon="5.8207">
        <ele>601</ele>
        <time>2017-09-07T09:08:28Z</time>
      </trkpt>
      <trkpt lat="46.64331" lon="5.82064">
        <ele>603</ele>
        <time>2017-09-07T09:08:42Z</time>
      </trkpt>
      <trkpt lat="46.64311" lon="5.82063">
        <ele>601</ele>
        <time>2017-09-07T09:08:59Z</time>
      </trkpt>
      <trkpt lat="46.64291" lon="5.82059">
        <ele>603</ele>
        <time>2017-09-07T09:09:15Z</time>
      </trkpt>
      <trkpt lat="46.64286" lon="5.82057">
        <ele>603</ele>
        <time>2017-09-07T09:09:20Z</time>
      </trkpt>
      <trkpt lat="46.64271" lon="5.82051">
        <ele>606</ele>
        <time>2017-09-07T09:09:35Z</time>
      </trkpt>
      <trkpt lat="46.64267" lon="5.8205">
        <ele>607</ele>
        <time>2017-09-07T09:09:40Z</time>
      </trkpt>
      <trkpt lat="46.64262" lon="5.82052">
        <ele>609</ele>
        <time>2017-09-07T09:09:47Z</time>
      </trkpt>
      <trkpt lat="46.64252" lon="5.82052">
        <ele>609</ele>
        <time>2017-09-07T09:09:58Z</time>
      </trkpt>
      <trkpt lat="46.64247" lon="5.82052">
        <ele>609</ele>
        <time>2017-09-07T09:10:03Z</time>
      </trkpt>
      <trkpt lat="46.64237" lon="5.82049">
        <ele>611</ele>
        <time>2017-09-07T09:10:13Z</time>
      </trkpt>
      <trkpt lat="46.64223" lon="5.82047">
        <ele>614</ele>
        <time>2017-09-07T09:10:26Z</time>
      </trkpt>
      <trkpt lat="46.64214" lon="5.82043">
        <ele>618</ele>
        <time>2017-09-07T09:10:40Z</time>
      </trkpt>
      <trkpt lat="46.64204" lon="5.82045">
        <ele>620</ele>
        <time>2017-09-07T09:10:50Z</time>
      </trkpt>
      <trkpt lat="46.64195" lon="5.82044">
        <ele>626</ele>
        <time>2017-09-07T09:11:02Z</time>
      </trkpt>
      <trkpt lat="46.64186" lon="5.82039">
        <ele>628</ele>
        <time>2017-09-07T09:11:15Z</time>
      </trkpt>
      <trkpt lat="46.64176" lon="5.82037">
        <ele>628</ele>
        <time>2017-09-07T09:11:21Z</time>
      </trkpt>
      <trkpt lat="46.64169" lon="5.82026">
        <ele>628</ele>
        <time>2017-09-07T09:11:27Z</time>
      </trkpt>
      <trkpt lat="46.64163" lon="5.82016">
        <ele>627</ele>
        <time>2017-09-07T09:11:39Z</time>
      </trkpt>
      <trkpt lat="46.64158" lon="5.82003">
        <ele>627</ele>
        <time>2017-09-07T09:11:47Z</time>
      </trkpt>
      <trkpt lat="46.64159" lon="5.8199">
        <ele>628</ele>
        <time>2017-09-07T09:11:54Z</time>
      </trkpt>
      <trkpt lat="46.6416" lon="5.81962">
        <ele>630</ele>
        <time>2017-09-07T09:12:09Z</time>
      </trkpt>
      <trkpt lat="46.64158" lon="5.81949">
        <ele>630</ele>
        <time>2017-09-07T09:12:18Z</time>
      </trkpt>
      <trkpt lat="46.64159" lon="5.8196">
        <ele>628</ele>
        <time>2017-09-07T09:13:21Z</time>
      </trkpt>
      <trkpt lat="46.64159" lon="5.81975">
        <ele>627</ele>
        <time>2017-09-07T09:13:32Z</time>
      </trkpt>
      <trkpt lat="46.64163" lon="5.82002">
        <ele>626</ele>
        <time>2017-09-07T09:13:50Z</time>
      </trkpt>
      <trkpt lat="46.64164" lon="5.82016">
        <ele>626</ele>
        <time>2017-09-07T09:13:59Z</time>
      </trkpt>
      <trkpt lat="46.64154" lon="5.82021">
        <ele>626</ele>
        <time>2017-09-07T09:14:15Z</time>
      </trkpt>
      <trkpt lat="46.64127" lon="5.8201">
        <ele>626</ele>
        <time>2017-09-07T09:14:40Z</time>
      </trkpt>
      <trkpt lat="46.6412" lon="5.82">
        <ele>625</ele>
        <time>2017-09-07T09:14:53Z</time>
      </trkpt>
      <trkpt lat="46.64113" lon="5.81991">
        <ele>625</ele>
        <time>2017-09-07T09:15:04Z</time>
      </trkpt>
      <trkpt lat="46.64104" lon="5.81985">
        <ele>626</ele>
        <time>2017-09-07T09:15:12Z</time>
      </trkpt>
      <trkpt lat="46.64097" lon="5.81975">
        <ele>626</ele>
        <time>2017-09-07T09:15:20Z</time>
      </trkpt>
      <trkpt lat="46.64083" lon="5.81957">
        <ele>624</ele>
        <time>2017-09-07T09:15:41Z</time>
      </trkpt>
      <trkpt lat="46.64074" lon="5.81951">
        <ele>624</ele>
        <time>2017-09-07T09:15:47Z</time>
      </trkpt>
      <trkpt lat="46.64067" lon="5.81941">
        <ele>624</ele>
        <time>2017-09-07T09:15:55Z</time>
      </trkpt>
      <trkpt lat="46.64054" lon="5.81919">
        <ele>623</ele>
        <time>2017-09-07T09:16:07Z</time>
      </trkpt>
      <trkpt lat="46.64038" lon="5.81902">
        <ele>621</ele>
        <time>2017-09-07T09:16:24Z</time>
      </trkpt>
      <trkpt lat="46.64019" lon="5.8189">
        <ele>619</ele>
        <time>2017-09-07T09:16:37Z</time>
      </trkpt>
      <trkpt lat="46.6401" lon="5.81889">
        <ele>620</ele>
        <time>2017-09-07T09:16:45Z</time>
      </trkpt>
      <trkpt lat="46.64002" lon="5.81884">
        <ele>619</ele>
        <time>2017-09-07T09:16:57Z</time>
      </trkpt>
      <trkpt lat="46.63993" lon="5.81881">
        <ele>617</ele>
        <time>2017-09-07T09:17:07Z</time>
      </trkpt>
      <trkpt lat="46.63984" lon="5.81878">
        <ele>616</ele>
        <time>2017-09-07T09:17:14Z</time>
      </trkpt>
      <trkpt lat="46.63975" lon="5.81879">
        <ele>615</ele>
        <time>2017-09-07T09:17:21Z</time>
      </trkpt>
      <trkpt lat="46.63955" lon="5.81887">
        <ele>616</ele>
        <time>2017-09-07T09:17:34Z</time>
      </trkpt>
      <trkpt lat="46.63937" lon="5.81885">
        <ele>617</ele>
        <time>2017-09-07T09:17:48Z</time>
      </trkpt>
      <trkpt lat="46.63928" lon="5.81889">
        <ele>616</ele>
        <time>2017-09-07T09:17:55Z</time>
      </trkpt>
      <trkpt lat="46.63918" lon="5.81888">
        <ele>615</ele>
        <time>2017-09-07T09:18:04Z</time>
      </trkpt>
      <trkpt lat="46.63899" lon="5.81883">
        <ele>615</ele>
        <time>2017-09-07T09:18:16Z</time>
      </trkpt>
      <trkpt lat="46.6388" lon="5.81879">
        <ele>616</ele>
        <time>2017-09-07T09:18:39Z</time>
      </trkpt>
      <trkpt lat="46.6387" lon="5.81874">
        <ele>616</ele>
        <time>2017-09-07T09:18:46Z</time>
      </trkpt>
      <trkpt lat="46.63862" lon="5.81867">
        <ele>616</ele>
        <time>2017-09-07T09:18:54Z</time>
      </trkpt>
      <trkpt lat="46.63853" lon="5.81861">
        <ele>615</ele>
        <time>2017-09-07T09:19:03Z</time>
      </trkpt>
      <trkpt lat="46.63844" lon="5.81858">
        <ele>614</ele>
        <time>2017-09-07T09:19:10Z</time>
      </trkpt>
      <trkpt lat="46.63834" lon="5.81863">
        <ele>613</ele>
        <time>2017-09-07T09:19:19Z</time>
      </trkpt>
      <trkpt lat="46.63825" lon="5.81865">
        <ele>612</ele>
        <time>2017-09-07T09:19:25Z</time>
      </trkpt>
      <trkpt lat="46.63816" lon="5.8187">
        <ele>613</ele>
        <time>2017-09-07T09:19:32Z</time>
      </trkpt>
      <trkpt lat="46.63807" lon="5.81875">
        <ele>613</ele>
        <time>2017-09-07T09:19:39Z</time>
      </trkpt>
      <trkpt lat="46.63798" lon="5.81879">
        <ele>611</ele>
        <time>2017-09-07T09:19:47Z</time>
      </trkpt>
      <trkpt lat="46.6377" lon="5.81878">
        <ele>609</ele>
        <time>2017-09-07T09:20:11Z</time>
      </trkpt>
      <trkpt lat="46.63761" lon="5.81876">
        <ele>607</ele>
        <time>2017-09-07T09:20:18Z</time>
      </trkpt>
      <trkpt lat="46.63742" lon="5.81885">
        <ele>606</ele>
        <time>2017-09-07T09:20:37Z</time>
      </trkpt>
      <trkpt lat="46.63733" lon="5.81891">
        <ele>606</ele>
        <time>2017-09-07T09:20:48Z</time>
      </trkpt>
      <trkpt lat="46.63725" lon="5.81898">
        <ele>606</ele>
        <time>2017-09-07T09:20:57Z</time>
      </trkpt>
      <trkpt lat="46.63715" lon="5.81897">
        <ele>606</ele>
        <time>2017-09-07T09:21:05Z</time>
      </trkpt>
      <trkpt lat="46.63707" lon="5.81902">
        <ele>607</ele>
        <time>2017-09-07T09:21:13Z</time>
      </trkpt>
      <trkpt lat="46.63698" lon="5.81894">
        <ele>608</ele>
        <time>2017-09-07T09:21:23Z</time>
      </trkpt>
      <trkpt lat="46.63692" lon="5.81884">
        <ele>609</ele>
        <time>2017-09-07T09:21:32Z</time>
      </trkpt>
      <trkpt lat="46.63683" lon="5.81877">
        <ele>610</ele>
        <time>2017-09-07T09:21:42Z</time>
      </trkpt>
      <trkpt lat="46.63674" lon="5.81875">
        <ele>611</ele>
        <time>2017-09-07T09:21:50Z</time>
      </trkpt>
      <trkpt lat="46.63666" lon="5.81868">
        <ele>610</ele>
        <time>2017-09-07T09:21:59Z</time>
      </trkpt>
      <trkpt lat="46.63646" lon="5.81865">
        <ele>611</ele>
        <time>2017-09-07T09:22:14Z</time>
      </trkpt>
      <trkpt lat="46.6364" lon="5.81867">
        <ele>612</ele>
        <time>2017-09-07T09:22:21Z</time>
      </trkpt>
      <trkpt lat="46.6363" lon="5.81874">
        <ele>610</ele>
        <time>2017-09-07T09:22:29Z</time>
      </trkpt>
      <trkpt lat="46.63625" lon="5.81875">
        <ele>609</ele>
        <time>2017-09-07T09:22:33Z</time>
      </trkpt>
      <trkpt lat="46.63615" lon="5.81882">
        <ele>608</ele>
        <time>2017-09-07T09:22:41Z</time>
      </trkpt>
      <trkpt lat="46.63611" lon="5.81881">
        <ele>608</ele>
        <time>2017-09-07T09:22:44Z</time>
      </trkpt>
      <trkpt lat="46.63606" lon="5.81885">
        <ele>607</ele>
        <time>2017-09-07T09:22:52Z</time>
      </trkpt>
      <trkpt lat="46.63602" lon="5.81887">
        <ele>607</ele>
        <time>2017-09-07T09:22:56Z</time>
      </trkpt>
      <trkpt lat="46.6359" lon="5.81899">
        <ele>606</ele>
        <time>2017-09-07T09:23:09Z</time>
      </trkpt>
      <trkpt lat="46.63586" lon="5.81903">
        <ele>606</ele>
        <time>2017-09-07T09:23:13Z</time>
      </trkpt>
      <trkpt lat="46.63582" lon="5.81907">
        <ele>605</ele>
        <time>2017-09-07T09:23:17Z</time>
      </trkpt>
      <trkpt lat="46.63575" lon="5.81918">
        <ele>604</ele>
        <time>2017-09-07T09:23:28Z</time>
      </trkpt>
      <trkpt lat="46.63562" lon="5.81933">
        <ele>604</ele>
        <time>2017-09-07T09:23:43Z</time>
      </trkpt>
      <trkpt lat="46.63552" lon="5.81939">
        <ele>603</ele>
        <time>2017-09-07T09:23:53Z</time>
      </trkpt>
      <trkpt lat="46.63548" lon="5.81942">
        <ele>603</ele>
        <time>2017-09-07T09:23:57Z</time>
      </trkpt>
      <trkpt lat="46.63543" lon="5.81947">
        <ele>602</ele>
        <time>2017-09-07T09:24:02Z</time>
      </trkpt>
      <trkpt lat="46.63528" lon="5.81951">
        <ele>600</ele>
        <time>2017-09-07T09:24:17Z</time>
      </trkpt>
      <trkpt lat="46.63513" lon="5.8196">
        <ele>597</ele>
        <time>2017-09-07T09:24:33Z</time>
      </trkpt>
      <trkpt lat="46.63493" lon="5.81964">
        <ele>594</ele>
        <time>2017-09-07T09:24:51Z</time>
      </trkpt>
      <trkpt lat="46.63488" lon="5.81964">
        <ele>593</ele>
        <time>2017-09-07T09:24:55Z</time>
      </trkpt>
      <trkpt lat="46.63482" lon="5.81965">
        <ele>592</ele>
        <time>2017-09-07T09:24:59Z</time>
      </trkpt>
      <trkpt lat="46.63478" lon="5.81968">
        <ele>591</ele>
        <time>2017-09-07T09:25:04Z</time>
      </trkpt>
      <trkpt lat="46.63473" lon="5.81968">
        <ele>591</ele>
        <time>2017-09-07T09:25:08Z</time>
      </trkpt>
      <trkpt lat="46.63468" lon="5.81971">
        <ele>590</ele>
        <time>2017-09-07T09:25:14Z</time>
      </trkpt>
      <trkpt lat="46.63463" lon="5.81972">
        <ele>589</ele>
        <time>2017-09-07T09:25:19Z</time>
      </trkpt>
      <trkpt lat="46.63459" lon="5.81975">
        <ele>589</ele>
        <time>2017-09-07T09:25:24Z</time>
      </trkpt>
      <trkpt lat="46.63454" lon="5.81976">
        <ele>588</ele>
        <time>2017-09-07T09:25:29Z</time>
      </trkpt>
      <trkpt lat="46.63448" lon="5.81975">
        <ele>588</ele>
        <time>2017-09-07T09:25:33Z</time>
      </trkpt>
      <trkpt lat="46.63443" lon="5.81977">
        <ele>588</ele>
        <time>2017-09-07T09:25:38Z</time>
      </trkpt>
      <trkpt lat="46.63439" lon="5.81981">
        <ele>588</ele>
        <time>2017-09-07T09:25:42Z</time>
      </trkpt>
      <trkpt lat="46.63431" lon="5.81989">
        <ele>589</ele>
        <time>2017-09-07T09:25:51Z</time>
      </trkpt>
      <trkpt lat="46.63427" lon="5.81993">
        <ele>589</ele>
        <time>2017-09-07T09:25:55Z</time>
      </trkpt>
      <trkpt lat="46.63421" lon="5.81994">
        <ele>589</ele>
        <time>2017-09-07T09:25:59Z</time>
      </trkpt>
      <trkpt lat="46.63417" lon="5.81999">
        <ele>589</ele>
        <time>2017-09-07T09:26:04Z</time>
      </trkpt>
      <trkpt lat="46.63412" lon="5.82001">
        <ele>589</ele>
        <time>2017-09-07T09:26:08Z</time>
      </trkpt>
      <trkpt lat="46.63407" lon="5.82001">
        <ele>589</ele>
        <time>2017-09-07T09:26:11Z</time>
      </trkpt>
      <trkpt lat="46.63399" lon="5.82008">
        <ele>587</ele>
        <time>2017-09-07T09:26:19Z</time>
      </trkpt>
      <trkpt lat="46.63394" lon="5.82011">
        <ele>587</ele>
        <time>2017-09-07T09:26:23Z</time>
      </trkpt>
      <trkpt lat="46.63385" lon="5.82019">
        <ele>588</ele>
        <time>2017-09-07T09:26:33Z</time>
      </trkpt>
      <trkpt lat="46.63375" lon="5.82023">
        <ele>589</ele>
        <time>2017-09-07T09:26:44Z</time>
      </trkpt>
      <trkpt lat="46.6337" lon="5.82026">
        <ele>589</ele>
        <time>2017-09-07T09:26:50Z</time>
      </trkpt>
      <trkpt lat="46.6336" lon="5.82026">
        <ele>590</ele>
        <time>2017-09-07T09:26:59Z</time>
      </trkpt>
      <trkpt lat="46.63355" lon="5.82028">
        <ele>591</ele>
        <time>2017-09-07T09:27:04Z</time>
      </trkpt>
      <trkpt lat="46.6335" lon="5.82027">
        <ele>591</ele>
        <time>2017-09-07T09:27:08Z</time>
      </trkpt>
      <trkpt lat="46.63344" lon="5.82026">
        <ele>591</ele>
        <time>2017-09-07T09:27:12Z</time>
      </trkpt>
      <trkpt lat="46.63339" lon="5.82028">
        <ele>592</ele>
        <time>2017-09-07T09:27:16Z</time>
      </trkpt>
      <trkpt lat="46.63325" lon="5.82025">
        <ele>593</ele>
        <time>2017-09-07T09:27:26Z</time>
      </trkpt>
      <trkpt lat="46.63316" lon="5.82031">
        <ele>594</ele>
        <time>2017-09-07T09:27:39Z</time>
      </trkpt>
      <trkpt lat="46.63307" lon="5.82028">
        <ele>595</ele>
        <time>2017-09-07T09:27:45Z</time>
      </trkpt>
      <trkpt lat="46.63298" lon="5.82031">
        <ele>596</ele>
        <time>2017-09-07T09:27:52Z</time>
      </trkpt>
      <trkpt lat="46.63289" lon="5.82035">
        <ele>595</ele>
        <time>2017-09-07T09:27:59Z</time>
      </trkpt>
      <trkpt lat="46.6328" lon="5.82039">
        <ele>594</ele>
        <time>2017-09-07T09:28:07Z</time>
      </trkpt>
      <trkpt lat="46.6327" lon="5.8204">
        <ele>592</ele>
        <time>2017-09-07T09:28:15Z</time>
      </trkpt>
      <trkpt lat="46.63266" lon="5.82043">
        <ele>592</ele>
        <time>2017-09-07T09:28:18Z</time>
      </trkpt>
      <trkpt lat="46.63259" lon="5.82042">
        <ele>592</ele>
        <time>2017-09-07T09:28:21Z</time>
      </trkpt>
      <trkpt lat="46.63254" lon="5.82043">
        <ele>591</ele>
        <time>2017-09-07T09:28:26Z</time>
      </trkpt>
      <trkpt lat="46.6325" lon="5.82046">
        <ele>592</ele>
        <time>2017-09-07T09:28:32Z</time>
      </trkpt>
      <trkpt lat="46.63246" lon="5.82052">
        <ele>591</ele>
        <time>2017-09-07T09:28:38Z</time>
      </trkpt>
      <trkpt lat="46.63241" lon="5.82052">
        <ele>592</ele>
        <time>2017-09-07T09:28:44Z</time>
      </trkpt>
      <trkpt lat="46.63232" lon="5.82046">
        <ele>593</ele>
        <time>2017-09-07T09:28:55Z</time>
      </trkpt>
      <trkpt lat="46.63228" lon="5.82042">
        <ele>593</ele>
        <time>2017-09-07T09:29:00Z</time>
      </trkpt>
      <trkpt lat="46.63217" lon="5.82037">
        <ele>593</ele>
        <time>2017-09-07T09:29:10Z</time>
      </trkpt>
      <trkpt lat="46.63206" lon="5.82033">
        <ele>595</ele>
        <time>2017-09-07T09:29:24Z</time>
      </trkpt>
      <trkpt lat="46.63192" lon="5.82033">
        <ele>597</ele>
        <time>2017-09-07T09:29:37Z</time>
      </trkpt>
      <trkpt lat="46.63182" lon="5.82032">
        <ele>597</ele>
        <time>2017-09-07T09:29:46Z</time>
      </trkpt>
      <trkpt lat="46.63175" lon="5.82041">
        <ele>597</ele>
        <time>2017-09-07T09:29:57Z</time>
      </trkpt>
      <trkpt lat="46.63166" lon="5.82041">
        <ele>597</ele>
        <time>2017-09-07T09:30:07Z</time>
      </trkpt>
      <trkpt lat="46.63157" lon="5.82044">
        <ele>598</ele>
        <time>2017-09-07T09:30:16Z</time>
      </trkpt>
      <trkpt lat="46.63148" lon="5.82046">
        <ele>599</ele>
        <time>2017-09-07T09:30:23Z</time>
      </trkpt>
      <trkpt lat="46.63141" lon="5.82054">
        <ele>599</ele>
        <time>2017-09-07T09:30:30Z</time>
      </trkpt>
      <trkpt lat="46.63132" lon="5.8206">
        <ele>599</ele>
        <time>2017-09-07T09:30:39Z</time>
      </trkpt>
      <trkpt lat="46.63126" lon="5.82072">
        <ele>600</ele>
        <time>2017-09-07T09:30:50Z</time>
      </trkpt>
      <trkpt lat="46.63119" lon="5.82082">
        <ele>600</ele>
        <time>2017-09-07T09:30:58Z</time>
      </trkpt>
      <trkpt lat="46.63111" lon="5.8209">
        <ele>601</ele>
        <time>2017-09-07T09:31:05Z</time>
      </trkpt>
      <trkpt lat="46.63098" lon="5.82109">
        <ele>603</ele>
        <time>2017-09-07T09:31:22Z</time>
      </trkpt>
      <trkpt lat="46.63076" lon="5.82134">
        <ele>608</ele>
        <time>2017-09-07T09:31:54Z</time>
      </trkpt>
      <trkpt lat="46.63068" lon="5.82141">
        <ele>609</ele>
        <time>2017-09-07T09:32:06Z</time>
      </trkpt>
      <trkpt lat="46.63061" lon="5.82152">
        <ele>610</ele>
        <time>2017-09-07T09:32:17Z</time>
      </trkpt>
      <trkpt lat="46.63058" lon="5.82164">
        <ele>610</ele>
        <time>2017-09-07T09:32:25Z</time>
      </trkpt>
      <trkpt lat="46.63044" lon="5.82182">
        <ele>611</ele>
        <time>2017-09-07T09:32:46Z</time>
      </trkpt>
      <trkpt lat="46.63038" lon="5.82193">
        <ele>612</ele>
        <time>2017-09-07T09:32:54Z</time>
      </trkpt>
      <trkpt lat="46.63029" lon="5.82197">
        <ele>612</ele>
        <time>2017-09-07T09:33:02Z</time>
      </trkpt>
      <trkpt lat="46.63021" lon="5.82205">
        <ele>613</ele>
        <time>2017-09-07T09:33:11Z</time>
      </trkpt>
      <trkpt lat="46.63019" lon="5.82218">
        <ele>614</ele>
        <time>2017-09-07T09:33:18Z</time>
      </trkpt>
      <trkpt lat="46.63013" lon="5.82228">
        <ele>617</ele>
        <time>2017-09-07T09:33:26Z</time>
      </trkpt>
      <trkpt lat="46.63004" lon="5.82235">
        <ele>617</ele>
        <time>2017-09-07T09:33:34Z</time>
      </trkpt>
      <trkpt lat="46.62997" lon="5.82245">
        <ele>617</ele>
        <time>2017-09-07T09:33:45Z</time>
      </trkpt>
      <trkpt lat="46.62984" lon="5.82282">
        <ele>618</ele>
        <time>2017-09-07T09:34:11Z</time>
      </trkpt>
      <trkpt lat="46.62984" lon="5.82323">
        <ele>620</ele>
        <time>2017-09-07T09:34:35Z</time>
      </trkpt>
      <trkpt lat="46.62982" lon="5.82336">
        <ele>620</ele>
        <time>2017-09-07T09:34:45Z</time>
      </trkpt>
      <trkpt lat="46.6298" lon="5.82351">
        <ele>621</ele>
        <time>2017-09-07T09:34:56Z</time>
      </trkpt>
      <trkpt lat="46.62982" lon="5.82364">
        <ele>621</ele>
        <time>2017-09-07T09:35:03Z</time>
      </trkpt>
      <trkpt lat="46.62983" lon="5.82377">
        <ele>623</ele>
        <time>2017-09-07T09:35:14Z</time>
      </trkpt>
      <trkpt lat="46.62985" lon="5.8239">
        <ele>623</ele>
        <time>2017-09-07T09:35:19Z</time>
      </trkpt>
      <trkpt lat="46.62985" lon="5.82404">
        <ele>624</ele>
        <time>2017-09-07T09:35:29Z</time>
      </trkpt>
      <trkpt lat="46.62994" lon="5.82429">
        <ele>625</ele>
        <time>2017-09-07T09:35:45Z</time>
      </trkpt>
      <trkpt lat="46.62996" lon="5.82442">
        <ele>624</ele>
        <time>2017-09-07T09:35:56Z</time>
      </trkpt>
      <trkpt lat="46.63003" lon="5.82453">
        <ele>624</ele>
        <time>2017-09-07T09:36:04Z</time>
      </trkpt>
      <trkpt lat="46.63009" lon="5.82464">
        <ele>624</ele>
        <time>2017-09-07T09:36:11Z</time>
      </trkpt>
      <trkpt lat="46.63016" lon="5.8249">
        <ele>624</ele>
        <time>2017-09-07T09:36:29Z</time>
      </trkpt>
      <trkpt lat="46.6302" lon="5.82516">
        <ele>627</ele>
        <time>2017-09-07T09:36:50Z</time>
      </trkpt>
      <trkpt lat="46.63013" lon="5.82543">
        <ele>629</ele>
        <time>2017-09-07T09:37:08Z</time>
      </trkpt>
      <trkpt lat="46.63005" lon="5.82569">
        <ele>629</ele>
        <time>2017-09-07T09:37:29Z</time>
      </trkpt>
      <trkpt lat="46.63006" lon="5.82583">
        <ele>629</ele>
        <time>2017-09-07T09:37:35Z</time>
      </trkpt>
      <trkpt lat="46.63002" lon="5.82596">
        <ele>630</ele>
        <time>2017-09-07T09:37:43Z</time>
      </trkpt>
      <trkpt lat="46.63001" lon="5.8261">
        <ele>629</ele>
        <time>2017-09-07T09:37:50Z</time>
      </trkpt>
      <trkpt lat="46.62995" lon="5.82621">
        <ele>630</ele>
        <time>2017-09-07T09:37:59Z</time>
      </trkpt>
      <trkpt lat="46.62991" lon="5.82634">
        <ele>631</ele>
        <time>2017-09-07T09:38:08Z</time>
      </trkpt>
      <trkpt lat="46.62982" lon="5.8264">
        <ele>631</ele>
        <time>2017-09-07T09:38:18Z</time>
      </trkpt>
      <trkpt lat="46.62965" lon="5.8265">
        <ele>634</ele>
        <time>2017-09-07T09:38:41Z</time>
      </trkpt>
      <trkpt lat="46.62955" lon="5.82655">
        <ele>634</ele>
        <time>2017-09-07T09:38:50Z</time>
      </trkpt>
      <trkpt lat="46.62945" lon="5.82656">
        <ele>635</ele>
        <time>2017-09-07T09:38:58Z</time>
      </trkpt>
      <trkpt lat="46.62937" lon="5.82661">
        <ele>635</ele>
        <time>2017-09-07T09:39:06Z</time>
      </trkpt>
      <trkpt lat="46.6293" lon="5.82669">
        <ele>637</ele>
        <time>2017-09-07T09:39:17Z</time>
      </trkpt>
      <trkpt lat="46.62914" lon="5.82685">
        <ele>637</ele>
        <time>2017-09-07T09:39:32Z</time>
      </trkpt>
      <trkpt lat="46.629" lon="5.82704">
        <ele>639</ele>
        <time>2017-09-07T09:39:49Z</time>
      </trkpt>
      <trkpt lat="46.62892" lon="5.8271">
        <ele>640</ele>
        <time>2017-09-07T09:39:59Z</time>
      </trkpt>
      <trkpt lat="46.62892" lon="5.82717">
        <ele>642</ele>
        <time>2017-09-07T09:40:22Z</time>
      </trkpt>
      <trkpt lat="46.62889" lon="5.8272">
        <ele>646</ele>
        <time>2017-09-07T09:43:08Z</time>
      </trkpt>
      <trkpt lat="46.62858" lon="5.82724">
        <ele>638</ele>
        <time>2017-09-07T09:45:42Z</time>
      </trkpt>
      <trkpt lat="46.6284" lon="5.82737">
        <ele>638</ele>
        <time>2017-09-07T09:45:59Z</time>
      </trkpt>
      <trkpt lat="46.62833" lon="5.82745">
        <ele>639</ele>
        <time>2017-09-07T09:46:06Z</time>
      </trkpt>
      <trkpt lat="46.62808" lon="5.82779">
        <ele>643</ele>
        <time>2017-09-07T09:46:33Z</time>
      </trkpt>
      <trkpt lat="46.62804" lon="5.82783">
        <ele>644</ele>
        <time>2017-09-07T09:46:37Z</time>
      </trkpt>
      <trkpt lat="46.62794" lon="5.82787">
        <ele>646</ele>
        <time>2017-09-07T09:46:48Z</time>
      </trkpt>
      <trkpt lat="46.62789" lon="5.82789">
        <ele>647</ele>
        <time>2017-09-07T09:46:53Z</time>
      </trkpt>
      <trkpt lat="46.62784" lon="5.82789">
        <ele>648</ele>
        <time>2017-09-07T09:46:59Z</time>
      </trkpt>
      <trkpt lat="46.62772" lon="5.82791">
        <ele>649</ele>
        <time>2017-09-07T09:47:07Z</time>
      </trkpt>
      <trkpt lat="46.62767" lon="5.82791">
        <ele>649</ele>
        <time>2017-09-07T09:47:11Z</time>
      </trkpt>
      <trkpt lat="46.62763" lon="5.82794">
        <ele>649</ele>
        <time>2017-09-07T09:47:15Z</time>
      </trkpt>
      <trkpt lat="46.62749" lon="5.82802">
        <ele>650</ele>
        <time>2017-09-07T09:47:27Z</time>
      </trkpt>
      <trkpt lat="46.62745" lon="5.82803">
        <ele>650</ele>
        <time>2017-09-07T09:47:31Z</time>
      </trkpt>
      <trkpt lat="46.6273" lon="5.82809">
        <ele>650</ele>
        <time>2017-09-07T09:47:43Z</time>
      </trkpt>
      <trkpt lat="46.62713" lon="5.82825">
        <ele>652</ele>
        <time>2017-09-07T09:48:00Z</time>
      </trkpt>
      <trkpt lat="46.62675" lon="5.82845">
        <ele>654</ele>
        <time>2017-09-07T09:48:31Z</time>
      </trkpt>
      <trkpt lat="46.62666" lon="5.82852">
        <ele>655</ele>
        <time>2017-09-07T09:48:41Z</time>
      </trkpt>
      <trkpt lat="46.62661" lon="5.82854">
        <ele>655</ele>
        <time>2017-09-07T09:48:46Z</time>
      </trkpt>
      <trkpt lat="46.62656" lon="5.82854">
        <ele>655</ele>
        <time>2017-09-07T09:48:50Z</time>
      </trkpt>
      <trkpt lat="46.62638" lon="5.82867">
        <ele>655</ele>
        <time>2017-09-07T09:49:07Z</time>
      </trkpt>
      <trkpt lat="46.62609" lon="5.82884">
        <ele>657</ele>
        <time>2017-09-07T09:49:32Z</time>
      </trkpt>
      <trkpt lat="46.62605" lon="5.82889">
        <ele>658</ele>
        <time>2017-09-07T09:49:36Z</time>
      </trkpt>
      <trkpt lat="46.6259" lon="5.82894">
        <ele>659</ele>
        <time>2017-09-07T09:49:48Z</time>
      </trkpt>
      <trkpt lat="46.62574" lon="5.82902">
        <ele>659</ele>
        <time>2017-09-07T09:50:00Z</time>
      </trkpt>
      <trkpt lat="46.62563" lon="5.82902">
        <ele>660</ele>
        <time>2017-09-07T09:50:10Z</time>
      </trkpt>
      <trkpt lat="46.62559" lon="5.829">
        <ele>660</ele>
        <time>2017-09-07T09:50:13Z</time>
      </trkpt>
      <trkpt lat="46.62555" lon="5.82909">
        <ele>660</ele>
        <time>2017-09-07T09:50:18Z</time>
      </trkpt>
      <trkpt lat="46.62552" lon="5.82915">
        <ele>660</ele>
        <time>2017-09-07T09:50:22Z</time>
      </trkpt>
      <trkpt lat="46.62542" lon="5.8292">
        <ele>660</ele>
        <time>2017-09-07T09:50:31Z</time>
      </trkpt>
      <trkpt lat="46.62537" lon="5.82918">
        <ele>659</ele>
        <time>2017-09-07T09:50:36Z</time>
      </trkpt>
      <trkpt lat="46.62534" lon="5.82911">
        <ele>658</ele>
        <time>2017-09-07T09:50:41Z</time>
      </trkpt>
      <trkpt lat="46.62532" lon="5.82905">
        <ele>659</ele>
        <time>2017-09-07T09:50:46Z</time>
      </trkpt>
      <trkpt lat="46.62529" lon="5.829">
        <ele>659</ele>
        <time>2017-09-07T09:50:50Z</time>
      </trkpt>
      <trkpt lat="46.62523" lon="5.82888">
        <ele>659</ele>
        <time>2017-09-07T09:51:00Z</time>
      </trkpt>
      <trkpt lat="46.62518" lon="5.82885">
        <ele>659</ele>
        <time>2017-09-07T09:51:06Z</time>
      </trkpt>
      <trkpt lat="46.62483" lon="5.82877">
        <ele>661</ele>
        <time>2017-09-07T09:51:37Z</time>
      </trkpt>
      <trkpt lat="46.62477" lon="5.82875">
        <ele>661</ele>
        <time>2017-09-07T09:51:41Z</time>
      </trkpt>
      <trkpt lat="46.62458" lon="5.82878">
        <ele>662</ele>
        <time>2017-09-07T09:51:56Z</time>
      </trkpt>
      <trkpt lat="46.62454" lon="5.82881">
        <ele>662</ele>
        <time>2017-09-07T09:52:00Z</time>
      </trkpt>
      <trkpt lat="46.62444" lon="5.82885">
        <ele>663</ele>
        <time>2017-09-07T09:52:07Z</time>
      </trkpt>
      <trkpt lat="46.62436" lon="5.8289">
        <ele>664</ele>
        <time>2017-09-07T09:52:16Z</time>
      </trkpt>
      <trkpt lat="46.62432" lon="5.82895">
        <ele>665</ele>
        <time>2017-09-07T09:52:20Z</time>
      </trkpt>
      <trkpt lat="46.62429" lon="5.82901">
        <ele>665</ele>
        <time>2017-09-07T09:52:24Z</time>
      </trkpt>
      <trkpt lat="46.62425" lon="5.82904">
        <ele>665</ele>
        <time>2017-09-07T09:52:28Z</time>
      </trkpt>
      <trkpt lat="46.62415" lon="5.82911">
        <ele>665</ele>
        <time>2017-09-07T09:52:38Z</time>
      </trkpt>
      <trkpt lat="46.62406" lon="5.82907">
        <ele>667</ele>
        <time>2017-09-07T09:52:48Z</time>
      </trkpt>
      <trkpt lat="46.62401" lon="5.82906">
        <ele>667</ele>
        <time>2017-09-07T09:52:53Z</time>
      </trkpt>
      <trkpt lat="46.62392" lon="5.82901">
        <ele>667</ele>
        <time>2017-09-07T09:53:01Z</time>
      </trkpt>
      <trkpt lat="46.62373" lon="5.8289">
        <ele>670</ele>
        <time>2017-09-07T09:53:19Z</time>
      </trkpt>
      <trkpt lat="46.62368" lon="5.8289">
        <ele>670</ele>
        <time>2017-09-07T09:53:23Z</time>
      </trkpt>
      <trkpt lat="46.62357" lon="5.82886">
        <ele>669</ele>
        <time>2017-09-07T09:53:33Z</time>
      </trkpt>
      <trkpt lat="46.62352" lon="5.82886">
        <ele>668</ele>
        <time>2017-09-07T09:53:38Z</time>
      </trkpt>
      <trkpt lat="46.62341" lon="5.82886">
        <ele>667</ele>
        <time>2017-09-07T09:53:48Z</time>
      </trkpt>
      <trkpt lat="46.62337" lon="5.82889">
        <ele>667</ele>
        <time>2017-09-07T09:53:53Z</time>
      </trkpt>
      <trkpt lat="46.62332" lon="5.8289">
        <ele>668</ele>
        <time>2017-09-07T09:53:57Z</time>
      </trkpt>
      <trkpt lat="46.62327" lon="5.82893">
        <ele>669</ele>
        <time>2017-09-07T09:54:02Z</time>
      </trkpt>
      <trkpt lat="46.62322" lon="5.82892">
        <ele>670</ele>
        <time>2017-09-07T09:54:06Z</time>
      </trkpt>
      <trkpt lat="46.62313" lon="5.82895">
        <ele>671</ele>
        <time>2017-09-07T09:54:14Z</time>
      </trkpt>
      <trkpt lat="46.62308" lon="5.82894">
        <ele>671</ele>
        <time>2017-09-07T09:54:18Z</time>
      </trkpt>
      <trkpt lat="46.62298" lon="5.82896">
        <ele>671</ele>
        <time>2017-09-07T09:54:26Z</time>
      </trkpt>
      <trkpt lat="46.62293" lon="5.829">
        <ele>671</ele>
        <time>2017-09-07T09:54:30Z</time>
      </trkpt>
      <trkpt lat="46.62289" lon="5.82902">
        <ele>670</ele>
        <time>2017-09-07T09:54:34Z</time>
      </trkpt>
      <trkpt lat="46.62281" lon="5.8291">
        <ele>670</ele>
        <time>2017-09-07T09:54:42Z</time>
      </trkpt>
      <trkpt lat="46.62267" lon="5.82917">
        <ele>671</ele>
        <time>2017-09-07T09:54:53Z</time>
      </trkpt>
      <trkpt lat="46.62265" lon="5.82923">
        <ele>671</ele>
        <time>2017-09-07T09:54:56Z</time>
      </trkpt>
      <trkpt lat="46.62253" lon="5.82937">
        <ele>671</ele>
        <time>2017-09-07T09:55:09Z</time>
      </trkpt>
      <trkpt lat="46.62239" lon="5.8295">
        <ele>672</ele>
        <time>2017-09-07T09:55:22Z</time>
      </trkpt>
      <trkpt lat="46.62231" lon="5.8296">
        <ele>672</ele>
        <time>2017-09-07T09:55:31Z</time>
      </trkpt>
      <trkpt lat="46.62221" lon="5.82965">
        <ele>672</ele>
        <time>2017-09-07T09:55:39Z</time>
      </trkpt>
      <trkpt lat="46.62215" lon="5.82966">
        <ele>672</ele>
        <time>2017-09-07T09:55:43Z</time>
      </trkpt>
      <trkpt lat="46.62211" lon="5.82963">
        <ele>672</ele>
        <time>2017-09-07T09:55:49Z</time>
      </trkpt>
      <trkpt lat="46.62201" lon="5.82939">
        <ele>674</ele>
        <time>2017-09-07T09:56:06Z</time>
      </trkpt>
      <trkpt lat="46.62195" lon="5.82928">
        <ele>675</ele>
        <time>2017-09-07T09:56:13Z</time>
      </trkpt>
      <trkpt lat="46.62188" lon="5.8292">
        <ele>676</ele>
        <time>2017-09-07T09:56:20Z</time>
      </trkpt>
      <trkpt lat="46.62183" lon="5.8292">
        <ele>676</ele>
        <time>2017-09-07T09:56:23Z</time>
      </trkpt>
      <trkpt lat="46.62178" lon="5.82921">
        <ele>677</ele>
        <time>2017-09-07T09:56:26Z</time>
      </trkpt>
      <trkpt lat="46.62174" lon="5.82924">
        <ele>677</ele>
        <time>2017-09-07T09:56:30Z</time>
      </trkpt>
      <trkpt lat="46.62158" lon="5.82942">
        <ele>677</ele>
        <time>2017-09-07T09:56:46Z</time>
      </trkpt>
      <trkpt lat="46.62139" lon="5.8296">
        <ele>678</ele>
        <time>2017-09-07T09:57:02Z</time>
      </trkpt>
      <trkpt lat="46.62135" lon="5.82962">
        <ele>678</ele>
        <time>2017-09-07T09:57:06Z</time>
      </trkpt>
      <trkpt lat="46.6213" lon="5.82962">
        <ele>679</ele>
        <time>2017-09-07T09:57:12Z</time>
      </trkpt>
      <trkpt lat="46.6212" lon="5.82959">
        <ele>679</ele>
        <time>2017-09-07T09:57:22Z</time>
      </trkpt>
      <trkpt lat="46.62115" lon="5.82959">
        <ele>680</ele>
        <time>2017-09-07T09:57:27Z</time>
      </trkpt>
      <trkpt lat="46.6211" lon="5.82958">
        <ele>680</ele>
        <time>2017-09-07T09:57:31Z</time>
      </trkpt>
      <trkpt lat="46.62105" lon="5.82959">
        <ele>681</ele>
        <time>2017-09-07T09:57:35Z</time>
      </trkpt>
      <trkpt lat="46.62095" lon="5.8296">
        <ele>681</ele>
        <time>2017-09-07T09:57:43Z</time>
      </trkpt>
      <trkpt lat="46.6209" lon="5.8296">
        <ele>681</ele>
        <time>2017-09-07T09:57:47Z</time>
      </trkpt>
      <trkpt lat="46.62085" lon="5.82962">
        <ele>681</ele>
        <time>2017-09-07T09:57:51Z</time>
      </trkpt>
      <trkpt lat="46.6208" lon="5.82965">
        <ele>681</ele>
        <time>2017-09-07T09:57:56Z</time>
      </trkpt>
      <trkpt lat="46.6207" lon="5.82968">
        <ele>681</ele>
        <time>2017-09-07T09:58:03Z</time>
      </trkpt>
      <trkpt lat="46.62032" lon="5.82965">
        <ele>679</ele>
        <time>2017-09-07T09:58:42Z</time>
      </trkpt>
      <trkpt lat="46.62023" lon="5.82966">
        <ele>680</ele>
        <time>2017-09-07T09:58:51Z</time>
      </trkpt>
      <trkpt lat="46.62002" lon="5.8297">
        <ele>679</ele>
        <time>2017-09-07T09:59:04Z</time>
      </trkpt>
      <trkpt lat="46.61984" lon="5.82976">
        <ele>679</ele>
        <time>2017-09-07T09:59:19Z</time>
      </trkpt>
      <trkpt lat="46.61974" lon="5.8298">
        <ele>678</ele>
        <time>2017-09-07T09:59:27Z</time>
      </trkpt>
      <trkpt lat="46.61967" lon="5.82989">
        <ele>677</ele>
        <time>2017-09-07T09:59:36Z</time>
      </trkpt>
      <trkpt lat="46.61957" lon="5.82994">
        <ele>677</ele>
        <time>2017-09-07T09:59:43Z</time>
      </trkpt>
      <trkpt lat="46.61951" lon="5.83006">
        <ele>678</ele>
        <time>2017-09-07T09:59:50Z</time>
      </trkpt>
      <trkpt lat="46.61942" lon="5.83013">
        <ele>679</ele>
        <time>2017-09-07T09:59:58Z</time>
      </trkpt>
      <trkpt lat="46.61923" lon="5.83017">
        <ele>680</ele>
        <time>2017-09-07T10:00:14Z</time>
      </trkpt>
      <trkpt lat="46.61914" lon="5.83026">
        <ele>679</ele>
        <time>2017-09-07T10:00:23Z</time>
      </trkpt>
      <trkpt lat="46.61905" lon="5.83026">
        <ele>677</ele>
        <time>2017-09-07T10:00:30Z</time>
      </trkpt>
      <trkpt lat="46.61896" lon="5.83032">
        <ele>677</ele>
        <time>2017-09-07T10:00:38Z</time>
      </trkpt>
      <trkpt lat="46.61887" lon="5.83038">
        <ele>677</ele>
        <time>2017-09-07T10:00:45Z</time>
      </trkpt>
      <trkpt lat="46.61878" lon="5.83043">
        <ele>677</ele>
        <time>2017-09-07T10:00:53Z</time>
      </trkpt>
      <trkpt lat="46.61873" lon="5.83055">
        <ele>677</ele>
        <time>2017-09-07T10:01:00Z</time>
      </trkpt>
      <trkpt lat="46.61869" lon="5.83068">
        <ele>677</ele>
        <time>2017-09-07T10:01:06Z</time>
      </trkpt>
      <trkpt lat="46.61862" lon="5.83077">
        <ele>676</ele>
        <time>2017-09-07T10:01:14Z</time>
      </trkpt>
      <trkpt lat="46.61855" lon="5.83088">
        <ele>676</ele>
        <time>2017-09-07T10:01:23Z</time>
      </trkpt>
      <trkpt lat="46.61846" lon="5.83113">
        <ele>675</ele>
        <time>2017-09-07T10:01:40Z</time>
      </trkpt>
      <trkpt lat="46.6183" lon="5.83146">
        <ele>675</ele>
        <time>2017-09-07T10:02:05Z</time>
      </trkpt>
      <trkpt lat="46.61828" lon="5.8316">
        <ele>675</ele>
        <time>2017-09-07T10:02:13Z</time>
      </trkpt>
      <trkpt lat="46.61816" lon="5.83182">
        <ele>674</ele>
        <time>2017-09-07T10:02:29Z</time>
      </trkpt>
      <trkpt lat="46.61813" lon="5.83194">
        <ele>674</ele>
        <time>2017-09-07T10:02:36Z</time>
      </trkpt>
      <trkpt lat="46.61808" lon="5.83206">
        <ele>674</ele>
        <time>2017-09-07T10:02:46Z</time>
      </trkpt>
      <trkpt lat="46.61806" lon="5.83221">
        <ele>674</ele>
        <time>2017-09-07T10:02:55Z</time>
      </trkpt>
      <trkpt lat="46.61796" lon="5.83245">
        <ele>672</ele>
        <time>2017-09-07T10:03:17Z</time>
      </trkpt>
      <trkpt lat="46.61788" lon="5.83251">
        <ele>671</ele>
        <time>2017-09-07T10:03:26Z</time>
      </trkpt>
      <trkpt lat="46.61782" lon="5.83261">
        <ele>670</ele>
        <time>2017-09-07T10:03:37Z</time>
      </trkpt>
      <trkpt lat="46.61777" lon="5.83273">
        <ele>668</ele>
        <time>2017-09-07T10:03:47Z</time>
      </trkpt>
      <trkpt lat="46.61775" lon="5.83286">
        <ele>666</ele>
        <time>2017-09-07T10:03:56Z</time>
      </trkpt>
      <trkpt lat="46.61768" lon="5.83295">
        <ele>665</ele>
        <time>2017-09-07T10:04:05Z</time>
      </trkpt>
      <trkpt lat="46.61765" lon="5.83308">
        <ele>664</ele>
        <time>2017-09-07T10:04:13Z</time>
      </trkpt>
      <trkpt lat="46.61758" lon="5.83318">
        <ele>662</ele>
        <time>2017-09-07T10:04:23Z</time>
      </trkpt>
      <trkpt lat="46.61753" lon="5.8333">
        <ele>662</ele>
        <time>2017-09-07T10:04:33Z</time>
      </trkpt>
      <trkpt lat="46.61749" lon="5.83357">
        <ele>661</ele>
        <time>2017-09-07T10:04:49Z</time>
      </trkpt>
      <trkpt lat="46.61744" lon="5.8337">
        <ele>659</ele>
        <time>2017-09-07T10:04:59Z</time>
      </trkpt>
      <trkpt lat="46.61737" lon="5.83379">
        <ele>658</ele>
        <time>2017-09-07T10:05:10Z</time>
      </trkpt>
      <trkpt lat="46.61734" lon="5.83392">
        <ele>656</ele>
        <time>2017-09-07T10:05:24Z</time>
      </trkpt>
      <trkpt lat="46.61722" lon="5.83412">
        <ele>652</ele>
        <time>2017-09-07T10:05:47Z</time>
      </trkpt>
      <trkpt lat="46.61711" lon="5.83435">
        <ele>650</ele>
        <time>2017-09-07T10:06:06Z</time>
      </trkpt>
      <trkpt lat="46.61706" lon="5.83447">
        <ele>650</ele>
        <time>2017-09-07T10:06:14Z</time>
      </trkpt>
      <trkpt lat="46.617" lon="5.83517">
        <ele>641</ele>
        <time>2017-09-07T10:06:53Z</time>
      </trkpt>
      <trkpt lat="46.61695" lon="5.83529">
        <ele>640</ele>
        <time>2017-09-07T10:07:01Z</time>
      </trkpt>
      <trkpt lat="46.61694" lon="5.83542">
        <ele>639</ele>
        <time>2017-09-07T10:07:12Z</time>
      </trkpt>
      <trkpt lat="46.61695" lon="5.83557">
        <ele>638</ele>
        <time>2017-09-07T10:07:20Z</time>
      </trkpt>
      <trkpt lat="46.617" lon="5.83569">
        <ele>637</ele>
        <time>2017-09-07T10:07:26Z</time>
      </trkpt>
      <trkpt lat="46.61704" lon="5.83583">
        <ele>637</ele>
        <time>2017-09-07T10:07:35Z</time>
      </trkpt>
      <trkpt lat="46.617" lon="5.83596">
        <ele>636</ele>
        <time>2017-09-07T10:07:45Z</time>
      </trkpt>
      <trkpt lat="46.6169" lon="5.83621">
        <ele>637</ele>
        <time>2017-09-07T10:08:02Z</time>
      </trkpt>
      <trkpt lat="46.61684" lon="5.83631">
        <ele>636</ele>
        <time>2017-09-07T10:08:10Z</time>
      </trkpt>
      <trkpt lat="46.61676" lon="5.83657">
        <ele>635</ele>
        <time>2017-09-07T10:08:26Z</time>
      </trkpt>
      <trkpt lat="46.61677" lon="5.83701">
        <ele>628</ele>
        <time>2017-09-07T10:08:50Z</time>
      </trkpt>
      <trkpt lat="46.61674" lon="5.83715">
        <ele>626</ele>
        <time>2017-09-07T10:09:01Z</time>
      </trkpt>
      <trkpt lat="46.61674" lon="5.83723">
        <ele>626</ele>
        <time>2017-09-07T10:09:05Z</time>
      </trkpt>
      <trkpt lat="46.61673" lon="5.83745">
        <ele>624</ele>
        <time>2017-09-07T10:09:19Z</time>
      </trkpt>
      <trkpt lat="46.61668" lon="5.83793">
        <ele>618</ele>
        <time>2017-09-07T10:09:56Z</time>
      </trkpt>
      <trkpt lat="46.61669" lon="5.83808">
        <ele>617</ele>
        <time>2017-09-07T10:10:06Z</time>
      </trkpt>
      <trkpt lat="46.61666" lon="5.8385">
        <ele>614</ele>
        <time>2017-09-07T10:10:32Z</time>
      </trkpt>
      <trkpt lat="46.61661" lon="5.83885">
        <ele>612</ele>
        <time>2017-09-07T10:11:01Z</time>
      </trkpt>
      <trkpt lat="46.61656" lon="5.83912">
        <ele>609</ele>
        <time>2017-09-07T10:11:20Z</time>
      </trkpt>
      <trkpt lat="46.61658" lon="5.83927">
        <ele>608</ele>
        <time>2017-09-07T10:11:28Z</time>
      </trkpt>
      <trkpt lat="46.61657" lon="5.8394">
        <ele>607</ele>
        <time>2017-09-07T10:11:39Z</time>
      </trkpt>
      <trkpt lat="46.61655" lon="5.83953">
        <ele>604</ele>
        <time>2017-09-07T10:11:49Z</time>
      </trkpt>
      <trkpt lat="46.61653" lon="5.83966">
        <ele>603</ele>
        <time>2017-09-07T10:12:00Z</time>
      </trkpt>
      <trkpt lat="46.61656" lon="5.84008">
        <ele>601</ele>
        <time>2017-09-07T10:12:25Z</time>
      </trkpt>
      <trkpt lat="46.61656" lon="5.84022">
        <ele>601</ele>
        <time>2017-09-07T10:12:33Z</time>
      </trkpt>
      <trkpt lat="46.61656" lon="5.84035">
        <ele>600</ele>
        <time>2017-09-07T10:12:42Z</time>
      </trkpt>
      <trkpt lat="46.61656" lon="5.84048">
        <ele>600</ele>
        <time>2017-09-07T10:12:48Z</time>
      </trkpt>
      <trkpt lat="46.61655" lon="5.84091">
        <ele>602</ele>
        <time>2017-09-07T10:13:15Z</time>
      </trkpt>
      <trkpt lat="46.61654" lon="5.84105">
        <ele>602</ele>
        <time>2017-09-07T10:13:24Z</time>
      </trkpt>
      <trkpt lat="46.61654" lon="5.8412">
        <ele>601</ele>
        <time>2017-09-07T10:13:34Z</time>
      </trkpt>
      <trkpt lat="46.61647" lon="5.84145">
        <ele>600</ele>
        <time>2017-09-07T10:13:55Z</time>
      </trkpt>
      <trkpt lat="46.61653" lon="5.84198">
        <ele>595</ele>
        <time>2017-09-07T10:14:24Z</time>
      </trkpt>
      <trkpt lat="46.61648" lon="5.84211">
        <ele>593</ele>
        <time>2017-09-07T10:14:33Z</time>
      </trkpt>
      <trkpt lat="46.61653" lon="5.84239">
        <ele>591</ele>
        <time>2017-09-07T10:14:47Z</time>
      </trkpt>
      <trkpt lat="46.6165" lon="5.84263">
        <ele>589</ele>
        <time>2017-09-07T10:15:29Z</time>
      </trkpt>
      <trkpt lat="46.61645" lon="5.84275">
        <ele>589</ele>
        <time>2017-09-07T10:15:39Z</time>
      </trkpt>
      <trkpt lat="46.61646" lon="5.84289">
        <ele>589</ele>
        <time>2017-09-07T10:15:47Z</time>
      </trkpt>
      <trkpt lat="46.61645" lon="5.84304">
        <ele>589</ele>
        <time>2017-09-07T10:15:53Z</time>
      </trkpt>
      <trkpt lat="46.61648" lon="5.84345">
        <ele>584</ele>
        <time>2017-09-07T10:16:22Z</time>
      </trkpt>
      <trkpt lat="46.61649" lon="5.84374">
        <ele>583</ele>
        <time>2017-09-07T10:16:37Z</time>
      </trkpt>
      <trkpt lat="46.6164" lon="5.84398">
        <ele>581</ele>
        <time>2017-09-07T10:16:55Z</time>
      </trkpt>
      <trkpt lat="46.61638" lon="5.84412">
        <ele>581</ele>
        <time>2017-09-07T10:17:04Z</time>
      </trkpt>
      <trkpt lat="46.61634" lon="5.84424">
        <ele>582</ele>
        <time>2017-09-07T10:17:14Z</time>
      </trkpt>
      <trkpt lat="46.61633" lon="5.84438">
        <ele>582</ele>
        <time>2017-09-07T10:17:26Z</time>
      </trkpt>
      <trkpt lat="46.61629" lon="5.8445">
        <ele>581</ele>
        <time>2017-09-07T10:17:36Z</time>
      </trkpt>
      <trkpt lat="46.61624" lon="5.84461">
        <ele>581</ele>
        <time>2017-09-07T10:17:43Z</time>
      </trkpt>
      <trkpt lat="46.61621" lon="5.84474">
        <ele>580</ele>
        <time>2017-09-07T10:17:51Z</time>
      </trkpt>
      <trkpt lat="46.61621" lon="5.84488">
        <ele>579</ele>
        <time>2017-09-07T10:18:00Z</time>
      </trkpt>
      <trkpt lat="46.61613" lon="5.84514">
        <ele>579</ele>
        <time>2017-09-07T10:18:20Z</time>
      </trkpt>
      <trkpt lat="46.6161" lon="5.84541">
        <ele>577</ele>
        <time>2017-09-07T10:18:34Z</time>
      </trkpt>
      <trkpt lat="46.616" lon="5.84552">
        <ele>576</ele>
        <time>2017-09-07T10:18:53Z</time>
      </trkpt>
      <trkpt lat="46.61595" lon="5.84563">
        <ele>576</ele>
        <time>2017-09-07T10:19:05Z</time>
      </trkpt>
      <trkpt lat="46.61594" lon="5.84577">
        <ele>575</ele>
        <time>2017-09-07T10:19:11Z</time>
      </trkpt>
      <trkpt lat="46.61589" lon="5.84589">
        <ele>573</ele>
        <time>2017-09-07T10:19:20Z</time>
      </trkpt>
      <trkpt lat="46.61585" lon="5.84603">
        <ele>573</ele>
        <time>2017-09-07T10:19:28Z</time>
      </trkpt>
      <trkpt lat="46.61576" lon="5.84628">
        <ele>570</ele>
        <time>2017-09-07T10:19:47Z</time>
      </trkpt>
      <trkpt lat="46.6157" lon="5.84637">
        <ele>569</ele>
        <time>2017-09-07T10:19:56Z</time>
      </trkpt>
      <trkpt lat="46.61566" lon="5.8465">
        <ele>568</ele>
        <time>2017-09-07T10:20:06Z</time>
      </trkpt>
      <trkpt lat="46.61558" lon="5.84658">
        <ele>566</ele>
        <time>2017-09-07T10:20:14Z</time>
      </trkpt>
      <trkpt lat="46.61551" lon="5.84683">
        <ele>563</ele>
        <time>2017-09-07T10:20:31Z</time>
      </trkpt>
      <trkpt lat="46.61543" lon="5.84691">
        <ele>563</ele>
        <time>2017-09-07T10:20:40Z</time>
      </trkpt>
      <trkpt lat="46.61535" lon="5.84698">
        <ele>562</ele>
        <time>2017-09-07T10:20:48Z</time>
      </trkpt>
      <trkpt lat="46.61522" lon="5.84719">
        <ele>558</ele>
        <time>2017-09-07T10:21:04Z</time>
      </trkpt>
      <trkpt lat="46.61518" lon="5.8473">
        <ele>557</ele>
        <time>2017-09-07T10:21:12Z</time>
      </trkpt>
      <trkpt lat="46.6151" lon="5.84738">
        <ele>555</ele>
        <time>2017-09-07T10:21:20Z</time>
      </trkpt>
      <trkpt lat="46.61497" lon="5.84774">
        <ele>551</ele>
        <time>2017-09-07T10:21:44Z</time>
      </trkpt>
      <trkpt lat="46.6149" lon="5.84783">
        <ele>550</ele>
        <time>2017-09-07T10:21:53Z</time>
      </trkpt>
      <trkpt lat="46.61485" lon="5.84796">
        <ele>549</ele>
        <time>2017-09-07T10:22:00Z</time>
      </trkpt>
      <trkpt lat="46.61477" lon="5.84803">
        <ele>546</ele>
        <time>2017-09-07T10:22:09Z</time>
      </trkpt>
      <trkpt lat="46.6147" lon="5.84813">
        <ele>545</ele>
        <time>2017-09-07T10:22:18Z</time>
      </trkpt>
      <trkpt lat="46.61461" lon="5.84816">
        <ele>544</ele>
        <time>2017-09-07T10:22:27Z</time>
      </trkpt>
      <trkpt lat="46.61454" lon="5.84823">
        <ele>544</ele>
        <time>2017-09-07T10:22:38Z</time>
      </trkpt>
      <trkpt lat="46.61446" lon="5.84832">
        <ele>543</ele>
        <time>2017-09-07T10:22:46Z</time>
      </trkpt>
      <trkpt lat="46.61428" lon="5.84839">
        <ele>542</ele>
        <time>2017-09-07T10:23:01Z</time>
      </trkpt>
      <trkpt lat="46.6142" lon="5.84848">
        <ele>541</ele>
        <time>2017-09-07T10:23:09Z</time>
      </trkpt>
      <trkpt lat="46.61416" lon="5.8486">
        <ele>540</ele>
        <time>2017-09-07T10:23:16Z</time>
      </trkpt>
      <trkpt lat="46.61409" lon="5.84869">
        <ele>539</ele>
        <time>2017-09-07T10:23:26Z</time>
      </trkpt>
      <trkpt lat="46.61404" lon="5.84882">
        <ele>538</ele>
        <time>2017-09-07T10:23:35Z</time>
      </trkpt>
      <trkpt lat="46.61403" lon="5.84895">
        <ele>538</ele>
        <time>2017-09-07T10:23:41Z</time>
      </trkpt>
      <trkpt lat="46.61401" lon="5.84908">
        <ele>537</ele>
        <time>2017-09-07T10:23:48Z</time>
      </trkpt>
      <trkpt lat="46.61391" lon="5.84908">
        <ele>536</ele>
        <time>2017-09-07T10:23:59Z</time>
      </trkpt>
      <trkpt lat="46.61382" lon="5.84913">
        <ele>536</ele>
        <time>2017-09-07T10:24:08Z</time>
      </trkpt>
      <trkpt lat="46.61373" lon="5.84914">
        <ele>535</ele>
        <time>2017-09-07T10:24:20Z</time>
      </trkpt>
      <trkpt lat="46.61369" lon="5.84933">
        <ele>529</ele>
        <time>2017-09-07T10:25:15Z</time>
      </trkpt>
      <trkpt lat="46.61364" lon="5.84933">
        <ele>529</ele>
        <time>2017-09-07T10:25:20Z</time>
      </trkpt>
      <trkpt lat="46.61358" lon="5.84944">
        <ele>526</ele>
        <time>2017-09-07T10:25:30Z</time>
      </trkpt>
      <trkpt lat="46.61357" lon="5.84952">
        <ele>525</ele>
        <time>2017-09-07T10:25:35Z</time>
      </trkpt>
      <trkpt lat="46.61353" lon="5.84954">
        <ele>525</ele>
        <time>2017-09-07T10:25:39Z</time>
      </trkpt>
      <trkpt lat="46.61349" lon="5.84959">
        <ele>525</ele>
        <time>2017-09-07T10:25:45Z</time>
      </trkpt>
      <trkpt lat="46.61347" lon="5.84966">
        <ele>525</ele>
        <time>2017-09-07T10:25:50Z</time>
      </trkpt>
      <trkpt lat="46.61345" lon="5.84972">
        <ele>525</ele>
        <time>2017-09-07T10:25:54Z</time>
      </trkpt>
      <trkpt lat="46.61341" lon="5.84977">
        <ele>524</ele>
        <time>2017-09-07T10:25:59Z</time>
      </trkpt>
      <trkpt lat="46.6134" lon="5.84984">
        <ele>524</ele>
        <time>2017-09-07T10:26:04Z</time>
      </trkpt>
      <trkpt lat="46.61339" lon="5.84999">
        <ele>523</ele>
        <time>2017-09-07T10:26:14Z</time>
      </trkpt>
      <trkpt lat="46.61334" lon="5.8502">
        <ele>523</ele>
        <time>2017-09-07T10:26:25Z</time>
      </trkpt>
      <trkpt lat="46.61329" lon="5.85047">
        <ele>525</ele>
        <time>2017-09-07T10:26:39Z</time>
      </trkpt>
      <trkpt lat="46.61321" lon="5.85072">
        <ele>525</ele>
        <time>2017-09-07T10:27:00Z</time>
      </trkpt>
      <trkpt lat="46.61318" lon="5.85086">
        <ele>526</ele>
        <time>2017-09-07T10:27:13Z</time>
      </trkpt>
      <trkpt lat="46.6132" lon="5.85128">
        <ele>526</ele>
        <time>2017-09-07T10:27:36Z</time>
      </trkpt>
      <trkpt lat="46.61328" lon="5.85152">
        <ele>527</ele>
        <time>2017-09-07T10:27:51Z</time>
      </trkpt>
      <trkpt lat="46.61341" lon="5.85174">
        <ele>528</ele>
        <time>2017-09-07T10:28:10Z</time>
      </trkpt>
      <trkpt lat="46.61346" lon="5.85186">
        <ele>531</ele>
        <time>2017-09-07T10:28:23Z</time>
      </trkpt>
      <trkpt lat="46.61351" lon="5.85197">
        <ele>532</ele>
        <time>2017-09-07T10:28:29Z</time>
      </trkpt>
      <trkpt lat="46.61365" lon="5.8524">
        <ele>536</ele>
        <time>2017-09-07T10:29:01Z</time>
      </trkpt>
      <trkpt lat="46.61377" lon="5.85278">
        <ele>543</ele>
        <time>2017-09-07T10:29:29Z</time>
      </trkpt>
      <trkpt lat="46.6138" lon="5.85282">
        <ele>543</ele>
        <time>2017-09-07T10:29:34Z</time>
      </trkpt>
      <trkpt lat="46.61379" lon="5.85291">
        <ele>543</ele>
        <time>2017-09-07T10:29:42Z</time>
      </trkpt>
      <trkpt lat="46.61382" lon="5.85297">
        <ele>544</ele>
        <time>2017-09-07T10:29:47Z</time>
      </trkpt>
      <trkpt lat="46.61384" lon="5.85303">
        <ele>545</ele>
        <time>2017-09-07T10:29:55Z</time>
      </trkpt>
      <trkpt lat="46.61383" lon="5.8531">
        <ele>546</ele>
        <time>2017-09-07T10:30:00Z</time>
      </trkpt>
      <trkpt lat="46.61384" lon="5.85324">
        <ele>547</ele>
        <time>2017-09-07T10:30:08Z</time>
      </trkpt>
      <trkpt lat="46.61389" lon="5.85351">
        <ele>549</ele>
        <time>2017-09-07T10:30:25Z</time>
      </trkpt>
      <trkpt lat="46.61388" lon="5.85365">
        <ele>551</ele>
        <time>2017-09-07T10:30:34Z</time>
      </trkpt>
      <trkpt lat="46.61388" lon="5.85392">
        <ele>552</ele>
        <time>2017-09-07T10:31:01Z</time>
      </trkpt>
      <trkpt lat="46.61393" lon="5.85404">
        <ele>552</ele>
        <time>2017-09-07T10:31:09Z</time>
      </trkpt>
      <trkpt lat="46.614" lon="5.85417">
        <ele>553</ele>
        <time>2017-09-07T10:31:35Z</time>
      </trkpt>
      <trkpt lat="46.61408" lon="5.85423">
        <ele>552</ele>
        <time>2017-09-07T10:31:49Z</time>
      </trkpt>
      <trkpt lat="46.61405" lon="5.8538">
        <ele>556</ele>
        <time>2017-09-07T10:38:23Z</time>
      </trkpt>
      <trkpt lat="46.61393" lon="5.85328">
        <ele>562</ele>
        <time>2017-09-07T10:38:59Z</time>
      </trkpt>
      <trkpt lat="46.61391" lon="5.85301">
        <ele>564</ele>
        <time>2017-09-07T10:39:16Z</time>
      </trkpt>
      <trkpt lat="46.61394" lon="5.85287">
        <ele>564</ele>
        <time>2017-09-07T10:39:27Z</time>
      </trkpt>
      <trkpt lat="46.61392" lon="5.85274">
        <ele>563</ele>
        <time>2017-09-07T10:39:35Z</time>
      </trkpt>
      <trkpt lat="46.61375" lon="5.85224">
        <ele>557</ele>
        <time>2017-09-07T10:40:12Z</time>
      </trkpt>
      <trkpt lat="46.61371" lon="5.8521">
        <ele>556</ele>
        <time>2017-09-07T10:40:23Z</time>
      </trkpt>
      <trkpt lat="46.61365" lon="5.85198">
        <ele>555</ele>
        <time>2017-09-07T10:40:30Z</time>
      </trkpt>
      <trkpt lat="46.61364" lon="5.85183">
        <ele>554</ele>
        <time>2017-09-07T10:40:38Z</time>
      </trkpt>
      <trkpt lat="46.61347" lon="5.85132">
        <ele>546</ele>
        <time>2017-09-07T10:41:13Z</time>
      </trkpt>
      <trkpt lat="46.61343" lon="5.85121">
        <ele>545</ele>
        <time>2017-09-07T10:41:22Z</time>
      </trkpt>
      <trkpt lat="46.61338" lon="5.85109">
        <ele>544</ele>
        <time>2017-09-07T10:42:21Z</time>
      </trkpt>
      <trkpt lat="46.61347" lon="5.85101">
        <ele>543</ele>
        <time>2017-09-07T10:42:30Z</time>
      </trkpt>
      <trkpt lat="46.61337" lon="5.85088">
        <ele>542</ele>
        <time>2017-09-07T10:42:57Z</time>
      </trkpt>
      <trkpt lat="46.61338" lon="5.85072">
        <ele>539</ele>
        <time>2017-09-07T10:43:15Z</time>
      </trkpt>
      <trkpt lat="46.61364" lon="5.85076">
        <ele>539</ele>
        <time>2017-09-07T10:43:28Z</time>
      </trkpt>
      <trkpt lat="46.61345" lon="5.85095">
        <ele>538</ele>
        <time>2017-09-07T10:43:50Z</time>
      </trkpt>
      <trkpt lat="46.61346" lon="5.85097">
        <ele>538</ele>
        <time>2017-09-07T10:44:46Z</time>
      </trkpt>
      <trkpt lat="46.61361" lon="5.85105">
        <ele>544</ele>
        <time>2017-09-07T10:45:01Z</time>
      </trkpt>
      <trkpt lat="46.61365" lon="5.85103">
        <ele>547</ele>
        <time>2017-09-07T10:45:14Z</time>
      </trkpt>
      <trkpt lat="46.61356" lon="5.85078">
        <ele>545</ele>
        <time>2017-09-07T10:45:29Z</time>
      </trkpt>
      <trkpt lat="46.61341" lon="5.8508">
        <ele>541</ele>
        <time>2017-09-07T10:45:54Z</time>
      </trkpt>
      <trkpt lat="46.61346" lon="5.8504">
        <ele>525</ele>
        <time>2017-09-07T11:27:28Z</time>
      </trkpt>
      <trkpt lat="46.61351" lon="5.85018">
        <ele>527</ele>
        <time>2017-09-07T11:27:51Z</time>
      </trkpt>
      <trkpt lat="46.61357" lon="5.85006">
        <ele>528</ele>
        <time>2017-09-07T11:28:00Z</time>
      </trkpt>
      <trkpt lat="46.6136" lon="5.84993">
        <ele>529</ele>
        <time>2017-09-07T11:28:11Z</time>
      </trkpt>
      <trkpt lat="46.61365" lon="5.84981">
        <ele>529</ele>
        <time>2017-09-07T11:28:19Z</time>
      </trkpt>
      <trkpt lat="46.61368" lon="5.84967">
        <ele>529</ele>
        <time>2017-09-07T11:28:30Z</time>
      </trkpt>
      <trkpt lat="46.61373" lon="5.84956">
        <ele>528</ele>
        <time>2017-09-07T11:28:41Z</time>
      </trkpt>
      <trkpt lat="46.61378" lon="5.84944">
        <ele>529</ele>
        <time>2017-09-07T11:28:53Z</time>
      </trkpt>
      <trkpt lat="46.61377" lon="5.8493">
        <ele>529</ele>
        <time>2017-09-07T11:29:31Z</time>
      </trkpt>
      <trkpt lat="46.6139" lon="5.84906">
        <ele>518</ele>
        <time>2017-09-07T11:33:41Z</time>
      </trkpt>
      <trkpt lat="46.61401" lon="5.84885">
        <ele>516</ele>
        <time>2017-09-07T11:33:58Z</time>
      </trkpt>
      <trkpt lat="46.61405" lon="5.84872">
        <ele>516</ele>
        <time>2017-09-07T11:34:06Z</time>
      </trkpt>
      <trkpt lat="46.61413" lon="5.84863">
        <ele>517</ele>
        <time>2017-09-07T11:34:15Z</time>
      </trkpt>
      <trkpt lat="46.61418" lon="5.84852">
        <ele>518</ele>
        <time>2017-09-07T11:34:25Z</time>
      </trkpt>
      <trkpt lat="46.61429" lon="5.84828">
        <ele>519</ele>
        <time>2017-09-07T11:34:39Z</time>
      </trkpt>
      <trkpt lat="46.61443" lon="5.84806">
        <ele>518</ele>
        <time>2017-09-07T11:34:54Z</time>
      </trkpt>
      <trkpt lat="46.61454" lon="5.84782">
        <ele>518</ele>
        <time>2017-09-07T11:35:08Z</time>
      </trkpt>
      <trkpt lat="46.61465" lon="5.84743">
        <ele>521</ele>
        <time>2017-09-07T11:35:30Z</time>
      </trkpt>
      <trkpt lat="46.61479" lon="5.84705">
        <ele>521</ele>
        <time>2017-09-07T11:35:51Z</time>
      </trkpt>
      <trkpt lat="46.6148" lon="5.84698">
        <ele>522</ele>
        <time>2017-09-07T11:35:55Z</time>
      </trkpt>
      <trkpt lat="46.61482" lon="5.84692">
        <ele>522</ele>
        <time>2017-09-07T11:35:59Z</time>
      </trkpt>
      <trkpt lat="46.61493" lon="5.84655">
        <ele>525</ele>
        <time>2017-09-07T11:36:21Z</time>
      </trkpt>
      <trkpt lat="46.61496" lon="5.84641">
        <ele>525</ele>
        <time>2017-09-07T11:36:31Z</time>
      </trkpt>
      <trkpt lat="46.61498" lon="5.84634">
        <ele>525</ele>
        <time>2017-09-07T11:36:35Z</time>
      </trkpt>
      <trkpt lat="46.61505" lon="5.84614">
        <ele>523</ele>
        <time>2017-09-07T11:36:47Z</time>
      </trkpt>
      <trkpt lat="46.61508" lon="5.84608">
        <ele>523</ele>
        <time>2017-09-07T11:36:51Z</time>
      </trkpt>
      <trkpt lat="46.61511" lon="5.84594">
        <ele>523</ele>
        <time>2017-09-07T11:37:00Z</time>
      </trkpt>
      <trkpt lat="46.61523" lon="5.84574">
        <ele>522</ele>
        <time>2017-09-07T11:37:13Z</time>
      </trkpt>
      <trkpt lat="46.61527" lon="5.84562">
        <ele>521</ele>
        <time>2017-09-07T11:37:20Z</time>
      </trkpt>
      <trkpt lat="46.61528" lon="5.84548">
        <ele>522</ele>
        <time>2017-09-07T11:37:27Z</time>
      </trkpt>
      <trkpt lat="46.61529" lon="5.84534">
        <ele>522</ele>
        <time>2017-09-07T11:37:34Z</time>
      </trkpt>
      <trkpt lat="46.61531" lon="5.84521">
        <ele>521</ele>
        <time>2017-09-07T11:37:42Z</time>
      </trkpt>
      <trkpt lat="46.61537" lon="5.84511">
        <ele>520</ele>
        <time>2017-09-07T11:37:56Z</time>
      </trkpt>
      <trkpt lat="46.61546" lon="5.84512">
        <ele>520</ele>
        <time>2017-09-07T11:38:05Z</time>
      </trkpt>
      <trkpt lat="46.61553" lon="5.84501">
        <ele>520</ele>
        <time>2017-09-07T11:38:12Z</time>
      </trkpt>
      <trkpt lat="46.6156" lon="5.84477">
        <ele>521</ele>
        <time>2017-09-07T11:38:25Z</time>
      </trkpt>
      <trkpt lat="46.61566" lon="5.84464">
        <ele>520</ele>
        <time>2017-09-07T11:38:32Z</time>
      </trkpt>
      <trkpt lat="46.61566" lon="5.8445">
        <ele>520</ele>
        <time>2017-09-07T11:38:39Z</time>
      </trkpt>
      <trkpt lat="46.61571" lon="5.84438">
        <ele>521</ele>
        <time>2017-09-07T11:38:46Z</time>
      </trkpt>
      <trkpt lat="46.61569" lon="5.84424">
        <ele>521</ele>
        <time>2017-09-07T11:38:54Z</time>
      </trkpt>
      <trkpt lat="46.61572" lon="5.84411">
        <ele>522</ele>
        <time>2017-09-07T11:39:03Z</time>
      </trkpt>
      <trkpt lat="46.61571" lon="5.84398">
        <ele>523</ele>
        <time>2017-09-07T11:39:10Z</time>
      </trkpt>
      <trkpt lat="46.61564" lon="5.84372">
        <ele>525</ele>
        <time>2017-09-07T11:39:24Z</time>
      </trkpt>
      <trkpt lat="46.61562" lon="5.84357">
        <ele>525</ele>
        <time>2017-09-07T11:39:31Z</time>
      </trkpt>
      <trkpt lat="46.61556" lon="5.84346">
        <ele>525</ele>
        <time>2017-09-07T11:39:38Z</time>
      </trkpt>
      <trkpt lat="46.61549" lon="5.8432">
        <ele>524</ele>
        <time>2017-09-07T11:39:54Z</time>
      </trkpt>
      <trkpt lat="46.61541" lon="5.84311">
        <ele>523</ele>
        <time>2017-09-07T11:40:00Z</time>
      </trkpt>
      <trkpt lat="46.61535" lon="5.84297">
        <ele>521</ele>
        <time>2017-09-07T11:40:08Z</time>
      </trkpt>
      <trkpt lat="46.61534" lon="5.84291">
        <ele>520</ele>
        <time>2017-09-07T11:40:12Z</time>
      </trkpt>
      <trkpt lat="46.61535" lon="5.84283">
        <ele>520</ele>
        <time>2017-09-07T11:40:16Z</time>
      </trkpt>
      <trkpt lat="46.61532" lon="5.84268">
        <ele>519</ele>
        <time>2017-09-07T11:40:25Z</time>
      </trkpt>
      <trkpt lat="46.61532" lon="5.84261">
        <ele>518</ele>
        <time>2017-09-07T11:40:29Z</time>
      </trkpt>
      <trkpt lat="46.61532" lon="5.84255">
        <ele>518</ele>
        <time>2017-09-07T11:40:33Z</time>
      </trkpt>
      <trkpt lat="46.61534" lon="5.84247">
        <ele>517</ele>
        <time>2017-09-07T11:40:37Z</time>
      </trkpt>
      <trkpt lat="46.61536" lon="5.84233">
        <ele>517</ele>
        <time>2017-09-07T11:40:46Z</time>
      </trkpt>
      <trkpt lat="46.61538" lon="5.84226">
        <ele>518</ele>
        <time>2017-09-07T11:40:51Z</time>
      </trkpt>
      <trkpt lat="46.61545" lon="5.84208">
        <ele>520</ele>
        <time>2017-09-07T11:41:07Z</time>
      </trkpt>
      <trkpt lat="46.61549" lon="5.84195">
        <ele>520</ele>
        <time>2017-09-07T11:41:16Z</time>
      </trkpt>
      <trkpt lat="46.61549" lon="5.84181">
        <ele>520</ele>
        <time>2017-09-07T11:41:24Z</time>
      </trkpt>
      <trkpt lat="46.61546" lon="5.84168">
        <ele>520</ele>
        <time>2017-09-07T11:41:30Z</time>
      </trkpt>
      <trkpt lat="46.61545" lon="5.84153">
        <ele>519</ele>
        <time>2017-09-07T11:41:37Z</time>
      </trkpt>
      <trkpt lat="46.61547" lon="5.84139">
        <ele>519</ele>
        <time>2017-09-07T11:41:45Z</time>
      </trkpt>
      <trkpt lat="46.61554" lon="5.84113">
        <ele>520</ele>
        <time>2017-09-07T11:42:04Z</time>
      </trkpt>
      <trkpt lat="46.61553" lon="5.84099">
        <ele>519</ele>
        <time>2017-09-07T11:42:11Z</time>
      </trkpt>
      <trkpt lat="46.6155" lon="5.84087">
        <ele>519</ele>
        <time>2017-09-07T11:42:17Z</time>
      </trkpt>
      <trkpt lat="46.61547" lon="5.84059">
        <ele>518</ele>
        <time>2017-09-07T11:42:31Z</time>
      </trkpt>
      <trkpt lat="46.61541" lon="5.84048">
        <ele>518</ele>
        <time>2017-09-07T11:42:37Z</time>
      </trkpt>
      <trkpt lat="46.61538" lon="5.84035">
        <ele>517</ele>
        <time>2017-09-07T11:42:44Z</time>
      </trkpt>
      <trkpt lat="46.61531" lon="5.84022">
        <ele>517</ele>
        <time>2017-09-07T11:42:50Z</time>
      </trkpt>
      <trkpt lat="46.61518" lon="5.83972">
        <ele>515</ele>
        <time>2017-09-07T11:43:21Z</time>
      </trkpt>
      <trkpt lat="46.61514" lon="5.83959">
        <ele>512</ele>
        <time>2017-09-07T11:43:30Z</time>
      </trkpt>
      <trkpt lat="46.61504" lon="5.83924">
        <ele>507</ele>
        <time>2017-09-07T11:43:56Z</time>
      </trkpt>
      <trkpt lat="46.61501" lon="5.8391">
        <ele>507</ele>
        <time>2017-09-07T11:44:05Z</time>
      </trkpt>
      <trkpt lat="46.61494" lon="5.83889">
        <ele>506</ele>
        <time>2017-09-07T11:44:20Z</time>
      </trkpt>
      <trkpt lat="46.61493" lon="5.83882">
        <ele>505</ele>
        <time>2017-09-07T11:44:24Z</time>
      </trkpt>
      <trkpt lat="46.61488" lon="5.83869">
        <ele>506</ele>
        <time>2017-09-07T11:44:32Z</time>
      </trkpt>
      <trkpt lat="46.61486" lon="5.83863">
        <ele>506</ele>
        <time>2017-09-07T11:44:36Z</time>
      </trkpt>
      <trkpt lat="46.61482" lon="5.83843">
        <ele>505</ele>
        <time>2017-09-07T11:44:49Z</time>
      </trkpt>
      <trkpt lat="46.6148" lon="5.83837">
        <ele>505</ele>
        <time>2017-09-07T11:44:53Z</time>
      </trkpt>
      <trkpt lat="46.61473" lon="5.8381">
        <ele>504</ele>
        <time>2017-09-07T11:45:10Z</time>
      </trkpt>
      <trkpt lat="46.61471" lon="5.8381">
        <ele>505</ele>
        <time>2017-09-07T11:45:35Z</time>
      </trkpt>
      <trkpt lat="46.61465" lon="5.83811">
        <ele>505</ele>
        <time>2017-09-07T11:45:51Z</time>
      </trkpt>
      <trkpt lat="46.61455" lon="5.83816">
        <ele>505</ele>
        <time>2017-09-07T11:46:00Z</time>
      </trkpt>
      <trkpt lat="46.61451" lon="5.83817">
        <ele>505</ele>
        <time>2017-09-07T11:46:05Z</time>
      </trkpt>
      <trkpt lat="46.61447" lon="5.8382">
        <ele>505</ele>
        <time>2017-09-07T11:46:11Z</time>
      </trkpt>
      <trkpt lat="46.61442" lon="5.8382">
        <ele>505</ele>
        <time>2017-09-07T11:46:16Z</time>
      </trkpt>
      <trkpt lat="46.61442" lon="5.83827">
        <ele>505</ele>
        <time>2017-09-07T11:46:21Z</time>
      </trkpt>
      <trkpt lat="46.61438" lon="5.8384">
        <ele>505</ele>
        <time>2017-09-07T11:46:30Z</time>
      </trkpt>
      <trkpt lat="46.61437" lon="5.83854">
        <ele>505</ele>
        <time>2017-09-07T11:46:45Z</time>
      </trkpt>
      <trkpt lat="46.6144" lon="5.83866">
        <ele>505</ele>
        <time>2017-09-07T11:47:00Z</time>
      </trkpt>
      <trkpt lat="46.61437" lon="5.83872">
        <ele>506</ele>
        <time>2017-09-07T11:47:09Z</time>
      </trkpt>
      <trkpt lat="46.61417" lon="5.8389">
        <ele>512</ele>
        <time>2017-09-07T11:47:39Z</time>
      </trkpt>
      <trkpt lat="46.61412" lon="5.83893">
        <ele>513</ele>
        <time>2017-09-07T11:47:43Z</time>
      </trkpt>
      <trkpt lat="46.61404" lon="5.83903">
        <ele>515</ele>
        <time>2017-09-07T11:47:52Z</time>
      </trkpt>
      <trkpt lat="46.61399" lon="5.83914">
        <ele>514</ele>
        <time>2017-09-07T11:48:00Z</time>
      </trkpt>
      <trkpt lat="46.61382" lon="5.83928">
        <ele>513</ele>
        <time>2017-09-07T11:48:18Z</time>
      </trkpt>
      <trkpt lat="46.61375" lon="5.83939">
        <ele>513</ele>
        <time>2017-09-07T11:48:26Z</time>
      </trkpt>
      <trkpt lat="46.61369" lon="5.83949">
        <ele>513</ele>
        <time>2017-09-07T11:48:32Z</time>
      </trkpt>
      <trkpt lat="46.61335" lon="5.83976">
        <ele>520</ele>
        <time>2017-09-07T11:49:09Z</time>
      </trkpt>
      <trkpt lat="46.61321" lon="5.83996">
        <ele>522</ele>
        <time>2017-09-07T11:49:23Z</time>
      </trkpt>
      <trkpt lat="46.61313" lon="5.84004">
        <ele>522</ele>
        <time>2017-09-07T11:49:29Z</time>
      </trkpt>
      <trkpt lat="46.61298" lon="5.84022">
        <ele>523</ele>
        <time>2017-09-07T11:49:56Z</time>
      </trkpt>
      <trkpt lat="46.6129" lon="5.84029">
        <ele>524</ele>
        <time>2017-09-07T11:50:06Z</time>
      </trkpt>
      <trkpt lat="46.6128" lon="5.84028">
        <ele>523</ele>
        <time>2017-09-07T11:50:14Z</time>
      </trkpt>
      <trkpt lat="46.61274" lon="5.84018">
        <ele>523</ele>
        <time>2017-09-07T11:50:23Z</time>
      </trkpt>
      <trkpt lat="46.6127" lon="5.84005">
        <ele>523</ele>
        <time>2017-09-07T11:50:32Z</time>
      </trkpt>
      <trkpt lat="46.61265" lon="5.83995">
        <ele>523</ele>
        <time>2017-09-07T11:50:41Z</time>
      </trkpt>
      <trkpt lat="46.61264" lon="5.83981">
        <ele>523</ele>
        <time>2017-09-07T11:50:50Z</time>
      </trkpt>
      <trkpt lat="46.61266" lon="5.83967">
        <ele>522</ele>
        <time>2017-09-07T11:50:57Z</time>
      </trkpt>
      <trkpt lat="46.61264" lon="5.83954">
        <ele>521</ele>
        <time>2017-09-07T11:51:04Z</time>
      </trkpt>
      <trkpt lat="46.61261" lon="5.8394">
        <ele>521</ele>
        <time>2017-09-07T11:51:13Z</time>
      </trkpt>
      <trkpt lat="46.61253" lon="5.83907">
        <ele>523</ele>
        <time>2017-09-07T11:51:30Z</time>
      </trkpt>
      <trkpt lat="46.61251" lon="5.83894">
        <ele>522</ele>
        <time>2017-09-07T11:51:38Z</time>
      </trkpt>
      <trkpt lat="46.61248" lon="5.8388">
        <ele>522</ele>
        <time>2017-09-07T11:51:46Z</time>
      </trkpt>
      <trkpt lat="46.61246" lon="5.83867">
        <ele>523</ele>
        <time>2017-09-07T11:51:54Z</time>
      </trkpt>
      <trkpt lat="46.61239" lon="5.83858">
        <ele>523</ele>
        <time>2017-09-07T11:52:01Z</time>
      </trkpt>
      <trkpt lat="46.61234" lon="5.83846">
        <ele>523</ele>
        <time>2017-09-07T11:52:10Z</time>
      </trkpt>
      <trkpt lat="46.61224" lon="5.83816">
        <ele>521</ele>
        <time>2017-09-07T11:52:35Z</time>
      </trkpt>
      <trkpt lat="46.61208" lon="5.8378">
        <ele>522</ele>
        <time>2017-09-07T11:53:01Z</time>
      </trkpt>
      <trkpt lat="46.61208" lon="5.83767">
        <ele>523</ele>
        <time>2017-09-07T11:53:09Z</time>
      </trkpt>
      <trkpt lat="46.61202" lon="5.83754">
        <ele>525</ele>
        <time>2017-09-07T11:53:19Z</time>
      </trkpt>
      <trkpt lat="46.61202" lon="5.8374">
        <ele>527</ele>
        <time>2017-09-07T11:53:27Z</time>
      </trkpt>
      <trkpt lat="46.61197" lon="5.83728">
        <ele>528</ele>
        <time>2017-09-07T11:53:36Z</time>
      </trkpt>
      <trkpt lat="46.61197" lon="5.83715">
        <ele>529</ele>
        <time>2017-09-07T11:53:46Z</time>
      </trkpt>
      <trkpt lat="46.61195" lon="5.83701">
        <ele>531</ele>
        <time>2017-09-07T11:53:55Z</time>
      </trkpt>
      <trkpt lat="46.61196" lon="5.83687">
        <ele>531</ele>
        <time>2017-09-07T11:54:05Z</time>
      </trkpt>
      <trkpt lat="46.61194" lon="5.83673">
        <ele>532</ele>
        <time>2017-09-07T11:54:14Z</time>
      </trkpt>
      <trkpt lat="46.61194" lon="5.83659">
        <ele>533</ele>
        <time>2017-09-07T11:54:23Z</time>
      </trkpt>
      <trkpt lat="46.61192" lon="5.83645">
        <ele>533</ele>
        <time>2017-09-07T11:54:31Z</time>
      </trkpt>
      <trkpt lat="46.61188" lon="5.83632">
        <ele>533</ele>
        <time>2017-09-07T11:54:38Z</time>
      </trkpt>
      <trkpt lat="46.61183" lon="5.8362">
        <ele>534</ele>
        <time>2017-09-07T11:54:46Z</time>
      </trkpt>
      <trkpt lat="46.61178" lon="5.83608">
        <ele>534</ele>
        <time>2017-09-07T11:54:53Z</time>
      </trkpt>
      <trkpt lat="46.6117" lon="5.83582">
        <ele>535</ele>
        <time>2017-09-07T11:55:10Z</time>
      </trkpt>
      <trkpt lat="46.61158" lon="5.83561">
        <ele>535</ele>
        <time>2017-09-07T11:55:30Z</time>
      </trkpt>
      <trkpt lat="46.6116" lon="5.83548">
        <ele>536</ele>
        <time>2017-09-07T11:55:45Z</time>
      </trkpt>
      <trkpt lat="46.61161" lon="5.83534">
        <ele>536</ele>
        <time>2017-09-07T11:55:53Z</time>
      </trkpt>
      <trkpt lat="46.61159" lon="5.8352">
        <ele>536</ele>
        <time>2017-09-07T11:56:03Z</time>
      </trkpt>
      <trkpt lat="46.61161" lon="5.83507">
        <ele>536</ele>
        <time>2017-09-07T11:56:09Z</time>
      </trkpt>
      <trkpt lat="46.61163" lon="5.83494">
        <ele>537</ele>
        <time>2017-09-07T11:56:16Z</time>
      </trkpt>
      <trkpt lat="46.61161" lon="5.83465">
        <ele>541</ele>
        <time>2017-09-07T11:56:39Z</time>
      </trkpt>
      <trkpt lat="46.61164" lon="5.83451">
        <ele>543</ele>
        <time>2017-09-07T11:56:47Z</time>
      </trkpt>
      <trkpt lat="46.61164" lon="5.83438">
        <ele>545</ele>
        <time>2017-09-07T11:56:55Z</time>
      </trkpt>
      <trkpt lat="46.61166" lon="5.83425">
        <ele>546</ele>
        <time>2017-09-07T11:57:04Z</time>
      </trkpt>
      <trkpt lat="46.61167" lon="5.83398">
        <ele>547</ele>
        <time>2017-09-07T11:57:20Z</time>
      </trkpt>
      <trkpt lat="46.61165" lon="5.83384">
        <ele>549</ele>
        <time>2017-09-07T11:57:30Z</time>
      </trkpt>
      <trkpt lat="46.61165" lon="5.8337">
        <ele>548</ele>
        <time>2017-09-07T11:57:38Z</time>
      </trkpt>
      <trkpt lat="46.61167" lon="5.83357">
        <ele>548</ele>
        <time>2017-09-07T11:57:47Z</time>
      </trkpt>
      <trkpt lat="46.61169" lon="5.83343">
        <ele>547</ele>
        <time>2017-09-07T11:57:55Z</time>
      </trkpt>
      <trkpt lat="46.61166" lon="5.8333">
        <ele>547</ele>
        <time>2017-09-07T11:58:01Z</time>
      </trkpt>
      <trkpt lat="46.61161" lon="5.83318">
        <ele>547</ele>
        <time>2017-09-07T11:58:09Z</time>
      </trkpt>
      <trkpt lat="46.61158" lon="5.83305">
        <ele>545</ele>
        <time>2017-09-07T11:58:18Z</time>
      </trkpt>
      <trkpt lat="46.61153" lon="5.83294">
        <ele>545</ele>
        <time>2017-09-07T11:58:30Z</time>
      </trkpt>
      <trkpt lat="46.61147" lon="5.83282">
        <ele>545</ele>
        <time>2017-09-07T11:58:40Z</time>
      </trkpt>
      <trkpt lat="46.61151" lon="5.83255">
        <ele>547</ele>
        <time>2017-09-07T11:59:02Z</time>
      </trkpt>
      <trkpt lat="46.61146" lon="5.83243">
        <ele>548</ele>
        <time>2017-09-07T11:59:08Z</time>
      </trkpt>
      <trkpt lat="46.61146" lon="5.83215">
        <ele>549</ele>
        <time>2017-09-07T11:59:27Z</time>
      </trkpt>
      <trkpt lat="46.61149" lon="5.83203">
        <ele>551</ele>
        <time>2017-09-07T11:59:36Z</time>
      </trkpt>
      <trkpt lat="46.61166" lon="5.83153">
        <ele>550</ele>
        <time>2017-09-07T12:00:13Z</time>
      </trkpt>
      <trkpt lat="46.6117" lon="5.83141">
        <ele>550</ele>
        <time>2017-09-07T12:00:20Z</time>
      </trkpt>
      <trkpt lat="46.61171" lon="5.83128">
        <ele>549</ele>
        <time>2017-09-07T12:00:30Z</time>
      </trkpt>
      <trkpt lat="46.61175" lon="5.83115">
        <ele>549</ele>
        <time>2017-09-07T12:00:37Z</time>
      </trkpt>
      <trkpt lat="46.61176" lon="5.83101">
        <ele>549</ele>
        <time>2017-09-07T12:00:47Z</time>
      </trkpt>
      <trkpt lat="46.61173" lon="5.83074">
        <ele>548</ele>
        <time>2017-09-07T12:01:04Z</time>
      </trkpt>
      <trkpt lat="46.61173" lon="5.8306">
        <ele>549</ele>
        <time>2017-09-07T12:01:13Z</time>
      </trkpt>
      <trkpt lat="46.61175" lon="5.83047">
        <ele>550</ele>
        <time>2017-09-07T12:01:20Z</time>
      </trkpt>
      <trkpt lat="46.61176" lon="5.83033">
        <ele>550</ele>
        <time>2017-09-07T12:01:30Z</time>
      </trkpt>
      <trkpt lat="46.61177" lon="5.83018">
        <ele>549</ele>
        <time>2017-09-07T12:01:37Z</time>
      </trkpt>
      <trkpt lat="46.61178" lon="5.83004">
        <ele>549</ele>
        <time>2017-09-07T12:01:46Z</time>
      </trkpt>
      <trkpt lat="46.61184" lon="5.82977">
        <ele>549</ele>
        <time>2017-09-07T12:02:04Z</time>
      </trkpt>
      <trkpt lat="46.61185" lon="5.82963">
        <ele>547</ele>
        <time>2017-09-07T12:02:10Z</time>
      </trkpt>
      <trkpt lat="46.61185" lon="5.8295">
        <ele>547</ele>
        <time>2017-09-07T12:02:19Z</time>
      </trkpt>
      <trkpt lat="46.61189" lon="5.82938">
        <ele>547</ele>
        <time>2017-09-07T12:02:29Z</time>
      </trkpt>
      <trkpt lat="46.61193" lon="5.82898">
        <ele>550</ele>
        <time>2017-09-07T12:02:53Z</time>
      </trkpt>
      <trkpt lat="46.61193" lon="5.8287">
        <ele>550</ele>
        <time>2017-09-07T12:03:10Z</time>
      </trkpt>
      <trkpt lat="46.61196" lon="5.82857">
        <ele>551</ele>
        <time>2017-09-07T12:03:18Z</time>
      </trkpt>
      <trkpt lat="46.61198" lon="5.82843">
        <ele>551</ele>
        <time>2017-09-07T12:03:28Z</time>
      </trkpt>
      <trkpt lat="46.612" lon="5.8283">
        <ele>551</ele>
        <time>2017-09-07T12:03:36Z</time>
      </trkpt>
      <trkpt lat="46.61202" lon="5.82816">
        <ele>551</ele>
        <time>2017-09-07T12:03:43Z</time>
      </trkpt>
      <trkpt lat="46.61201" lon="5.82776">
        <ele>549</ele>
        <time>2017-09-07T12:04:07Z</time>
      </trkpt>
      <trkpt lat="46.61206" lon="5.82763">
        <ele>550</ele>
        <time>2017-09-07T12:04:14Z</time>
      </trkpt>
      <trkpt lat="46.61209" lon="5.82728">
        <ele>555</ele>
        <time>2017-09-07T12:04:45Z</time>
      </trkpt>
      <trkpt lat="46.61217" lon="5.82721">
        <ele>555</ele>
        <time>2017-09-07T12:04:52Z</time>
      </trkpt>
      <trkpt lat="46.61223" lon="5.82709">
        <ele>556</ele>
        <time>2017-09-07T12:05:01Z</time>
      </trkpt>
      <trkpt lat="46.6123" lon="5.82668">
        <ele>559</ele>
        <time>2017-09-07T12:05:31Z</time>
      </trkpt>
      <trkpt lat="46.61232" lon="5.82654">
        <ele>562</ele>
        <time>2017-09-07T12:05:41Z</time>
      </trkpt>
      <trkpt lat="46.61232" lon="5.82626">
        <ele>562</ele>
        <time>2017-09-07T12:05:57Z</time>
      </trkpt>
      <trkpt lat="46.61231" lon="5.82612">
        <ele>563</ele>
        <time>2017-09-07T12:06:05Z</time>
      </trkpt>
      <trkpt lat="46.61234" lon="5.82598">
        <ele>563</ele>
        <time>2017-09-07T12:06:16Z</time>
      </trkpt>
      <trkpt lat="46.61239" lon="5.82587">
        <ele>565</ele>
        <time>2017-09-07T12:06:28Z</time>
      </trkpt>
      <trkpt lat="46.61242" lon="5.82573">
        <ele>569</ele>
        <time>2017-09-07T12:06:37Z</time>
      </trkpt>
      <trkpt lat="46.61249" lon="5.82564">
        <ele>569</ele>
        <time>2017-09-07T12:06:44Z</time>
      </trkpt>
      <trkpt lat="46.61253" lon="5.82551">
        <ele>570</ele>
        <time>2017-09-07T12:06:54Z</time>
      </trkpt>
      <trkpt lat="46.61267" lon="5.8253">
        <ele>572</ele>
        <time>2017-09-07T12:07:11Z</time>
      </trkpt>
      <trkpt lat="46.61278" lon="5.82492">
        <ele>567</ele>
        <time>2017-09-07T12:07:37Z</time>
      </trkpt>
      <trkpt lat="46.61281" lon="5.82479">
        <ele>567</ele>
        <time>2017-09-07T12:07:44Z</time>
      </trkpt>
      <trkpt lat="46.61284" lon="5.82465">
        <ele>568</ele>
        <time>2017-09-07T12:07:53Z</time>
      </trkpt>
      <trkpt lat="46.61289" lon="5.82453">
        <ele>568</ele>
        <time>2017-09-07T12:08:02Z</time>
      </trkpt>
      <trkpt lat="46.61297" lon="5.82427">
        <ele>567</ele>
        <time>2017-09-07T12:08:18Z</time>
      </trkpt>
      <trkpt lat="46.61322" lon="5.82383">
        <ele>566</ele>
        <time>2017-09-07T12:08:56Z</time>
      </trkpt>
      <trkpt lat="46.61327" lon="5.82372">
        <ele>565</ele>
        <time>2017-09-07T12:09:03Z</time>
      </trkpt>
      <trkpt lat="46.61334" lon="5.82362">
        <ele>564</ele>
        <time>2017-09-07T12:09:14Z</time>
      </trkpt>
      <trkpt lat="46.61343" lon="5.82355">
        <ele>563</ele>
        <time>2017-09-07T12:09:24Z</time>
      </trkpt>
      <trkpt lat="46.6136" lon="5.82321">
        <ele>560</ele>
        <time>2017-09-07T12:09:50Z</time>
      </trkpt>
      <trkpt lat="46.61374" lon="5.82304">
        <ele>558</ele>
        <time>2017-09-07T12:10:08Z</time>
      </trkpt>
      <trkpt lat="46.61382" lon="5.82298">
        <ele>555</ele>
        <time>2017-09-07T12:10:20Z</time>
      </trkpt>
      <trkpt lat="46.6139" lon="5.8229">
        <ele>555</ele>
        <time>2017-09-07T12:10:28Z</time>
      </trkpt>
      <trkpt lat="46.61399" lon="5.82288">
        <ele>555</ele>
        <time>2017-09-07T12:10:38Z</time>
      </trkpt>
      <trkpt lat="46.61415" lon="5.82269">
        <ele>555</ele>
        <time>2017-09-07T12:10:50Z</time>
      </trkpt>
      <trkpt lat="46.61422" lon="5.8226">
        <ele>554</ele>
        <time>2017-09-07T12:10:56Z</time>
      </trkpt>
      <trkpt lat="46.6143" lon="5.82254">
        <ele>553</ele>
        <time>2017-09-07T12:11:08Z</time>
      </trkpt>
      <trkpt lat="46.61436" lon="5.82245">
        <ele>553</ele>
        <time>2017-09-07T12:11:19Z</time>
      </trkpt>
      <trkpt lat="46.61446" lon="5.82236">
        <ele>551</ele>
        <time>2017-09-07T12:11:37Z</time>
      </trkpt>
      <trkpt lat="46.61475" lon="5.82227">
        <ele>548</ele>
        <time>2017-09-07T12:12:16Z</time>
      </trkpt>
      <trkpt lat="46.61509" lon="5.82201">
        <ele>546</ele>
        <time>2017-09-07T12:12:51Z</time>
      </trkpt>
      <trkpt lat="46.61537" lon="5.82192">
        <ele>547</ele>
        <time>2017-09-07T12:13:17Z</time>
      </trkpt>
      <trkpt lat="46.61546" lon="5.82187">
        <ele>547</ele>
        <time>2017-09-07T12:13:27Z</time>
      </trkpt>
      <trkpt lat="46.61554" lon="5.82178">
        <ele>547</ele>
        <time>2017-09-07T12:13:34Z</time>
      </trkpt>
      <trkpt lat="46.6156" lon="5.8217">
        <ele>545</ele>
        <time>2017-09-07T12:13:40Z</time>
      </trkpt>
      <trkpt lat="46.61569" lon="5.82163">
        <ele>545</ele>
        <time>2017-09-07T12:13:49Z</time>
      </trkpt>
      <trkpt lat="46.61584" lon="5.82145">
        <ele>545</ele>
        <time>2017-09-07T12:14:03Z</time>
      </trkpt>
      <trkpt lat="46.61593" lon="5.82139">
        <ele>545</ele>
        <time>2017-09-07T12:14:11Z</time>
      </trkpt>
      <trkpt lat="46.61602" lon="5.82133">
        <ele>545</ele>
        <time>2017-09-07T12:14:21Z</time>
      </trkpt>
      <trkpt lat="46.61609" lon="5.82126">
        <ele>544</ele>
        <time>2017-09-07T12:14:29Z</time>
      </trkpt>
      <trkpt lat="46.61618" lon="5.82119">
        <ele>544</ele>
        <time>2017-09-07T12:14:37Z</time>
      </trkpt>
      <trkpt lat="46.61644" lon="5.82101">
        <ele>546</ele>
        <time>2017-09-07T12:15:02Z</time>
      </trkpt>
      <trkpt lat="46.61656" lon="5.82082">
        <ele>547</ele>
        <time>2017-09-07T12:15:17Z</time>
      </trkpt>
      <trkpt lat="46.61668" lon="5.82069">
        <ele>547</ele>
        <time>2017-09-07T12:15:29Z</time>
      </trkpt>
      <trkpt lat="46.61671" lon="5.82063">
        <ele>546</ele>
        <time>2017-09-07T12:15:33Z</time>
      </trkpt>
      <trkpt lat="46.61675" lon="5.82059">
        <ele>546</ele>
        <time>2017-09-07T12:15:38Z</time>
      </trkpt>
      <trkpt lat="46.61679" lon="5.82055">
        <ele>545</ele>
        <time>2017-09-07T12:15:43Z</time>
      </trkpt>
      <trkpt lat="46.61697" lon="5.82037">
        <ele>542</ele>
        <time>2017-09-07T12:16:02Z</time>
      </trkpt>
      <trkpt lat="46.61707" lon="5.82031">
        <ele>542</ele>
        <time>2017-09-07T12:16:12Z</time>
      </trkpt>
      <trkpt lat="46.61712" lon="5.82028">
        <ele>543</ele>
        <time>2017-09-07T12:16:16Z</time>
      </trkpt>
      <trkpt lat="46.61716" lon="5.82027">
        <ele>543</ele>
        <time>2017-09-07T12:16:20Z</time>
      </trkpt>
      <trkpt lat="46.61729" lon="5.82013">
        <ele>542</ele>
        <time>2017-09-07T12:16:32Z</time>
      </trkpt>
      <trkpt lat="46.61738" lon="5.8201">
        <ele>541</ele>
        <time>2017-09-07T12:16:41Z</time>
      </trkpt>
      <trkpt lat="46.61773" lon="5.81989">
        <ele>541</ele>
        <time>2017-09-07T12:17:15Z</time>
      </trkpt>
      <trkpt lat="46.61782" lon="5.81986">
        <ele>541</ele>
        <time>2017-09-07T12:17:23Z</time>
      </trkpt>
      <trkpt lat="46.61792" lon="5.81983">
        <ele>541</ele>
        <time>2017-09-07T12:17:31Z</time>
      </trkpt>
      <trkpt lat="46.61807" lon="5.81968">
        <ele>538</ele>
        <time>2017-09-07T12:17:47Z</time>
      </trkpt>
      <trkpt lat="46.61812" lon="5.81967">
        <ele>537</ele>
        <time>2017-09-07T12:17:51Z</time>
      </trkpt>
      <trkpt lat="46.61816" lon="5.81963">
        <ele>537</ele>
        <time>2017-09-07T12:17:55Z</time>
      </trkpt>
      <trkpt lat="46.61826" lon="5.81953">
        <ele>537</ele>
        <time>2017-09-07T12:18:04Z</time>
      </trkpt>
      <trkpt lat="46.61831" lon="5.81953">
        <ele>537</ele>
        <time>2017-09-07T12:18:10Z</time>
      </trkpt>
      <trkpt lat="46.61843" lon="5.81936">
        <ele>535</ele>
        <time>2017-09-07T12:18:23Z</time>
      </trkpt>
      <trkpt lat="46.61848" lon="5.81932">
        <ele>534</ele>
        <time>2017-09-07T12:18:26Z</time>
      </trkpt>
      <trkpt lat="46.61854" lon="5.81921">
        <ele>533</ele>
        <time>2017-09-07T12:18:33Z</time>
      </trkpt>
      <trkpt lat="46.61867" lon="5.81909">
        <ele>533</ele>
        <time>2017-09-07T12:18:44Z</time>
      </trkpt>
      <trkpt lat="46.61876" lon="5.81904">
        <ele>532</ele>
        <time>2017-09-07T12:18:53Z</time>
      </trkpt>
      <trkpt lat="46.61885" lon="5.81901">
        <ele>531</ele>
        <time>2017-09-07T12:19:04Z</time>
      </trkpt>
      <trkpt lat="46.61904" lon="5.81889">
        <ele>525</ele>
        <time>2017-09-07T12:19:36Z</time>
      </trkpt>
      <trkpt lat="46.61913" lon="5.81883">
        <ele>524</ele>
        <time>2017-09-07T12:19:43Z</time>
      </trkpt>
      <trkpt lat="46.61921" lon="5.81889">
        <ele>522</ele>
        <time>2017-09-07T12:19:55Z</time>
      </trkpt>
      <trkpt lat="46.61926" lon="5.8189">
        <ele>519</ele>
        <time>2017-09-07T12:20:13Z</time>
      </trkpt>
      <trkpt lat="46.61935" lon="5.81885">
        <ele>516</ele>
        <time>2017-09-07T12:20:22Z</time>
      </trkpt>
      <trkpt lat="46.61951" lon="5.81868">
        <ele>510</ele>
        <time>2017-09-07T12:20:36Z</time>
      </trkpt>
      <trkpt lat="46.61955" lon="5.81866">
        <ele>509</ele>
        <time>2017-09-07T12:20:40Z</time>
      </trkpt>
      <trkpt lat="46.61959" lon="5.81861">
        <ele>508</ele>
        <time>2017-09-07T12:20:44Z</time>
      </trkpt>
      <trkpt lat="46.61985" lon="5.81841">
        <ele>508</ele>
        <time>2017-09-07T12:21:12Z</time>
      </trkpt>
      <trkpt lat="46.61998" lon="5.81832">
        <ele>510</ele>
        <time>2017-09-07T12:21:30Z</time>
      </trkpt>
      <trkpt lat="46.62007" lon="5.81827">
        <ele>510</ele>
        <time>2017-09-07T12:21:43Z</time>
      </trkpt>
      <trkpt lat="46.62012" lon="5.81824">
        <ele>510</ele>
        <time>2017-09-07T12:21:50Z</time>
      </trkpt>
      <trkpt lat="46.62017" lon="5.8182">
        <ele>510</ele>
        <time>2017-09-07T12:21:56Z</time>
      </trkpt>
      <trkpt lat="46.62024" lon="5.8181">
        <ele>509</ele>
        <time>2017-09-07T12:22:05Z</time>
      </trkpt>
      <trkpt lat="46.6203" lon="5.81773">
        <ele>507</ele>
        <time>2017-09-07T12:22:15Z</time>
      </trkpt>
      <trkpt lat="46.62023" lon="5.81792">
        <ele>507</ele>
        <time>2017-09-07T12:22:29Z</time>
      </trkpt>
      <trkpt lat="46.6203" lon="5.81801">
        <ele>506</ele>
        <time>2017-09-07T12:22:41Z</time>
      </trkpt>
      <trkpt lat="46.62035" lon="5.81788">
        <ele>505</ele>
        <time>2017-09-07T12:23:31Z</time>
      </trkpt>
      <trkpt lat="46.62039" lon="5.81766">
        <ele>506</ele>
        <time>2017-09-07T12:24:06Z</time>
      </trkpt>
      <trkpt lat="46.62048" lon="5.81763">
        <ele>507</ele>
        <time>2017-09-07T12:24:15Z</time>
      </trkpt>
      <trkpt lat="46.62053" lon="5.81749">
        <ele>507</ele>
        <time>2017-09-07T12:24:39Z</time>
      </trkpt>
      <trkpt lat="46.62063" lon="5.81747">
        <ele>507</ele>
        <time>2017-09-07T12:24:56Z</time>
      </trkpt>
      <trkpt lat="46.62066" lon="5.81762">
        <ele>504</ele>
        <time>2017-09-07T12:25:14Z</time>
      </trkpt>
      <trkpt lat="46.6206" lon="5.8176">
        <ele>503</ele>
        <time>2017-09-07T12:26:07Z</time>
      </trkpt>
      <trkpt lat="46.6206" lon="5.81753">
        <ele>502</ele>
        <time>2017-09-07T12:26:14Z</time>
      </trkpt>
      <trkpt lat="46.62063" lon="5.81744">
        <ele>503</ele>
        <time>2017-09-07T12:26:29Z</time>
      </trkpt>
      <trkpt lat="46.62067" lon="5.81735">
        <ele>504</ele>
        <time>2017-09-07T12:26:37Z</time>
      </trkpt>
      <trkpt lat="46.6207" lon="5.81729">
        <ele>504</ele>
        <time>2017-09-07T12:26:43Z</time>
      </trkpt>
      <trkpt lat="46.62074" lon="5.81725">
        <ele>504</ele>
        <time>2017-09-07T12:26:48Z</time>
      </trkpt>
      <trkpt lat="46.62079" lon="5.81714">
        <ele>505</ele>
        <time>2017-09-07T12:26:56Z</time>
      </trkpt>
      <trkpt lat="46.62082" lon="5.81709">
        <ele>505</ele>
        <time>2017-09-07T12:27:01Z</time>
      </trkpt>
      <trkpt lat="46.6209" lon="5.81697">
        <ele>504</ele>
        <time>2017-09-07T12:27:09Z</time>
      </trkpt>
      <trkpt lat="46.62095" lon="5.81697">
        <ele>505</ele>
        <time>2017-09-07T12:27:16Z</time>
      </trkpt>
      <trkpt lat="46.62098" lon="5.81691">
        <ele>505</ele>
        <time>2017-09-07T12:27:20Z</time>
      </trkpt>
      <trkpt lat="46.62101" lon="5.81685">
        <ele>505</ele>
        <time>2017-09-07T12:27:23Z</time>
      </trkpt>
      <trkpt lat="46.6212" lon="5.81675">
        <ele>508</ele>
        <time>2017-09-07T12:27:45Z</time>
      </trkpt>
      <trkpt lat="46.62124" lon="5.81671">
        <ele>508</ele>
        <time>2017-09-07T12:27:49Z</time>
      </trkpt>
      <trkpt lat="46.62127" lon="5.81665">
        <ele>508</ele>
        <time>2017-09-07T12:27:53Z</time>
      </trkpt>
      <trkpt lat="46.62131" lon="5.81661">
        <ele>508</ele>
        <time>2017-09-07T12:27:58Z</time>
      </trkpt>
      <trkpt lat="46.62153" lon="5.81617">
        <ele>510</ele>
        <time>2017-09-07T12:28:32Z</time>
      </trkpt>
      <trkpt lat="46.62159" lon="5.81606">
        <ele>510</ele>
        <time>2017-09-07T12:28:42Z</time>
      </trkpt>
      <trkpt lat="46.62174" lon="5.81591">
        <ele>511</ele>
        <time>2017-09-07T12:29:02Z</time>
      </trkpt>
      <trkpt lat="46.62179" lon="5.81579">
        <ele>512</ele>
        <time>2017-09-07T12:29:10Z</time>
      </trkpt>
      <trkpt lat="46.62187" lon="5.81572">
        <ele>512</ele>
        <time>2017-09-07T12:29:17Z</time>
      </trkpt>
      <trkpt lat="46.62203" lon="5.81554">
        <ele>509</ele>
        <time>2017-09-07T12:29:36Z</time>
      </trkpt>
      <trkpt lat="46.62209" lon="5.81543">
        <ele>508</ele>
        <time>2017-09-07T12:29:42Z</time>
      </trkpt>
      <trkpt lat="46.62216" lon="5.81534">
        <ele>508</ele>
        <time>2017-09-07T12:29:49Z</time>
      </trkpt>
      <trkpt lat="46.62224" lon="5.8153">
        <ele>509</ele>
        <time>2017-09-07T12:30:02Z</time>
      </trkpt>
      <trkpt lat="46.62229" lon="5.81518">
        <ele>509</ele>
        <time>2017-09-07T12:30:09Z</time>
      </trkpt>
      <trkpt lat="46.62235" lon="5.81507">
        <ele>509</ele>
        <time>2017-09-07T12:30:16Z</time>
      </trkpt>
      <trkpt lat="46.62251" lon="5.81472">
        <ele>508</ele>
        <time>2017-09-07T12:30:40Z</time>
      </trkpt>
      <trkpt lat="46.62258" lon="5.81463">
        <ele>507</ele>
        <time>2017-09-07T12:30:49Z</time>
      </trkpt>
      <trkpt lat="46.62266" lon="5.81455">
        <ele>507</ele>
        <time>2017-09-07T12:30:58Z</time>
      </trkpt>
      <trkpt lat="46.62279" lon="5.81433">
        <ele>507</ele>
        <time>2017-09-07T12:31:15Z</time>
      </trkpt>
      <trkpt lat="46.62286" lon="5.81424">
        <ele>508</ele>
        <time>2017-09-07T12:31:23Z</time>
      </trkpt>
      <trkpt lat="46.62294" lon="5.81416">
        <ele>508</ele>
        <time>2017-09-07T12:31:31Z</time>
      </trkpt>
      <trkpt lat="46.62299" lon="5.81404">
        <ele>508</ele>
        <time>2017-09-07T12:31:38Z</time>
      </trkpt>
      <trkpt lat="46.62306" lon="5.81394">
        <ele>509</ele>
        <time>2017-09-07T12:31:47Z</time>
      </trkpt>
      <trkpt lat="46.62322" lon="5.8137">
        <ele>507</ele>
        <time>2017-09-07T12:32:07Z</time>
      </trkpt>
      <trkpt lat="46.62337" lon="5.81351">
        <ele>505</ele>
        <time>2017-09-07T12:32:33Z</time>
      </trkpt>
      <trkpt lat="46.62345" lon="5.81344">
        <ele>505</ele>
        <time>2017-09-07T12:32:42Z</time>
      </trkpt>
      <trkpt lat="46.62351" lon="5.81334">
        <ele>504</ele>
        <time>2017-09-07T12:32:50Z</time>
      </trkpt>
      <trkpt lat="46.62365" lon="5.81313">
        <ele>503</ele>
        <time>2017-09-07T12:33:04Z</time>
      </trkpt>
      <trkpt lat="46.62382" lon="5.81299">
        <ele>501</ele>
        <time>2017-09-07T12:33:26Z</time>
      </trkpt>
      <trkpt lat="46.62398" lon="5.81285">
        <ele>502</ele>
        <time>2017-09-07T12:33:43Z</time>
      </trkpt>
      <trkpt lat="46.6241" lon="5.81264">
        <ele>502</ele>
        <time>2017-09-07T12:33:58Z</time>
      </trkpt>
      <trkpt lat="46.62418" lon="5.81255">
        <ele>502</ele>
        <time>2017-09-07T12:34:08Z</time>
      </trkpt>
      <trkpt lat="46.62427" lon="5.81251">
        <ele>502</ele>
        <time>2017-09-07T12:34:18Z</time>
      </trkpt>
      <trkpt lat="46.62434" lon="5.81241">
        <ele>501</ele>
        <time>2017-09-07T12:34:26Z</time>
      </trkpt>
      <trkpt lat="46.62457" lon="5.81216">
        <ele>502</ele>
        <time>2017-09-07T12:34:51Z</time>
      </trkpt>
      <trkpt lat="46.62463" lon="5.81204">
        <ele>502</ele>
        <time>2017-09-07T12:34:57Z</time>
      </trkpt>
      <trkpt lat="46.62472" lon="5.812">
        <ele>502</ele>
        <time>2017-09-07T12:35:06Z</time>
      </trkpt>
      <trkpt lat="46.62482" lon="5.81199">
        <ele>503</ele>
        <time>2017-09-07T12:35:16Z</time>
      </trkpt>
      <trkpt lat="46.62511" lon="5.81171">
        <ele>505</ele>
        <time>2017-09-07T12:35:49Z</time>
      </trkpt>
      <trkpt lat="46.62526" lon="5.81148">
        <ele>502</ele>
        <time>2017-09-07T12:36:06Z</time>
      </trkpt>
      <trkpt lat="46.62531" lon="5.81146">
        <ele>502</ele>
        <time>2017-09-07T12:36:11Z</time>
      </trkpt>
      <trkpt lat="46.62536" lon="5.81147">
        <ele>503</ele>
        <time>2017-09-07T12:36:16Z</time>
      </trkpt>
      <trkpt lat="46.62546" lon="5.81142">
        <ele>504</ele>
        <time>2017-09-07T12:36:26Z</time>
      </trkpt>
      <trkpt lat="46.6255" lon="5.81139">
        <ele>504</ele>
        <time>2017-09-07T12:36:30Z</time>
      </trkpt>
      <trkpt lat="46.62555" lon="5.81137">
        <ele>504</ele>
        <time>2017-09-07T12:36:35Z</time>
      </trkpt>
      <trkpt lat="46.62559" lon="5.81133">
        <ele>504</ele>
        <time>2017-09-07T12:36:39Z</time>
      </trkpt>
      <trkpt lat="46.62563" lon="5.81128">
        <ele>503</ele>
        <time>2017-09-07T12:36:43Z</time>
      </trkpt>
      <trkpt lat="46.62572" lon="5.81121">
        <ele>503</ele>
        <time>2017-09-07T12:36:52Z</time>
      </trkpt>
      <trkpt lat="46.62593" lon="5.81116">
        <ele>504</ele>
        <time>2017-09-07T12:37:11Z</time>
      </trkpt>
      <trkpt lat="46.62597" lon="5.81112">
        <ele>503</ele>
        <time>2017-09-07T12:37:15Z</time>
      </trkpt>
      <trkpt lat="46.62611" lon="5.81103">
        <ele>502</ele>
        <time>2017-09-07T12:37:28Z</time>
      </trkpt>
      <trkpt lat="46.62617" lon="5.81102">
        <ele>502</ele>
        <time>2017-09-07T12:37:33Z</time>
      </trkpt>
      <trkpt lat="46.62622" lon="5.811">
        <ele>502</ele>
        <time>2017-09-07T12:37:38Z</time>
      </trkpt>
      <trkpt lat="46.62626" lon="5.811">
        <ele>503</ele>
        <time>2017-09-07T12:37:41Z</time>
      </trkpt>
      <trkpt lat="46.62641" lon="5.81092">
        <ele>503</ele>
        <time>2017-09-07T12:37:56Z</time>
      </trkpt>
      <trkpt lat="46.62651" lon="5.81094">
        <ele>503</ele>
        <time>2017-09-07T12:38:07Z</time>
      </trkpt>
      <trkpt lat="46.62675" lon="5.81086">
        <ele>502</ele>
        <time>2017-09-07T12:38:30Z</time>
      </trkpt>
      <trkpt lat="46.62686" lon="5.81086">
        <ele>502</ele>
        <time>2017-09-07T12:38:38Z</time>
      </trkpt>
      <trkpt lat="46.62691" lon="5.81085">
        <ele>503</ele>
        <time>2017-09-07T12:38:42Z</time>
      </trkpt>
      <trkpt lat="46.62695" lon="5.81088">
        <ele>504</ele>
        <time>2017-09-07T12:38:47Z</time>
      </trkpt>
      <trkpt lat="46.62701" lon="5.8109">
        <ele>505</ele>
        <time>2017-09-07T12:38:52Z</time>
      </trkpt>
      <trkpt lat="46.62717" lon="5.8109">
        <ele>506</ele>
        <time>2017-09-07T12:39:06Z</time>
      </trkpt>
      <trkpt lat="46.62722" lon="5.81091">
        <ele>507</ele>
        <time>2017-09-07T12:39:10Z</time>
      </trkpt>
      <trkpt lat="46.62726" lon="5.8109">
        <ele>507</ele>
        <time>2017-09-07T12:39:16Z</time>
      </trkpt>
      <trkpt lat="46.62731" lon="5.8109">
        <ele>508</ele>
        <time>2017-09-07T12:39:22Z</time>
      </trkpt>
      <trkpt lat="46.62736" lon="5.81092">
        <ele>508</ele>
        <time>2017-09-07T12:39:28Z</time>
      </trkpt>
      <trkpt lat="46.62741" lon="5.81092">
        <ele>508</ele>
        <time>2017-09-07T12:39:33Z</time>
      </trkpt>
      <trkpt lat="46.62752" lon="5.81092">
        <ele>506</ele>
        <time>2017-09-07T12:39:41Z</time>
      </trkpt>
      <trkpt lat="46.62757" lon="5.81093">
        <ele>505</ele>
        <time>2017-09-07T12:39:45Z</time>
      </trkpt>
      <trkpt lat="46.62762" lon="5.81097">
        <ele>506</ele>
        <time>2017-09-07T12:39:53Z</time>
      </trkpt>
      <trkpt lat="46.62768" lon="5.81108">
        <ele>507</ele>
        <time>2017-09-07T12:40:11Z</time>
      </trkpt>
      <trkpt lat="46.62771" lon="5.81102">
        <ele>509</ele>
        <time>2017-09-07T12:40:38Z</time>
      </trkpt>
      <trkpt lat="46.62776" lon="5.81105">
        <ele>510</ele>
        <time>2017-09-07T12:40:43Z</time>
      </trkpt>
      <trkpt lat="46.62781" lon="5.81105">
        <ele>511</ele>
        <time>2017-09-07T12:40:48Z</time>
      </trkpt>
      <trkpt lat="46.62786" lon="5.81103">
        <ele>510</ele>
        <time>2017-09-07T12:40:54Z</time>
      </trkpt>
      <trkpt lat="46.62791" lon="5.81105">
        <ele>510</ele>
        <time>2017-09-07T12:40:59Z</time>
      </trkpt>
      <trkpt lat="46.62794" lon="5.8111">
        <ele>510</ele>
        <time>2017-09-07T12:41:03Z</time>
      </trkpt>
      <trkpt lat="46.62803" lon="5.81119">
        <ele>510</ele>
        <time>2017-09-07T12:41:12Z</time>
      </trkpt>
      <trkpt lat="46.62806" lon="5.81123">
        <ele>510</ele>
        <time>2017-09-07T12:41:19Z</time>
      </trkpt>
      <trkpt lat="46.62811" lon="5.81123">
        <ele>511</ele>
        <time>2017-09-07T12:41:25Z</time>
      </trkpt>
      <trkpt lat="46.62843" lon="5.81139">
        <ele>511</ele>
        <time>2017-09-07T12:41:59Z</time>
      </trkpt>
      <trkpt lat="46.6287" lon="5.81155">
        <ele>509</ele>
        <time>2017-09-07T12:42:23Z</time>
      </trkpt>
      <trkpt lat="46.62887" lon="5.81164">
        <ele>510</ele>
        <time>2017-09-07T12:42:37Z</time>
      </trkpt>
      <trkpt lat="46.62902" lon="5.8118">
        <ele>511</ele>
        <time>2017-09-07T12:42:53Z</time>
      </trkpt>
      <trkpt lat="46.62926" lon="5.81196">
        <ele>508</ele>
        <time>2017-09-07T12:43:17Z</time>
      </trkpt>
      <trkpt lat="46.62937" lon="5.81199">
        <ele>507</ele>
        <time>2017-09-07T12:43:29Z</time>
      </trkpt>
      <trkpt lat="46.62976" lon="5.81218">
        <ele>508</ele>
        <time>2017-09-07T12:44:03Z</time>
      </trkpt>
      <trkpt lat="46.62981" lon="5.81219">
        <ele>507</ele>
        <time>2017-09-07T12:44:06Z</time>
      </trkpt>
      <trkpt lat="46.62985" lon="5.81221">
        <ele>508</ele>
        <time>2017-09-07T12:44:10Z</time>
      </trkpt>
      <trkpt lat="46.6299" lon="5.81224">
        <ele>507</ele>
        <time>2017-09-07T12:44:14Z</time>
      </trkpt>
      <trkpt lat="46.62999" lon="5.81229">
        <ele>508</ele>
        <time>2017-09-07T12:44:23Z</time>
      </trkpt>
      <trkpt lat="46.63005" lon="5.8123">
        <ele>508</ele>
        <time>2017-09-07T12:44:28Z</time>
      </trkpt>
      <trkpt lat="46.63009" lon="5.81232">
        <ele>507</ele>
        <time>2017-09-07T12:44:35Z</time>
      </trkpt>
      <trkpt lat="46.63018" lon="5.81234">
        <ele>506</ele>
        <time>2017-09-07T12:44:43Z</time>
      </trkpt>
      <trkpt lat="46.63029" lon="5.81238">
        <ele>507</ele>
        <time>2017-09-07T12:44:53Z</time>
      </trkpt>
      <trkpt lat="46.6304" lon="5.81236">
        <ele>505</ele>
        <time>2017-09-07T12:45:01Z</time>
      </trkpt>
      <trkpt lat="46.63045" lon="5.8124">
        <ele>504</ele>
        <time>2017-09-07T12:45:06Z</time>
      </trkpt>
      <trkpt lat="46.6305" lon="5.81243">
        <ele>504</ele>
        <time>2017-09-07T12:45:11Z</time>
      </trkpt>
      <trkpt lat="46.63056" lon="5.81243">
        <ele>504</ele>
        <time>2017-09-07T12:45:15Z</time>
      </trkpt>
      <trkpt lat="46.63079" lon="5.81244">
        <ele>503</ele>
        <time>2017-09-07T12:45:42Z</time>
      </trkpt>
      <trkpt lat="46.63083" lon="5.81249">
        <ele>503</ele>
        <time>2017-09-07T12:45:48Z</time>
      </trkpt>
      <trkpt lat="46.63089" lon="5.8124">
        <ele>502</ele>
        <time>2017-09-07T12:46:01Z</time>
      </trkpt>
      <trkpt lat="46.63106" lon="5.81247">
        <ele>501</ele>
        <time>2017-09-07T12:47:41Z</time>
      </trkpt>
      <trkpt lat="46.63116" lon="5.81251">
        <ele>501</ele>
        <time>2017-09-07T12:47:51Z</time>
      </trkpt>
      <trkpt lat="46.63121" lon="5.81252">
        <ele>501</ele>
        <time>2017-09-07T12:47:56Z</time>
      </trkpt>
      <trkpt lat="46.63126" lon="5.81251">
        <ele>501</ele>
        <time>2017-09-07T12:48:00Z</time>
      </trkpt>
      <trkpt lat="46.63131" lon="5.8125">
        <ele>502</ele>
        <time>2017-09-07T12:48:04Z</time>
      </trkpt>
      <trkpt lat="46.63135" lon="5.81248">
        <ele>502</ele>
        <time>2017-09-07T12:48:08Z</time>
      </trkpt>
      <trkpt lat="46.63141" lon="5.81248">
        <ele>502</ele>
        <time>2017-09-07T12:48:12Z</time>
      </trkpt>
      <trkpt lat="46.63146" lon="5.8125">
        <ele>501</ele>
        <time>2017-09-07T12:48:17Z</time>
      </trkpt>
      <trkpt lat="46.6314" lon="5.81258">
        <ele>501</ele>
        <time>2017-09-07T12:48:35Z</time>
      </trkpt>
      <trkpt lat="46.6314" lon="5.81265">
        <ele>502</ele>
        <time>2017-09-07T12:48:43Z</time>
      </trkpt>
      <trkpt lat="46.63144" lon="5.81271">
        <ele>500</ele>
        <time>2017-09-07T12:49:52Z</time>
      </trkpt>
      <trkpt lat="46.63149" lon="5.8127">
        <ele>498</ele>
        <time>2017-09-07T12:50:18Z</time>
      </trkpt>
      <trkpt lat="46.6315" lon="5.81276">
        <ele>503</ele>
        <time>2017-09-07T12:52:00Z</time>
      </trkpt>
      <trkpt lat="46.63149" lon="5.8127">
        <ele>505</ele>
        <time>2017-09-07T12:53:43Z</time>
      </trkpt>
      <trkpt lat="46.6315" lon="5.81263">
        <ele>505</ele>
        <time>2017-09-07T12:53:48Z</time>
      </trkpt>
      <trkpt lat="46.63151" lon="5.81254">
        <ele>503</ele>
        <time>2017-09-07T12:54:03Z</time>
      </trkpt>
      <trkpt lat="46.63154" lon="5.81248">
        <ele>502</ele>
        <time>2017-09-07T12:54:08Z</time>
      </trkpt>
      <trkpt lat="46.63158" lon="5.81245">
        <ele>501</ele>
        <time>2017-09-07T12:54:16Z</time>
      </trkpt>
      <trkpt lat="46.63163" lon="5.81244">
        <ele>501</ele>
        <time>2017-09-07T12:54:21Z</time>
      </trkpt>
      <trkpt lat="46.63168" lon="5.81245">
        <ele>501</ele>
        <time>2017-09-07T12:54:27Z</time>
      </trkpt>
      <trkpt lat="46.63193" lon="5.81242">
        <ele>504</ele>
        <time>2017-09-07T12:54:52Z</time>
      </trkpt>
      <trkpt lat="46.63198" lon="5.81244">
        <ele>504</ele>
        <time>2017-09-07T12:54:56Z</time>
      </trkpt>
      <trkpt lat="46.63203" lon="5.81243">
        <ele>505</ele>
        <time>2017-09-07T12:55:01Z</time>
      </trkpt>
      <trkpt lat="46.63207" lon="5.81244">
        <ele>505</ele>
        <time>2017-09-07T12:55:06Z</time>
      </trkpt>
      <trkpt lat="46.63212" lon="5.81244">
        <ele>504</ele>
        <time>2017-09-07T12:55:10Z</time>
      </trkpt>
      <trkpt lat="46.63217" lon="5.81246">
        <ele>504</ele>
        <time>2017-09-07T12:55:17Z</time>
      </trkpt>
      <trkpt lat="46.63222" lon="5.81244">
        <ele>505</ele>
        <time>2017-09-07T12:55:22Z</time>
      </trkpt>
      <trkpt lat="46.63226" lon="5.81245">
        <ele>505</ele>
        <time>2017-09-07T12:55:26Z</time>
      </trkpt>
      <trkpt lat="46.63253" lon="5.81245">
        <ele>509</ele>
        <time>2017-09-07T12:55:46Z</time>
      </trkpt>
      <trkpt lat="46.63293" lon="5.8123">
        <ele>509</ele>
        <time>2017-09-07T12:56:17Z</time>
      </trkpt>
      <trkpt lat="46.63303" lon="5.81228">
        <ele>509</ele>
        <time>2017-09-07T12:56:25Z</time>
      </trkpt>
      <trkpt lat="46.63329" lon="5.81229">
        <ele>511</ele>
        <time>2017-09-07T12:56:47Z</time>
      </trkpt>
      <trkpt lat="46.6336" lon="5.8122">
        <ele>511</ele>
        <time>2017-09-07T12:57:11Z</time>
      </trkpt>
      <trkpt lat="46.63365" lon="5.81217">
        <ele>511</ele>
        <time>2017-09-07T12:57:15Z</time>
      </trkpt>
      <trkpt lat="46.6337" lon="5.81214">
        <ele>511</ele>
        <time>2017-09-07T12:57:20Z</time>
      </trkpt>
      <trkpt lat="46.63375" lon="5.81204">
        <ele>508</ele>
        <time>2017-09-07T12:57:27Z</time>
      </trkpt>
      <trkpt lat="46.63384" lon="5.81196">
        <ele>505</ele>
        <time>2017-09-07T12:57:37Z</time>
      </trkpt>
      <trkpt lat="46.63387" lon="5.8119">
        <ele>505</ele>
        <time>2017-09-07T12:57:41Z</time>
      </trkpt>
      <trkpt lat="46.63388" lon="5.81184">
        <ele>505</ele>
        <time>2017-09-07T12:57:45Z</time>
      </trkpt>
      <trkpt lat="46.63387" lon="5.81183">
        <ele>504</ele>
        <time>2017-09-07T12:58:11Z</time>
      </trkpt>
      <trkpt lat="46.63385" lon="5.81189">
        <ele>504</ele>
        <time>2017-09-07T12:58:18Z</time>
      </trkpt>
      <trkpt lat="46.63387" lon="5.81195">
        <ele>504</ele>
        <time>2017-09-07T12:58:26Z</time>
      </trkpt>
      <trkpt lat="46.63386" lon="5.81202">
        <ele>504</ele>
        <time>2017-09-07T12:58:34Z</time>
      </trkpt>
      <trkpt lat="46.6339" lon="5.8121">
        <ele>506</ele>
        <time>2017-09-07T12:58:54Z</time>
      </trkpt>
      <trkpt lat="46.63392" lon="5.81206">
        <ele>505</ele>
        <time>2017-09-07T13:01:46Z</time>
      </trkpt>
      <trkpt lat="46.63391" lon="5.81197">
        <ele>505</ele>
        <time>2017-09-07T13:01:54Z</time>
      </trkpt>
      <trkpt lat="46.63388" lon="5.81174">
        <ele>500</ele>
        <time>2017-09-07T13:02:07Z</time>
      </trkpt>
      <trkpt lat="46.63385" lon="5.81168">
        <ele>501</ele>
        <time>2017-09-07T13:02:11Z</time>
      </trkpt>
      <trkpt lat="46.63383" lon="5.81161">
        <ele>502</ele>
        <time>2017-09-07T13:02:14Z</time>
      </trkpt>
      <trkpt lat="46.63377" lon="5.81141">
        <ele>505</ele>
        <time>2017-09-07T13:02:26Z</time>
      </trkpt>
      <trkpt lat="46.63374" lon="5.81134">
        <ele>505</ele>
        <time>2017-09-07T13:02:30Z</time>
      </trkpt>
      <trkpt lat="46.63372" lon="5.81127">
        <ele>505</ele>
        <time>2017-09-07T13:02:34Z</time>
      </trkpt>
      <trkpt lat="46.63372" lon="5.81119">
        <ele>505</ele>
        <time>2017-09-07T13:02:39Z</time>
      </trkpt>
      <trkpt lat="46.63374" lon="5.81112">
        <ele>505</ele>
        <time>2017-09-07T13:02:44Z</time>
      </trkpt>
      <trkpt lat="46.63381" lon="5.81093">
        <ele>504</ele>
        <time>2017-09-07T13:03:00Z</time>
      </trkpt>
      <trkpt lat="46.63391" lon="5.81068">
        <ele>506</ele>
        <time>2017-09-07T13:03:15Z</time>
      </trkpt>
      <trkpt lat="46.63396" lon="5.81034">
        <ele>504</ele>
        <time>2017-09-07T13:03:27Z</time>
      </trkpt>
      <trkpt lat="46.63402" lon="5.81023">
        <ele>504</ele>
        <time>2017-09-07T13:03:36Z</time>
      </trkpt>
      <trkpt lat="46.6341" lon="5.81016">
        <ele>504</ele>
        <time>2017-09-07T13:03:47Z</time>
      </trkpt>
      <trkpt lat="46.63416" lon="5.81006">
        <ele>504</ele>
        <time>2017-09-07T13:03:57Z</time>
      </trkpt>
      <trkpt lat="46.6342" lon="5.80993">
        <ele>502</ele>
        <time>2017-09-07T13:04:03Z</time>
      </trkpt>
      <trkpt lat="46.63427" lon="5.80967">
        <ele>503</ele>
        <time>2017-09-07T13:04:18Z</time>
      </trkpt>
      <trkpt lat="46.63433" lon="5.80956">
        <ele>504</ele>
        <time>2017-09-07T13:04:26Z</time>
      </trkpt>
      <trkpt lat="46.6344" lon="5.80946">
        <ele>503</ele>
        <time>2017-09-07T13:04:34Z</time>
      </trkpt>
      <trkpt lat="46.63447" lon="5.80919">
        <ele>503</ele>
        <time>2017-09-07T13:04:47Z</time>
      </trkpt>
      <trkpt lat="46.63456" lon="5.80895">
        <ele>503</ele>
        <time>2017-09-07T13:05:03Z</time>
      </trkpt>
      <trkpt lat="46.63461" lon="5.80869">
        <ele>504</ele>
        <time>2017-09-07T13:05:18Z</time>
      </trkpt>
      <trkpt lat="46.63467" lon="5.80858">
        <ele>504</ele>
        <time>2017-09-07T13:05:28Z</time>
      </trkpt>
      <trkpt lat="46.6347" lon="5.80845">
        <ele>504</ele>
        <time>2017-09-07T13:05:36Z</time>
      </trkpt>
      <trkpt lat="46.63476" lon="5.80833">
        <ele>504</ele>
        <time>2017-09-07T13:05:45Z</time>
      </trkpt>
      <trkpt lat="46.63481" lon="5.80822">
        <ele>502</ele>
        <time>2017-09-07T13:05:51Z</time>
      </trkpt>
      <trkpt lat="46.63486" lon="5.80811">
        <ele>503</ele>
        <time>2017-09-07T13:05:59Z</time>
      </trkpt>
      <trkpt lat="46.63489" lon="5.80798">
        <ele>504</ele>
        <time>2017-09-07T13:06:08Z</time>
      </trkpt>
      <trkpt lat="46.63493" lon="5.80785">
        <ele>504</ele>
        <time>2017-09-07T13:06:17Z</time>
      </trkpt>
      <trkpt lat="46.63494" lon="5.80771">
        <ele>505</ele>
        <time>2017-09-07T13:06:24Z</time>
      </trkpt>
      <trkpt lat="46.63493" lon="5.80757">
        <ele>505</ele>
        <time>2017-09-07T13:06:32Z</time>
      </trkpt>
      <trkpt lat="46.63486" lon="5.80731">
        <ele>505</ele>
        <time>2017-09-07T13:06:46Z</time>
      </trkpt>
      <trkpt lat="46.63486" lon="5.80713">
        <ele>505</ele>
        <time>2017-09-07T13:07:09Z</time>
      </trkpt>
      <trkpt lat="46.63485" lon="5.80699">
        <ele>506</ele>
        <time>2017-09-07T13:07:19Z</time>
      </trkpt>
      <trkpt lat="46.63489" lon="5.80685">
        <ele>507</ele>
        <time>2017-09-07T13:07:28Z</time>
      </trkpt>
      <trkpt lat="46.63511" lon="5.80659">
        <ele>513</ele>
        <time>2017-09-07T13:07:58Z</time>
      </trkpt>
      <trkpt lat="46.63527" lon="5.80646">
        <ele>516</ele>
        <time>2017-09-07T13:08:11Z</time>
      </trkpt>
      <trkpt lat="46.6354" lon="5.80623">
        <ele>517</ele>
        <time>2017-09-07T13:08:25Z</time>
      </trkpt>
      <trkpt lat="46.63547" lon="5.80615">
        <ele>517</ele>
        <time>2017-09-07T13:08:31Z</time>
      </trkpt>
      <trkpt lat="46.63572" lon="5.80573">
        <ele>521</ele>
        <time>2017-09-07T13:09:03Z</time>
      </trkpt>
      <trkpt lat="46.6358" lon="5.80566">
        <ele>522</ele>
        <time>2017-09-07T13:09:15Z</time>
      </trkpt>
      <trkpt lat="46.6359" lon="5.80561">
        <ele>522</ele>
        <time>2017-09-07T13:09:27Z</time>
      </trkpt>
      <trkpt lat="46.63597" lon="5.80552">
        <ele>522</ele>
        <time>2017-09-07T13:09:37Z</time>
      </trkpt>
      <trkpt lat="46.63606" lon="5.80547">
        <ele>522</ele>
        <time>2017-09-07T13:09:46Z</time>
      </trkpt>
      <trkpt lat="46.63615" lon="5.80544">
        <ele>523</ele>
        <time>2017-09-07T13:09:56Z</time>
      </trkpt>
      <trkpt lat="46.63624" lon="5.80537">
        <ele>524</ele>
        <time>2017-09-07T13:10:05Z</time>
      </trkpt>
      <trkpt lat="46.63632" lon="5.80529">
        <ele>524</ele>
        <time>2017-09-07T13:10:12Z</time>
      </trkpt>
      <trkpt lat="46.63661" lon="5.80493">
        <ele>516</ele>
        <time>2017-09-07T13:10:44Z</time>
      </trkpt>
      <trkpt lat="46.63684" lon="5.80466">
        <ele>514</ele>
        <time>2017-09-07T13:11:10Z</time>
      </trkpt>
      <trkpt lat="46.6369" lon="5.80456">
        <ele>514</ele>
        <time>2017-09-07T13:11:17Z</time>
      </trkpt>
      <trkpt lat="46.63696" lon="5.80445">
        <ele>514</ele>
        <time>2017-09-07T13:11:23Z</time>
      </trkpt>
      <trkpt lat="46.63704" lon="5.80436">
        <ele>513</ele>
        <time>2017-09-07T13:11:32Z</time>
      </trkpt>
      <trkpt lat="46.63719" lon="5.80419">
        <ele>514</ele>
        <time>2017-09-07T13:11:49Z</time>
      </trkpt>
      <trkpt lat="46.63728" lon="5.80412">
        <ele>515</ele>
        <time>2017-09-07T13:11:56Z</time>
      </trkpt>
      <trkpt lat="46.63747" lon="5.80405">
        <ele>517</ele>
        <time>2017-09-07T13:12:16Z</time>
      </trkpt>
      <trkpt lat="46.63757" lon="5.80405">
        <ele>517</ele>
        <time>2017-09-07T13:12:25Z</time>
      </trkpt>
      <trkpt lat="46.63798" lon="5.80385">
        <ele>519</ele>
        <time>2017-09-07T13:12:59Z</time>
      </trkpt>
      <trkpt lat="46.63811" lon="5.80375">
        <ele>518</ele>
        <time>2017-09-07T13:13:12Z</time>
      </trkpt>
      <trkpt lat="46.63817" lon="5.80372">
        <ele>518</ele>
        <time>2017-09-07T13:13:17Z</time>
      </trkpt>
      <trkpt lat="46.63822" lon="5.80373">
        <ele>518</ele>
        <time>2017-09-07T13:13:20Z</time>
      </trkpt>
      <trkpt lat="46.63831" lon="5.80368">
        <ele>517</ele>
        <time>2017-09-07T13:13:28Z</time>
      </trkpt>
      <trkpt lat="46.63841" lon="5.80365">
        <ele>517</ele>
        <time>2017-09-07T13:13:36Z</time>
      </trkpt>
      <trkpt lat="46.6385" lon="5.8036">
        <ele>518</ele>
        <time>2017-09-07T13:13:45Z</time>
      </trkpt>
      <trkpt lat="46.63888" lon="5.80352">
        <ele>519</ele>
        <time>2017-09-07T13:14:19Z</time>
      </trkpt>
      <trkpt lat="46.63896" lon="5.80346">
        <ele>518</ele>
        <time>2017-09-07T13:14:26Z</time>
      </trkpt>
      <trkpt lat="46.63906" lon="5.80343">
        <ele>519</ele>
        <time>2017-09-07T13:14:34Z</time>
      </trkpt>
      <trkpt lat="46.63913" lon="5.80335">
        <ele>519</ele>
        <time>2017-09-07T13:14:41Z</time>
      </trkpt>
      <trkpt lat="46.63932" lon="5.80326">
        <ele>520</ele>
        <time>2017-09-07T13:14:57Z</time>
      </trkpt>
      <trkpt lat="46.6394" lon="5.80317">
        <ele>519</ele>
        <time>2017-09-07T13:15:06Z</time>
      </trkpt>
      <trkpt lat="46.63948" lon="5.80311">
        <ele>519</ele>
        <time>2017-09-07T13:15:14Z</time>
      </trkpt>
      <trkpt lat="46.63963" lon="5.80309">
        <ele>521</ele>
        <time>2017-09-07T13:15:36Z</time>
      </trkpt>
      <trkpt lat="46.63997" lon="5.80284">
        <ele>519</ele>
        <time>2017-09-07T13:16:08Z</time>
      </trkpt>
      <trkpt lat="46.64005" lon="5.80277">
        <ele>519</ele>
        <time>2017-09-07T13:16:15Z</time>
      </trkpt>
      <trkpt lat="46.64014" lon="5.80277">
        <ele>519</ele>
        <time>2017-09-07T13:16:24Z</time>
      </trkpt>
      <trkpt lat="46.64024" lon="5.80277">
        <ele>519</ele>
        <time>2017-09-07T13:16:33Z</time>
      </trkpt>
      <trkpt lat="46.6405" lon="5.80259">
        <ele>521</ele>
        <time>2017-09-07T13:16:59Z</time>
      </trkpt>
      <trkpt lat="46.6406" lon="5.80259">
        <ele>521</ele>
        <time>2017-09-07T13:17:09Z</time>
      </trkpt>
      <trkpt lat="46.64069" lon="5.80254">
        <ele>521</ele>
        <time>2017-09-07T13:17:17Z</time>
      </trkpt>
      <trkpt lat="46.64088" lon="5.80248">
        <ele>521</ele>
        <time>2017-09-07T13:17:34Z</time>
      </trkpt>
      <trkpt lat="46.64104" lon="5.80236">
        <ele>521</ele>
        <time>2017-09-07T13:17:55Z</time>
      </trkpt>
      <trkpt lat="46.64122" lon="5.80231">
        <ele>524</ele>
        <time>2017-09-07T13:18:11Z</time>
      </trkpt>
      <trkpt lat="46.64141" lon="5.80224">
        <ele>524</ele>
        <time>2017-09-07T13:18:28Z</time>
      </trkpt>
      <trkpt lat="46.64151" lon="5.80223">
        <ele>523</ele>
        <time>2017-09-07T13:18:42Z</time>
      </trkpt>
      <trkpt lat="46.64161" lon="5.80221">
        <ele>522</ele>
        <time>2017-09-07T13:18:51Z</time>
      </trkpt>
      <trkpt lat="46.6417" lon="5.80218">
        <ele>523</ele>
        <time>2017-09-07T13:18:58Z</time>
      </trkpt>
      <trkpt lat="46.64179" lon="5.80215">
        <ele>523</ele>
        <time>2017-09-07T13:19:07Z</time>
      </trkpt>
      <trkpt lat="46.64214" lon="5.80193">
        <ele>522</ele>
        <time>2017-09-07T13:19:38Z</time>
      </trkpt>
      <trkpt lat="46.6423" lon="5.80177">
        <ele>522</ele>
        <time>2017-09-07T13:19:52Z</time>
      </trkpt>
      <trkpt lat="46.64232" lon="5.80163">
        <ele>521</ele>
        <time>2017-09-07T13:20:00Z</time>
      </trkpt>
      <trkpt lat="46.64241" lon="5.80156">
        <ele>521</ele>
        <time>2017-09-07T13:20:08Z</time>
      </trkpt>
      <trkpt lat="46.6426" lon="5.80153">
        <ele>518</ele>
        <time>2017-09-07T13:20:27Z</time>
      </trkpt>
      <trkpt lat="46.64267" lon="5.80144">
        <ele>517</ele>
        <time>2017-09-07T13:20:37Z</time>
      </trkpt>
      <trkpt lat="46.64276" lon="5.80137">
        <ele>518</ele>
        <time>2017-09-07T13:20:47Z</time>
      </trkpt>
      <trkpt lat="46.64285" lon="5.80133">
        <ele>518</ele>
        <time>2017-09-07T13:20:56Z</time>
      </trkpt>
      <trkpt lat="46.64293" lon="5.80126">
        <ele>517</ele>
        <time>2017-09-07T13:21:06Z</time>
      </trkpt>
      <trkpt lat="46.64297" lon="5.80123">
        <ele>516</ele>
        <time>2017-09-07T13:21:11Z</time>
      </trkpt>
      <trkpt lat="46.64301" lon="5.80119">
        <ele>516</ele>
        <time>2017-09-07T13:21:16Z</time>
      </trkpt>
      <trkpt lat="46.64311" lon="5.80104">
        <ele>516</ele>
        <time>2017-09-07T13:21:30Z</time>
      </trkpt>
      <trkpt lat="46.64315" lon="5.80099">
        <ele>515</ele>
        <time>2017-09-07T13:21:34Z</time>
      </trkpt>
      <trkpt lat="46.64319" lon="5.80096">
        <ele>515</ele>
        <time>2017-09-07T13:21:39Z</time>
      </trkpt>
      <trkpt lat="46.64323" lon="5.8009">
        <ele>515</ele>
        <time>2017-09-07T13:21:44Z</time>
      </trkpt>
      <trkpt lat="46.6433" lon="5.80079">
        <ele>514</ele>
        <time>2017-09-07T13:21:53Z</time>
      </trkpt>
      <trkpt lat="46.64334" lon="5.80076">
        <ele>513</ele>
        <time>2017-09-07T13:21:57Z</time>
      </trkpt>
      <trkpt lat="46.64339" lon="5.80075">
        <ele>513</ele>
        <time>2017-09-07T13:22:02Z</time>
      </trkpt>
      <trkpt lat="46.64352" lon="5.80066">
        <ele>512</ele>
        <time>2017-09-07T13:22:17Z</time>
      </trkpt>
      <trkpt lat="46.64374" lon="5.80038">
        <ele>514</ele>
        <time>2017-09-07T13:22:43Z</time>
      </trkpt>
      <trkpt lat="46.64389" lon="5.80016">
        <ele>513</ele>
        <time>2017-09-07T13:23:13Z</time>
      </trkpt>
      <trkpt lat="46.64404" lon="5.8">
        <ele>510</ele>
        <time>2017-09-07T13:23:30Z</time>
      </trkpt>
      <trkpt lat="46.64431" lon="5.7996">
        <ele>509</ele>
        <time>2017-09-07T13:24:06Z</time>
      </trkpt>
      <trkpt lat="46.6444" lon="5.79936">
        <ele>506</ele>
        <time>2017-09-07T13:24:29Z</time>
      </trkpt>
      <trkpt lat="46.64445" lon="5.79924">
        <ele>506</ele>
        <time>2017-09-07T13:24:40Z</time>
      </trkpt>
      <trkpt lat="46.64449" lon="5.79912">
        <ele>506</ele>
        <time>2017-09-07T13:24:47Z</time>
      </trkpt>
      <trkpt lat="46.64456" lon="5.79903">
        <ele>505</ele>
        <time>2017-09-07T13:24:56Z</time>
      </trkpt>
      <trkpt lat="46.64464" lon="5.79891">
        <ele>506</ele>
        <time>2017-09-07T13:25:20Z</time>
      </trkpt>
      <trkpt lat="46.6447" lon="5.79881">
        <ele>506</ele>
        <time>2017-09-07T13:25:30Z</time>
      </trkpt>
      <trkpt lat="46.64487" lon="5.79848">
        <ele>508</ele>
        <time>2017-09-07T13:26:03Z</time>
      </trkpt>
      <trkpt lat="46.64494" lon="5.79838">
        <ele>508</ele>
        <time>2017-09-07T13:26:13Z</time>
      </trkpt>
      <trkpt lat="46.64503" lon="5.79814">
        <ele>505</ele>
        <time>2017-09-07T13:26:29Z</time>
      </trkpt>
      <trkpt lat="46.64509" lon="5.79803">
        <ele>504</ele>
        <time>2017-09-07T13:26:41Z</time>
      </trkpt>
      <trkpt lat="46.64514" lon="5.79792">
        <ele>503</ele>
        <time>2017-09-07T13:26:50Z</time>
      </trkpt>
      <trkpt lat="46.64525" lon="5.7977">
        <ele>501</ele>
        <time>2017-09-07T13:27:06Z</time>
      </trkpt>
      <trkpt lat="46.64543" lon="5.79738">
        <ele>502</ele>
        <time>2017-09-07T13:27:34Z</time>
      </trkpt>
      <trkpt lat="46.64546" lon="5.79725">
        <ele>502</ele>
        <time>2017-09-07T13:27:44Z</time>
      </trkpt>
      <trkpt lat="46.64558" lon="5.79704">
        <ele>504</ele>
        <time>2017-09-07T13:28:02Z</time>
      </trkpt>
      <trkpt lat="46.64573" lon="5.7967">
        <ele>504</ele>
        <time>2017-09-07T13:28:29Z</time>
      </trkpt>
      <trkpt lat="46.64579" lon="5.7966">
        <ele>503</ele>
        <time>2017-09-07T13:28:37Z</time>
      </trkpt>
      <trkpt lat="46.64583" lon="5.79648">
        <ele>503</ele>
        <time>2017-09-07T13:28:45Z</time>
      </trkpt>
      <trkpt lat="46.64588" lon="5.79637">
        <ele>502</ele>
        <time>2017-09-07T13:28:56Z</time>
      </trkpt>
      <trkpt lat="46.64596" lon="5.79628">
        <ele>501</ele>
        <time>2017-09-07T13:29:11Z</time>
      </trkpt>
      <trkpt lat="46.64601" lon="5.79617">
        <ele>500</ele>
        <time>2017-09-07T13:29:23Z</time>
      </trkpt>
      <trkpt lat="46.64609" lon="5.79608">
        <ele>500</ele>
        <time>2017-09-07T13:29:36Z</time>
      </trkpt>
      <trkpt lat="46.64623" lon="5.79572">
        <ele>503</ele>
        <time>2017-09-07T13:30:01Z</time>
      </trkpt>
      <trkpt lat="46.64629" lon="5.79561">
        <ele>503</ele>
        <time>2017-09-07T13:30:10Z</time>
      </trkpt>
      <trkpt lat="46.64634" lon="5.79549">
        <ele>503</ele>
        <time>2017-09-07T13:30:19Z</time>
      </trkpt>
      <trkpt lat="46.64638" lon="5.79538">
        <ele>503</ele>
        <time>2017-09-07T13:30:29Z</time>
      </trkpt>
      <trkpt lat="46.64645" lon="5.79527">
        <ele>505</ele>
        <time>2017-09-07T13:30:37Z</time>
      </trkpt>
      <trkpt lat="46.64648" lon="5.79515">
        <ele>505</ele>
        <time>2017-09-07T13:30:46Z</time>
      </trkpt>
      <trkpt lat="46.64653" lon="5.79503">
        <ele>507</ele>
        <time>2017-09-07T13:30:57Z</time>
      </trkpt>
      <trkpt lat="46.64658" lon="5.79485">
        <ele>508</ele>
        <time>2017-09-07T13:31:09Z</time>
      </trkpt>
      <trkpt lat="46.64663" lon="5.79473">
        <ele>508</ele>
        <time>2017-09-07T13:31:19Z</time>
      </trkpt>
      <trkpt lat="46.64665" lon="5.79466">
        <ele>508</ele>
        <time>2017-09-07T13:31:25Z</time>
      </trkpt>
      <trkpt lat="46.64669" lon="5.7946">
        <ele>508</ele>
        <time>2017-09-07T13:31:31Z</time>
      </trkpt>
      <trkpt lat="46.6467" lon="5.79452">
        <ele>507</ele>
        <time>2017-09-07T13:31:37Z</time>
      </trkpt>
      <trkpt lat="46.64681" lon="5.79421">
        <ele>504</ele>
        <time>2017-09-07T13:32:00Z</time>
      </trkpt>
      <trkpt lat="46.64684" lon="5.79415">
        <ele>504</ele>
        <time>2017-09-07T13:32:04Z</time>
      </trkpt>
      <trkpt lat="46.64687" lon="5.79402">
        <ele>505</ele>
        <time>2017-09-07T13:32:16Z</time>
      </trkpt>
      <trkpt lat="46.64699" lon="5.7938">
        <ele>504</ele>
        <time>2017-09-07T13:32:35Z</time>
      </trkpt>
      <trkpt lat="46.64706" lon="5.79355">
        <ele>504</ele>
        <time>2017-09-07T13:32:56Z</time>
      </trkpt>
      <trkpt lat="46.64712" lon="5.79346">
        <ele>504</ele>
        <time>2017-09-07T13:33:05Z</time>
      </trkpt>
      <trkpt lat="46.64727" lon="5.79301">
        <ele>508</ele>
        <time>2017-09-07T13:33:39Z</time>
      </trkpt>
      <trkpt lat="46.64731" lon="5.79287">
        <ele>506</ele>
        <time>2017-09-07T13:33:49Z</time>
      </trkpt>
      <trkpt lat="46.64734" lon="5.79281">
        <ele>506</ele>
        <time>2017-09-07T13:33:56Z</time>
      </trkpt>
      <trkpt lat="46.64741" lon="5.79268">
        <ele>506</ele>
        <time>2017-09-07T13:34:05Z</time>
      </trkpt>
      <trkpt lat="46.64744" lon="5.79256">
        <ele>505</ele>
        <time>2017-09-07T13:34:13Z</time>
      </trkpt>
      <trkpt lat="46.64747" lon="5.7925">
        <ele>505</ele>
        <time>2017-09-07T13:34:17Z</time>
      </trkpt>
      <trkpt lat="46.64749" lon="5.79244">
        <ele>505</ele>
        <time>2017-09-07T13:34:22Z</time>
      </trkpt>
      <trkpt lat="46.64752" lon="5.79238">
        <ele>505</ele>
        <time>2017-09-07T13:34:26Z</time>
      </trkpt>
      <trkpt lat="46.64755" lon="5.79224">
        <ele>504</ele>
        <time>2017-09-07T13:34:33Z</time>
      </trkpt>
      <trkpt lat="46.6476" lon="5.79211">
        <ele>504</ele>
        <time>2017-09-07T13:34:41Z</time>
      </trkpt>
      <trkpt lat="46.64768" lon="5.79203">
        <ele>504</ele>
        <time>2017-09-07T13:34:48Z</time>
      </trkpt>
      <trkpt lat="46.64771" lon="5.7919">
        <ele>504</ele>
        <time>2017-09-07T13:34:57Z</time>
      </trkpt>
      <trkpt lat="46.64779" lon="5.7918">
        <ele>504</ele>
        <time>2017-09-07T13:35:09Z</time>
      </trkpt>
      <trkpt lat="46.64782" lon="5.79166">
        <ele>504</ele>
        <time>2017-09-07T13:35:19Z</time>
      </trkpt>
      <trkpt lat="46.64788" lon="5.79155">
        <ele>504</ele>
        <time>2017-09-07T13:35:27Z</time>
      </trkpt>
      <trkpt lat="46.64795" lon="5.79129">
        <ele>505</ele>
        <time>2017-09-07T13:35:42Z</time>
      </trkpt>
      <trkpt lat="46.648" lon="5.79117">
        <ele>505</ele>
        <time>2017-09-07T13:35:51Z</time>
      </trkpt>
      <trkpt lat="46.64803" lon="5.79103">
        <ele>505</ele>
        <time>2017-09-07T13:35:59Z</time>
      </trkpt>
      <trkpt lat="46.64806" lon="5.7909">
        <ele>506</ele>
        <time>2017-09-07T13:36:09Z</time>
      </trkpt>
      <trkpt lat="46.64808" lon="5.79077">
        <ele>507</ele>
        <time>2017-09-07T13:36:19Z</time>
      </trkpt>
      <trkpt lat="46.64812" lon="5.79051">
        <ele>504</ele>
        <time>2017-09-07T13:36:33Z</time>
      </trkpt>
      <trkpt lat="46.64816" lon="5.79039">
        <ele>501</ele>
        <time>2017-09-07T13:36:40Z</time>
      </trkpt>
      <trkpt lat="46.64816" lon="5.79011">
        <ele>496</ele>
        <time>2017-09-07T13:36:56Z</time>
      </trkpt>
      <trkpt lat="46.64816" lon="5.78997">
        <ele>495</ele>
        <time>2017-09-07T13:37:06Z</time>
      </trkpt>
      <trkpt lat="46.64805" lon="5.78959">
        <ele>496</ele>
        <time>2017-09-07T13:37:37Z</time>
      </trkpt>
      <trkpt lat="46.64802" lon="5.78946">
        <ele>497</ele>
        <time>2017-09-07T13:37:48Z</time>
      </trkpt>
      <trkpt lat="46.64797" lon="5.78935">
        <ele>497</ele>
        <time>2017-09-07T13:37:59Z</time>
      </trkpt>
      <trkpt lat="46.64793" lon="5.78923">
        <ele>499</ele>
        <time>2017-09-07T13:38:16Z</time>
      </trkpt>
      <trkpt lat="46.6479" lon="5.7891">
        <ele>505</ele>
        <time>2017-09-07T13:38:31Z</time>
      </trkpt>
      <trkpt lat="46.64784" lon="5.78899">
        <ele>509</ele>
        <time>2017-09-07T13:38:45Z</time>
      </trkpt>
      <trkpt lat="46.64769" lon="5.78884">
        <ele>511</ele>
        <time>2017-09-07T13:39:12Z</time>
      </trkpt>
      <trkpt lat="46.64764" lon="5.78872">
        <ele>515</ele>
        <time>2017-09-07T13:39:29Z</time>
      </trkpt>
      <trkpt lat="46.64757" lon="5.78864">
        <ele>516</ele>
        <time>2017-09-07T13:39:44Z</time>
      </trkpt>
      <trkpt lat="46.64749" lon="5.78863">
        <ele>521</ele>
        <time>2017-09-07T13:40:20Z</time>
      </trkpt>
      <trkpt lat="46.64744" lon="5.78857">
        <ele>523</ele>
        <time>2017-09-07T13:40:53Z</time>
      </trkpt>
      <trkpt lat="46.64746" lon="5.78851">
        <ele>531</ele>
        <time>2017-09-07T13:41:13Z</time>
      </trkpt>
      <trkpt lat="46.64755" lon="5.78859">
        <ele>534</ele>
        <time>2017-09-07T13:41:42Z</time>
      </trkpt>
      <trkpt lat="46.64758" lon="5.78853">
        <ele>533</ele>
        <time>2017-09-07T13:43:08Z</time>
      </trkpt>
      <trkpt lat="46.64749" lon="5.78848">
        <ele>532</ele>
        <time>2017-09-07T13:46:00Z</time>
      </trkpt>
      <trkpt lat="46.64773" lon="5.78833">
        <ele>524</ele>
        <time>2017-09-07T13:47:14Z</time>
      </trkpt>
      <trkpt lat="46.64781" lon="5.78825">
        <ele>523</ele>
        <time>2017-09-07T13:47:22Z</time>
      </trkpt>
      <trkpt lat="46.64784" lon="5.78796">
        <ele>523</ele>
        <time>2017-09-07T13:47:39Z</time>
      </trkpt>
      <trkpt lat="46.64783" lon="5.78788">
        <ele>523</ele>
        <time>2017-09-07T13:47:43Z</time>
      </trkpt>
      <trkpt lat="46.64784" lon="5.78781">
        <ele>523</ele>
        <time>2017-09-07T13:47:47Z</time>
      </trkpt>
      <trkpt lat="46.64785" lon="5.78773">
        <ele>523</ele>
        <time>2017-09-07T13:47:51Z</time>
      </trkpt>
      <trkpt lat="46.64785" lon="5.78766">
        <ele>523</ele>
        <time>2017-09-07T13:47:55Z</time>
      </trkpt>
      <trkpt lat="46.6479" lon="5.78729">
        <ele>524</ele>
        <time>2017-09-07T13:48:16Z</time>
      </trkpt>
      <trkpt lat="46.6479" lon="5.78722">
        <ele>524</ele>
        <time>2017-09-07T13:48:20Z</time>
      </trkpt>
      <trkpt lat="46.6479" lon="5.78662">
        <ele>522</ele>
        <time>2017-09-07T13:48:53Z</time>
      </trkpt>
      <trkpt lat="46.6479" lon="5.78654">
        <ele>522</ele>
        <time>2017-09-07T13:48:58Z</time>
      </trkpt>
      <trkpt lat="46.64788" lon="5.78639">
        <ele>520</ele>
        <time>2017-09-07T13:49:07Z</time>
      </trkpt>
      <trkpt lat="46.64781" lon="5.78617">
        <ele>519</ele>
        <time>2017-09-07T13:49:19Z</time>
      </trkpt>
      <trkpt lat="46.64779" lon="5.78611">
        <ele>519</ele>
        <time>2017-09-07T13:49:23Z</time>
      </trkpt>
      <trkpt lat="46.64777" lon="5.78604">
        <ele>519</ele>
        <time>2017-09-07T13:49:28Z</time>
      </trkpt>
      <trkpt lat="46.64775" lon="5.78581">
        <ele>519</ele>
        <time>2017-09-07T13:49:42Z</time>
      </trkpt>
      <trkpt lat="46.64772" lon="5.7856">
        <ele>520</ele>
        <time>2017-09-07T13:49:54Z</time>
      </trkpt>
      <trkpt lat="46.6477" lon="5.78537">
        <ele>519</ele>
        <time>2017-09-07T13:50:08Z</time>
      </trkpt>
      <trkpt lat="46.64769" lon="5.78522">
        <ele>519</ele>
        <time>2017-09-07T13:50:16Z</time>
      </trkpt>
      <trkpt lat="46.64769" lon="5.78515">
        <ele>519</ele>
        <time>2017-09-07T13:50:20Z</time>
      </trkpt>
      <trkpt lat="46.64765" lon="5.78494">
        <ele>521</ele>
        <time>2017-09-07T13:50:35Z</time>
      </trkpt>
      <trkpt lat="46.64766" lon="5.78476">
        <ele>521</ele>
        <time>2017-09-07T13:50:49Z</time>
      </trkpt>
      <trkpt lat="46.64766" lon="5.78468">
        <ele>521</ele>
        <time>2017-09-07T13:50:53Z</time>
      </trkpt>
      <trkpt lat="46.64767" lon="5.78461">
        <ele>520</ele>
        <time>2017-09-07T13:50:57Z</time>
      </trkpt>
      <trkpt lat="46.6477" lon="5.78454">
        <ele>521</ele>
        <time>2017-09-07T13:51:02Z</time>
      </trkpt>
      <trkpt lat="46.64773" lon="5.78449">
        <ele>521</ele>
        <time>2017-09-07T13:51:06Z</time>
      </trkpt>
      <trkpt lat="46.64775" lon="5.78443">
        <ele>521</ele>
        <time>2017-09-07T13:51:11Z</time>
      </trkpt>
      <trkpt lat="46.64778" lon="5.78428">
        <ele>522</ele>
        <time>2017-09-07T13:51:20Z</time>
      </trkpt>
      <trkpt lat="46.64781" lon="5.78414">
        <ele>523</ele>
        <time>2017-09-07T13:51:29Z</time>
      </trkpt>
      <trkpt lat="46.64781" lon="5.78407">
        <ele>522</ele>
        <time>2017-09-07T13:51:33Z</time>
      </trkpt>
      <trkpt lat="46.64783" lon="5.784">
        <ele>522</ele>
        <time>2017-09-07T13:51:38Z</time>
      </trkpt>
      <trkpt lat="46.64787" lon="5.78386">
        <ele>521</ele>
        <time>2017-09-07T13:51:47Z</time>
      </trkpt>
      <trkpt lat="46.64787" lon="5.78379">
        <ele>521</ele>
        <time>2017-09-07T13:51:52Z</time>
      </trkpt>
      <trkpt lat="46.64785" lon="5.78356">
        <ele>523</ele>
        <time>2017-09-07T13:52:06Z</time>
      </trkpt>
      <trkpt lat="46.64788" lon="5.78343">
        <ele>524</ele>
        <time>2017-09-07T13:52:15Z</time>
      </trkpt>
      <trkpt lat="46.64804" lon="5.78305">
        <ele>526</ele>
        <time>2017-09-07T13:52:39Z</time>
      </trkpt>
      <trkpt lat="46.64814" lon="5.7828">
        <ele>527</ele>
        <time>2017-09-07T13:52:55Z</time>
      </trkpt>
      <trkpt lat="46.64818" lon="5.78267">
        <ele>528</ele>
        <time>2017-09-07T13:53:05Z</time>
      </trkpt>
      <trkpt lat="46.64823" lon="5.78256">
        <ele>530</ele>
        <time>2017-09-07T13:53:14Z</time>
      </trkpt>
      <trkpt lat="46.64825" lon="5.78215">
        <ele>533</ele>
        <time>2017-09-07T13:53:38Z</time>
      </trkpt>
      <trkpt lat="46.64832" lon="5.78204">
        <ele>534</ele>
        <time>2017-09-07T13:53:44Z</time>
      </trkpt>
      <trkpt lat="46.6484" lon="5.7818">
        <ele>538</ele>
        <time>2017-09-07T13:54:01Z</time>
      </trkpt>
      <trkpt lat="46.64857" lon="5.78143">
        <ele>541</ele>
        <time>2017-09-07T13:54:31Z</time>
      </trkpt>
      <trkpt lat="46.64873" lon="5.78108">
        <ele>539</ele>
        <time>2017-09-07T13:54:54Z</time>
      </trkpt>
      <trkpt lat="46.64877" lon="5.78096">
        <ele>539</ele>
        <time>2017-09-07T13:55:03Z</time>
      </trkpt>
      <trkpt lat="46.64886" lon="5.78071">
        <ele>536</ele>
        <time>2017-09-07T13:55:18Z</time>
      </trkpt>
      <trkpt lat="46.64889" lon="5.78058">
        <ele>536</ele>
        <time>2017-09-07T13:55:26Z</time>
      </trkpt>
      <trkpt lat="46.64904" lon="5.78021">
        <ele>531</ele>
        <time>2017-09-07T13:55:51Z</time>
      </trkpt>
      <trkpt lat="46.64908" lon="5.77994">
        <ele>527</ele>
        <time>2017-09-07T13:56:08Z</time>
      </trkpt>
      <trkpt lat="46.64912" lon="5.77981">
        <ele>527</ele>
        <time>2017-09-07T13:56:18Z</time>
      </trkpt>
      <trkpt lat="46.64918" lon="5.77969">
        <ele>526</ele>
        <time>2017-09-07T13:56:30Z</time>
      </trkpt>
      <trkpt lat="46.64921" lon="5.77963">
        <ele>525</ele>
        <time>2017-09-07T13:56:42Z</time>
      </trkpt>
      <trkpt lat="46.64921" lon="5.77951">
        <ele>518</ele>
        <time>2017-09-07T13:57:29Z</time>
      </trkpt>
      <trkpt lat="46.6492" lon="5.77928">
        <ele>513</ele>
        <time>2017-09-07T13:58:08Z</time>
      </trkpt>
      <trkpt lat="46.64918" lon="5.77915">
        <ele>513</ele>
        <time>2017-09-07T13:58:20Z</time>
      </trkpt>
      <trkpt lat="46.64911" lon="5.77909">
        <ele>507</ele>
        <time>2017-09-07T13:59:05Z</time>
      </trkpt>
      <trkpt lat="46.6491" lon="5.77896">
        <ele>505</ele>
        <time>2017-09-07T13:59:24Z</time>
      </trkpt>
      <trkpt lat="46.6491" lon="5.7789">
        <ele>506</ele>
        <time>2017-09-07T13:59:29Z</time>
      </trkpt>
      <trkpt lat="46.64908" lon="5.77883">
        <ele>505</ele>
        <time>2017-09-07T13:59:34Z</time>
      </trkpt>
      <trkpt lat="46.64906" lon="5.77877">
        <ele>504</ele>
        <time>2017-09-07T13:59:39Z</time>
      </trkpt>
      <trkpt lat="46.64905" lon="5.77855">
        <ele>502</ele>
        <time>2017-09-07T13:59:54Z</time>
      </trkpt>
      <trkpt lat="46.64894" lon="5.77829">
        <ele>502</ele>
        <time>2017-09-07T14:00:12Z</time>
      </trkpt>
      <trkpt lat="46.64888" lon="5.77818">
        <ele>502</ele>
        <time>2017-09-07T14:00:24Z</time>
      </trkpt>
      <trkpt lat="46.64892" lon="5.77811">
        <ele>502</ele>
        <time>2017-09-07T14:00:35Z</time>
      </trkpt>
      <trkpt lat="46.64897" lon="5.77812">
        <ele>501</ele>
        <time>2017-09-07T14:00:39Z</time>
      </trkpt>
      <trkpt lat="46.64902" lon="5.77813">
        <ele>500</ele>
        <time>2017-09-07T14:00:44Z</time>
      </trkpt>
      <trkpt lat="46.64912" lon="5.77814">
        <ele>500</ele>
        <time>2017-09-07T14:00:53Z</time>
      </trkpt>
      <trkpt lat="46.64923" lon="5.77814">
        <ele>500</ele>
        <time>2017-09-07T14:01:04Z</time>
      </trkpt>
      <trkpt lat="46.64927" lon="5.77813">
        <ele>500</ele>
        <time>2017-09-07T14:01:10Z</time>
      </trkpt>
      <trkpt lat="46.64932" lon="5.77814">
        <ele>500</ele>
        <time>2017-09-07T14:01:16Z</time>
      </trkpt>
      <trkpt lat="46.64942" lon="5.77817">
        <ele>502</ele>
        <time>2017-09-07T14:01:26Z</time>
      </trkpt>
      <trkpt lat="46.64946" lon="5.77819">
        <ele>501</ele>
        <time>2017-09-07T14:01:31Z</time>
      </trkpt>
      <trkpt lat="46.64951" lon="5.77817">
        <ele>501</ele>
        <time>2017-09-07T14:01:37Z</time>
      </trkpt>
      <trkpt lat="46.64955" lon="5.77812">
        <ele>500</ele>
        <time>2017-09-07T14:01:43Z</time>
      </trkpt>
      <trkpt lat="46.6496" lon="5.7781">
        <ele>500</ele>
        <time>2017-09-07T14:01:48Z</time>
      </trkpt>
      <trkpt lat="46.64965" lon="5.7781">
        <ele>502</ele>
        <time>2017-09-07T14:01:55Z</time>
      </trkpt>
      <trkpt lat="46.64969" lon="5.77806">
        <ele>503</ele>
        <time>2017-09-07T14:02:02Z</time>
      </trkpt>
      <trkpt lat="46.64984" lon="5.778">
        <ele>506</ele>
        <time>2017-09-07T14:02:20Z</time>
      </trkpt>
      <trkpt lat="46.64988" lon="5.778">
        <ele>507</ele>
        <time>2017-09-07T14:02:25Z</time>
      </trkpt>
      <trkpt lat="46.64993" lon="5.77799">
        <ele>508</ele>
        <time>2017-09-07T14:02:30Z</time>
      </trkpt>
      <trkpt lat="46.64997" lon="5.77802">
        <ele>508</ele>
        <time>2017-09-07T14:02:37Z</time>
      </trkpt>
      <trkpt lat="46.65002" lon="5.77799">
        <ele>510</ele>
        <time>2017-09-07T14:02:42Z</time>
      </trkpt>
      <trkpt lat="46.65007" lon="5.77799">
        <ele>511</ele>
        <time>2017-09-07T14:02:47Z</time>
      </trkpt>
      <trkpt lat="46.65012" lon="5.778">
        <ele>513</ele>
        <time>2017-09-07T14:02:53Z</time>
      </trkpt>
      <trkpt lat="46.65016" lon="5.77799">
        <ele>513</ele>
        <time>2017-09-07T14:02:58Z</time>
      </trkpt>
      <trkpt lat="46.65026" lon="5.77802">
        <ele>514</ele>
        <time>2017-09-07T14:03:09Z</time>
      </trkpt>
      <trkpt lat="46.65046" lon="5.77803">
        <ele>517</ele>
        <time>2017-09-07T14:03:28Z</time>
      </trkpt>
      <trkpt lat="46.65065" lon="5.77809">
        <ele>518</ele>
        <time>2017-09-07T14:03:44Z</time>
      </trkpt>
      <trkpt lat="46.65074" lon="5.77813">
        <ele>517</ele>
        <time>2017-09-07T14:03:52Z</time>
      </trkpt>
      <trkpt lat="46.65084" lon="5.77817">
        <ele>518</ele>
        <time>2017-09-07T14:04:02Z</time>
      </trkpt>
      <trkpt lat="46.65098" lon="5.77825">
        <ele>518</ele>
        <time>2017-09-07T14:04:18Z</time>
      </trkpt>
      <trkpt lat="46.65103" lon="5.77821">
        <ele>516</ele>
        <time>2017-09-07T14:05:13Z</time>
      </trkpt>
      <trkpt lat="46.65108" lon="5.77821">
        <ele>516</ele>
        <time>2017-09-07T14:05:18Z</time>
      </trkpt>
      <trkpt lat="46.65112" lon="5.77818">
        <ele>518</ele>
        <time>2017-09-07T14:05:23Z</time>
      </trkpt>
      <trkpt lat="46.65147" lon="5.77805">
        <ele>524</ele>
        <time>2017-09-07T14:05:56Z</time>
      </trkpt>
      <trkpt lat="46.65161" lon="5.77805">
        <ele>525</ele>
        <time>2017-09-07T14:06:11Z</time>
      </trkpt>
      <trkpt lat="46.65172" lon="5.77808">
        <ele>526</ele>
        <time>2017-09-07T14:06:21Z</time>
      </trkpt>
      <trkpt lat="46.65181" lon="5.77812">
        <ele>526</ele>
        <time>2017-09-07T14:06:29Z</time>
      </trkpt>
      <trkpt lat="46.65191" lon="5.77819">
        <ele>526</ele>
        <time>2017-09-07T14:06:38Z</time>
      </trkpt>
      <trkpt lat="46.65195" lon="5.77821">
        <ele>524</ele>
        <time>2017-09-07T14:06:47Z</time>
      </trkpt>
      <trkpt lat="46.65204" lon="5.77831">
        <ele>523</ele>
        <time>2017-09-07T14:06:56Z</time>
      </trkpt>
      <trkpt lat="46.65208" lon="5.77835">
        <ele>523</ele>
        <time>2017-09-07T14:06:59Z</time>
      </trkpt>
      <trkpt lat="46.65212" lon="5.77838">
        <ele>523</ele>
        <time>2017-09-07T14:07:03Z</time>
      </trkpt>
      <trkpt lat="46.65218" lon="5.77845">
        <ele>522</ele>
        <time>2017-09-07T14:07:14Z</time>
      </trkpt>
      <trkpt lat="46.65221" lon="5.77851">
        <ele>522</ele>
        <time>2017-09-07T14:07:19Z</time>
      </trkpt>
      <trkpt lat="46.65227" lon="5.77863">
        <ele>523</ele>
        <time>2017-09-07T14:07:29Z</time>
      </trkpt>
      <trkpt lat="46.65244" lon="5.77901">
        <ele>528</ele>
        <time>2017-09-07T14:07:57Z</time>
      </trkpt>
      <trkpt lat="46.65247" lon="5.77914">
        <ele>529</ele>
        <time>2017-09-07T14:08:05Z</time>
      </trkpt>
      <trkpt lat="46.65253" lon="5.77925">
        <ele>530</ele>
        <time>2017-09-07T14:08:15Z</time>
      </trkpt>
      <trkpt lat="46.65258" lon="5.77929">
        <ele>530</ele>
        <time>2017-09-07T14:08:20Z</time>
      </trkpt>
      <trkpt lat="46.65269" lon="5.77942">
        <ele>530</ele>
        <time>2017-09-07T14:08:32Z</time>
      </trkpt>
      <trkpt lat="46.65274" lon="5.77944">
        <ele>530</ele>
        <time>2017-09-07T14:08:37Z</time>
      </trkpt>
      <trkpt lat="46.65288" lon="5.77952">
        <ele>530</ele>
        <time>2017-09-07T14:08:51Z</time>
      </trkpt>
      <trkpt lat="46.65294" lon="5.77954">
        <ele>529</ele>
        <time>2017-09-07T14:08:55Z</time>
      </trkpt>
      <trkpt lat="46.65311" lon="5.77972">
        <ele>528</ele>
        <time>2017-09-07T14:09:14Z</time>
      </trkpt>
      <trkpt lat="46.65316" lon="5.77973">
        <ele>528</ele>
        <time>2017-09-07T14:09:21Z</time>
      </trkpt>
      <trkpt lat="46.65321" lon="5.77973">
        <ele>529</ele>
        <time>2017-09-07T14:09:25Z</time>
      </trkpt>
      <trkpt lat="46.65325" lon="5.77972">
        <ele>528</ele>
        <time>2017-09-07T14:09:29Z</time>
      </trkpt>
      <trkpt lat="46.65329" lon="5.77967">
        <ele>528</ele>
        <time>2017-09-07T14:09:33Z</time>
      </trkpt>
      <trkpt lat="46.65332" lon="5.77963">
        <ele>528</ele>
        <time>2017-09-07T14:09:37Z</time>
      </trkpt>
      <trkpt lat="46.65337" lon="5.77958">
        <ele>527</ele>
        <time>2017-09-07T14:09:42Z</time>
      </trkpt>
      <trkpt lat="46.6534" lon="5.77954">
        <ele>527</ele>
        <time>2017-09-07T14:09:47Z</time>
      </trkpt>
      <trkpt lat="46.6535" lon="5.7795">
        <ele>527</ele>
        <time>2017-09-07T14:09:59Z</time>
      </trkpt>
      <trkpt lat="46.65353" lon="5.77944">
        <ele>526</ele>
        <time>2017-09-07T14:10:02Z</time>
      </trkpt>
      <trkpt lat="46.65358" lon="5.77945">
        <ele>526</ele>
        <time>2017-09-07T14:10:06Z</time>
      </trkpt>
      <trkpt lat="46.65367" lon="5.7794">
        <ele>525</ele>
        <time>2017-09-07T14:10:13Z</time>
      </trkpt>
      <trkpt lat="46.65376" lon="5.77931">
        <ele>524</ele>
        <time>2017-09-07T14:10:20Z</time>
      </trkpt>
      <trkpt lat="46.65381" lon="5.77928">
        <ele>523</ele>
        <time>2017-09-07T14:10:23Z</time>
      </trkpt>
      <trkpt lat="46.65384" lon="5.77921">
        <ele>522</ele>
        <time>2017-09-07T14:10:29Z</time>
      </trkpt>
      <trkpt lat="46.65391" lon="5.77904">
        <ele>521</ele>
        <time>2017-09-07T14:10:46Z</time>
      </trkpt>
      <trkpt lat="46.65395" lon="5.779">
        <ele>521</ele>
        <time>2017-09-07T14:10:52Z</time>
      </trkpt>
      <trkpt lat="46.654" lon="5.77899">
        <ele>523</ele>
        <time>2017-09-07T14:10:58Z</time>
      </trkpt>
      <trkpt lat="46.65404" lon="5.77902">
        <ele>524</ele>
        <time>2017-09-07T14:11:06Z</time>
      </trkpt>
      <trkpt lat="46.6541" lon="5.77902">
        <ele>525</ele>
        <time>2017-09-07T14:11:12Z</time>
      </trkpt>
      <trkpt lat="46.65418" lon="5.77897">
        <ele>524</ele>
        <time>2017-09-07T14:11:21Z</time>
      </trkpt>
      <trkpt lat="46.65424" lon="5.77896">
        <ele>524</ele>
        <time>2017-09-07T14:11:26Z</time>
      </trkpt>
      <trkpt lat="46.65428" lon="5.77894">
        <ele>524</ele>
        <time>2017-09-07T14:11:30Z</time>
      </trkpt>
      <trkpt lat="46.65448" lon="5.77887">
        <ele>520</ele>
        <time>2017-09-07T14:11:48Z</time>
      </trkpt>
      <trkpt lat="46.65453" lon="5.77884">
        <ele>520</ele>
        <time>2017-09-07T14:11:52Z</time>
      </trkpt>
      <trkpt lat="46.65457" lon="5.77882">
        <ele>519</ele>
        <time>2017-09-07T14:11:57Z</time>
      </trkpt>
      <trkpt lat="46.65461" lon="5.77877">
        <ele>518</ele>
        <time>2017-09-07T14:12:02Z</time>
      </trkpt>
      <trkpt lat="46.65465" lon="5.77872">
        <ele>518</ele>
        <time>2017-09-07T14:12:06Z</time>
      </trkpt>
      <trkpt lat="46.65469" lon="5.77867">
        <ele>519</ele>
        <time>2017-09-07T14:12:10Z</time>
      </trkpt>
      <trkpt lat="46.65473" lon="5.77865">
        <ele>520</ele>
        <time>2017-09-07T14:12:14Z</time>
      </trkpt>
      <trkpt lat="46.65479" lon="5.77863">
        <ele>520</ele>
        <time>2017-09-07T14:12:19Z</time>
      </trkpt>
      <trkpt lat="46.65487" lon="5.77855">
        <ele>521</ele>
        <time>2017-09-07T14:12:28Z</time>
      </trkpt>
      <trkpt lat="46.65492" lon="5.77855">
        <ele>521</ele>
        <time>2017-09-07T14:12:35Z</time>
      </trkpt>
      <trkpt lat="46.65506" lon="5.7785">
        <ele>523</ele>
        <time>2017-09-07T14:12:52Z</time>
      </trkpt>
      <trkpt lat="46.6551" lon="5.77846">
        <ele>523</ele>
        <time>2017-09-07T14:13:05Z</time>
      </trkpt>
    </trkseg>
  </trk>
</gpx>